Wetterdaten: Sonntag, 31.12.2023
Datum Zeit Temp. I. Temp. A. Feuchte I. Feuchte A. Luftdruck Regen Wind Richtung Richtung Sonnenschein Solar Taupunkt Windchill Windböen
31.12.2023 00:00 21,1 °C 3,8 °C 54 % 88 % 1013,0 hPa 0,0 l/m² 3,2 km/h (1 Bft) S-SO 157 ° 0 min 0 W/m² 2,0 °C 3,8 °C 6,4 km/h (2 Bft)
31.12.2023 00:01 21,1 °C 3,8 °C 54 % 88 % 1013,0 hPa 0,0 l/m² 3,2 km/h (1 Bft) S-SO 157 ° 0 min 0 W/m² 2,0 °C 3,8 °C 3,2 km/h (1 Bft)
31.12.2023 00:02 21,1 °C 3,8 °C 54 % 88 % 1013,0 hPa 0,0 l/m² 3,2 km/h (1 Bft) S-SO 157 ° 0 min 0 W/m² 2,0 °C 3,8 °C 6,4 km/h (2 Bft)
31.12.2023 00:03 21,1 °C 3,8 °C 54 % 88 % 1012,9 hPa 0,0 l/m² 0,0 km/h (0 Bft) S-SO 157 ° 0 min 0 W/m² 2,0 °C 3,8 °C 3,2 km/h (1 Bft)
31.12.2023 00:04 21,1 °C 3,8 °C 54 % 88 % 1013,0 hPa 0,0 l/m² 0,0 km/h (0 Bft) N 0 ° 0 min 0 W/m² 2,0 °C 3,8 °C 0,0 km/h (0 Bft)
31.12.2023 00:05 21,1 °C 3,8 °C 54 % 89 % 1012,9 hPa 0,0 l/m² 0,0 km/h (0 Bft) S-SO 157 ° 0 min 0 W/m² 2,2 °C 3,8 °C 1,6 km/h (1 Bft)
31.12.2023 00:06 21,1 °C 3,8 °C 54 % 89 % 1013,0 hPa 0,0 l/m² 0,0 km/h (0 Bft) S-SO 157 ° 0 min 0 W/m² 2,2 °C 3,8 °C 1,6 km/h (1 Bft)
31.12.2023 00:07 21,1 °C 3,8 °C 54 % 89 % 1012,9 hPa 0,0 l/m² 0,0 km/h (0 Bft) S-SO 157 ° 0 min 0 W/m² 2,2 °C 3,8 °C 1,6 km/h (1 Bft)
31.12.2023 00:08 21,1 °C 3,8 °C 54 % 89 % 1012,9 hPa 0,0 l/m² 0,0 km/h (0 Bft) N 0 ° 0 min 0 W/m² 2,2 °C 3,8 °C 0,0 km/h (0 Bft)
31.12.2023 00:09 21,1 °C 3,8 °C 54 % 89 % 1012,9 hPa 0,0 l/m² 0,0 km/h (0 Bft) S-SO 157 ° 0 min 0 W/m² 2,2 °C 3,8 °C 1,6 km/h (1 Bft)
31.12.2023 00:10 21,1 °C 3,8 °C 54 % 89 % 1012,9 hPa 0,0 l/m² 1,6 km/h (1 Bft) S-SO 157 ° 0 min 0 W/m² 2,2 °C 3,8 °C 6,4 km/h (2 Bft)
31.12.2023 00:11 21,1 °C 3,8 °C 54 % 89 % 1012,9 hPa 0,0 l/m² 0,0 km/h (0 Bft) S-SO 157 ° 0 min 0 W/m² 2,2 °C 3,8 °C 1,6 km/h (1 Bft)
31.12.2023 00:12 21,1 °C 3,8 °C 54 % 89 % 1012,8 hPa 0,0 l/m² 1,6 km/h (1 Bft) S-SO 157 ° 0 min 0 W/m² 2,2 °C 3,8 °C 6,4 km/h (2 Bft)
31.12.2023 00:13 21,1 °C 3,8 °C 54 % 89 % 1012,9 hPa 0,0 l/m² 0,0 km/h (0 Bft) S-SO 157 ° 0 min 0 W/m² 2,2 °C 3,8 °C 1,6 km/h (1 Bft)
31.12.2023 00:14 21,1 °C 3,8 °C 54 % 89 % 1012,8 hPa 0,0 l/m² 0,0 km/h (0 Bft) S-SO 157 ° 0 min 0 W/m² 2,2 °C 3,8 °C 1,6 km/h (1 Bft)
31.12.2023 00:15 21,1 °C 3,8 °C 54 % 89 % 1012,8 hPa 0,0 l/m² 0,0 km/h (0 Bft) S-SO 157 ° 0 min 0 W/m² 2,2 °C 3,8 °C 1,6 km/h (1 Bft)
31.12.2023 00:16 21,1 °C 3,8 °C 54 % 89 % 1012,9 hPa 0,0 l/m² 0,0 km/h (0 Bft) S-SO 157 ° 0 min 0 W/m² 2,2 °C 3,8 °C 1,6 km/h (1 Bft)
31.12.2023 00:17 21,1 °C 3,7 °C 54 % 89 % 1012,9 hPa 0,0 l/m² 0,0 km/h (0 Bft) S-SO 157 ° 0 min 0 W/m² 2,1 °C 3,7 °C 1,6 km/h (1 Bft)
31.12.2023 00:18 21,1 °C 3,7 °C 54 % 89 % 1012,8 hPa 0,0 l/m² 0,0 km/h (0 Bft) S-SO 157 ° 0 min 0 W/m² 2,1 °C 3,7 °C 1,6 km/h (1 Bft)
31.12.2023 00:19 21,1 °C 3,7 °C 54 % 89 % 1012,9 hPa 0,0 l/m² 0,0 km/h (0 Bft) S-SO 157 ° 0 min 0 W/m² 2,1 °C 3,7 °C 3,2 km/h (1 Bft)
31.12.2023 00:20 21,1 °C 3,7 °C 54 % 89 % 1012,9 hPa 0,0 l/m² 0,0 km/h (0 Bft) S-SO 157 ° 0 min 0 W/m² 2,1 °C 3,7 °C 1,6 km/h (1 Bft)
31.12.2023 00:21 21,1 °C 3,7 °C 54 % 89 % 1012,8 hPa 0,0 l/m² 1,6 km/h (1 Bft) S-SO 157 ° 0 min 0 W/m² 2,1 °C 3,7 °C 6,4 km/h (2 Bft)
31.12.2023 00:22 21,1 °C 3,7 °C 54 % 89 % 1012,8 hPa 0,0 l/m² 1,6 km/h (1 Bft) S-SO 157 ° 0 min 0 W/m² 2,1 °C 3,7 °C 6,4 km/h (2 Bft)
31.12.2023 00:23 21,1 °C 3,7 °C 54 % 89 % 1012,8 hPa 0,0 l/m² 3,2 km/h (1 Bft) S-SO 157 ° 0 min 0 W/m² 2,1 °C 3,7 °C 6,4 km/h (2 Bft)
31.12.2023 00:24 21,1 °C 3,7 °C 54 % 89 % 1012,8 hPa 0,0 l/m² 1,6 km/h (1 Bft) S-SO 157 ° 0 min 0 W/m² 2,1 °C 3,7 °C 3,2 km/h (1 Bft)
31.12.2023 00:25 21,1 °C 3,7 °C 54 % 89 % 1012,8 hPa 0,0 l/m² 1,6 km/h (1 Bft) S-SO 157 ° 0 min 0 W/m² 2,1 °C 3,7 °C 3,2 km/h (1 Bft)
31.12.2023 00:26 21,1 °C 3,7 °C 54 % 89 % 1012,8 hPa 0,0 l/m² 1,6 km/h (1 Bft) S-SO 157 ° 0 min 0 W/m² 2,1 °C 3,7 °C 3,2 km/h (1 Bft)
31.12.2023 00:27 21,1 °C 3,7 °C 54 % 89 % 1012,8 hPa 0,0 l/m² 1,6 km/h (1 Bft) S-SO 157 ° 0 min 0 W/m² 2,1 °C 3,7 °C 3,2 km/h (1 Bft)
31.12.2023 00:28 21,0 °C 3,7 °C 54 % 89 % 1012,7 hPa 0,0 l/m² 4,8 km/h (1 Bft) S-SO 157 ° 0 min 0 W/m² 2,1 °C 3,7 °C 6,4 km/h (2 Bft)
31.12.2023 00:29 21,1 °C 3,7 °C 54 % 89 % 1012,7 hPa 0,0 l/m² 3,2 km/h (1 Bft) S-SO 157 ° 0 min 0 W/m² 2,1 °C 3,7 °C 3,2 km/h (1 Bft)
31.12.2023 00:30 21,1 °C 3,7 °C 54 % 89 % 1012,7 hPa 0,0 l/m² 3,2 km/h (1 Bft) S-SO 157 ° 0 min 0 W/m² 2,1 °C 3,7 °C 6,4 km/h (2 Bft)
31.12.2023 00:31 21,1 °C 3,7 °C 54 % 89 % 1012,7 hPa 0,0 l/m² 3,2 km/h (1 Bft) S-SO 157 ° 0 min 0 W/m² 2,1 °C 3,7 °C 6,4 km/h (2 Bft)
31.12.2023 00:32 21,1 °C 3,7 °C 54 % 89 % 1012,7 hPa 0,0 l/m² 1,6 km/h (1 Bft) S-SO 157 ° 0 min 0 W/m² 2,1 °C 3,7 °C 3,2 km/h (1 Bft)
31.12.2023 00:33 21,1 °C 3,7 °C 54 % 89 % 1012,7 hPa 0,0 l/m² 1,6 km/h (1 Bft) S-SO 157 ° 0 min 0 W/m² 2,1 °C 3,7 °C 3,2 km/h (1 Bft)
31.12.2023 00:34 21,1 °C 3,7 °C 54 % 89 % 1012,7 hPa 0,0 l/m² 1,6 km/h (1 Bft) S-SO 157 ° 0 min 0 W/m² 2,1 °C 3,7 °C 1,6 km/h (1 Bft)
31.12.2023 00:35 21,1 °C 3,7 °C 54 % 89 % 1012,7 hPa 0,0 l/m² 0,0 km/h (0 Bft) S-SO 157 ° 0 min 0 W/m² 2,1 °C 3,7 °C 1,6 km/h (1 Bft)
31.12.2023 00:36 21,1 °C 3,7 °C 54 % 89 % 1012,7 hPa 0,0 l/m² 1,6 km/h (1 Bft) S-SO 157 ° 0 min 0 W/m² 2,1 °C 3,7 °C 3,2 km/h (1 Bft)
31.12.2023 00:37 21,1 °C 3,7 °C 54 % 89 % 1012,7 hPa 0,0 l/m² 1,6 km/h (1 Bft) S-SO 157 ° 0 min 0 W/m² 2,1 °C 3,7 °C 3,2 km/h (1 Bft)
31.12.2023 00:38 21,1 °C 3,7 °C 54 % 89 % 1012,7 hPa 0,0 l/m² 1,6 km/h (1 Bft) S-SO 157 ° 0 min 0 W/m² 2,1 °C 3,7 °C 3,2 km/h (1 Bft)
31.12.2023 00:39 21,0 °C 3,7 °C 54 % 89 % 1012,7 hPa 0,0 l/m² 1,6 km/h (1 Bft) S-SO 157 ° 0 min 0 W/m² 2,1 °C 3,7 °C 3,2 km/h (1 Bft)
31.12.2023 00:40 21,1 °C 3,7 °C 54 % 89 % 1012,6 hPa 0,0 l/m² 1,6 km/h (1 Bft) S-SO 157 ° 0 min 0 W/m² 2,1 °C 3,7 °C 3,2 km/h (1 Bft)
31.12.2023 00:41 21,1 °C 3,7 °C 54 % 89 % 1012,6 hPa 0,0 l/m² 0,0 km/h (0 Bft) S-SO 157 ° 0 min 0 W/m² 2,1 °C 3,7 °C 3,2 km/h (1 Bft)
31.12.2023 00:42 21,1 °C 3,6 °C 54 % 89 % 1012,6 hPa 0,0 l/m² 0,0 km/h (0 Bft) S-SO 157 ° 0 min 0 W/m² 2,0 °C 3,6 °C 1,6 km/h (1 Bft)
31.12.2023 00:43 21,1 °C 3,6 °C 54 % 89 % 1012,6 hPa 0,0 l/m² 0,0 km/h (0 Bft) S-SO 157 ° 0 min 0 W/m² 2,0 °C 3,6 °C 1,6 km/h (1 Bft)
31.12.2023 00:44 21,1 °C 3,6 °C 54 % 89 % 1012,5 hPa 0,0 l/m² 0,0 km/h (0 Bft) S-SO 157 ° 0 min 0 W/m² 2,0 °C 3,6 °C 1,6 km/h (1 Bft)
31.12.2023 00:45 21,1 °C 3,6 °C 54 % 89 % 1012,5 hPa 0,0 l/m² 0,0 km/h (0 Bft) N 0 ° 0 min 0 W/m² 2,0 °C 3,6 °C 0,0 km/h (0 Bft)
31.12.2023 00:46 21,1 °C 3,6 °C 54 % 89 % 1012,5 hPa 0,0 l/m² 0,0 km/h (0 Bft) S-SO 157 ° 0 min 0 W/m² 2,0 °C 3,6 °C 1,6 km/h (1 Bft)
31.12.2023 00:47 21,1 °C 3,6 °C 54 % 89 % 1012,6 hPa 0,0 l/m² 1,6 km/h (1 Bft) S-SO 157 ° 0 min 0 W/m² 2,0 °C 3,6 °C 3,2 km/h (1 Bft)
31.12.2023 00:48 21,0 °C 3,6 °C 54 % 89 % 1012,5 hPa 0,0 l/m² 1,6 km/h (1 Bft) S-SO 157 ° 0 min 0 W/m² 2,0 °C 3,6 °C 3,2 km/h (1 Bft)
31.12.2023 00:49 21,1 °C 3,6 °C 54 % 89 % 1012,5 hPa 0,0 l/m² 1,6 km/h (1 Bft) S-SO 157 ° 0 min 0 W/m² 2,0 °C 3,6 °C 3,2 km/h (1 Bft)
31.12.2023 00:50 21,1 °C 3,6 °C 54 % 89 % 1012,6 hPa 0,0 l/m² 1,6 km/h (1 Bft) S-SO 157 ° 0 min 0 W/m² 2,0 °C 3,6 °C 3,2 km/h (1 Bft)
31.12.2023 00:51 21,1 °C 3,6 °C 54 % 89 % 1012,6 hPa 0,0 l/m² 1,6 km/h (1 Bft) S-SO 157 ° 0 min 0 W/m² 2,0 °C 3,6 °C 3,2 km/h (1 Bft)
31.12.2023 00:52 21,1 °C 3,6 °C 54 % 89 % 1012,5 hPa 0,0 l/m² 0,0 km/h (0 Bft) S-SO 157 ° 0 min 0 W/m² 2,0 °C 3,6 °C 1,6 km/h (1 Bft)
31.12.2023 00:53 21,1 °C 3,6 °C 54 % 89 % 1012,6 hPa 0,0 l/m² 0,0 km/h (0 Bft) S-SO 157 ° 0 min 0 W/m² 2,0 °C 3,6 °C 3,2 km/h (1 Bft)
31.12.2023 00:54 21,1 °C 3,6 °C 54 % 90 % 1012,5 hPa 0,0 l/m² 0,0 km/h (0 Bft) S-SO 157 ° 0 min 0 W/m² 2,1 °C 3,6 °C 1,6 km/h (1 Bft)
31.12.2023 00:55 21,1 °C 3,6 °C 54 % 90 % 1012,5 hPa 0,0 l/m² 0,0 km/h (0 Bft) S-SO 157 ° 0 min 0 W/m² 2,1 °C 3,6 °C 1,6 km/h (1 Bft)
31.12.2023 00:56 21,1 °C 3,6 °C 54 % 90 % 1012,6 hPa 0,0 l/m² 0,0 km/h (0 Bft) S-SO 157 ° 0 min 0 W/m² 2,1 °C 3,6 °C 1,6 km/h (1 Bft)
31.12.2023 00:57 21,1 °C 3,6 °C 54 % 90 % 1012,5 hPa 0,0 l/m² 1,6 km/h (1 Bft) S-SO 157 ° 0 min 0 W/m² 2,1 °C 3,6 °C 6,4 km/h (2 Bft)
31.12.2023 00:58 21,1 °C 3,5 °C 54 % 90 % 1012,5 hPa 0,0 l/m² 0,0 km/h (0 Bft) S-SO 157 ° 0 min 0 W/m² 2,0 °C 3,5 °C 1,6 km/h (1 Bft)
31.12.2023 00:59 21,1 °C 3,5 °C 54 % 90 % 1012,5 hPa 0,0 l/m² 1,6 km/h (1 Bft) S-SO 157 ° 0 min 0 W/m² 2,0 °C 3,5 °C 3,2 km/h (1 Bft)
31.12.2023 01:00 21,1 °C 3,5 °C 54 % 90 % 1012,5 hPa 0,0 l/m² 1,6 km/h (1 Bft) S-SO 157 ° 0 min 0 W/m² 2,0 °C 3,5 °C 6,4 km/h (2 Bft)
31.12.2023 01:01 21,1 °C 3,4 °C 54 % 90 % 1012,5 hPa 0,0 l/m² 3,2 km/h (1 Bft) S-SO 157 ° 0 min 0 W/m² 1,9 °C 3,4 °C 6,4 km/h (2 Bft)
31.12.2023 01:02 21,1 °C 3,4 °C 54 % 90 % 1012,5 hPa 0,0 l/m² 4,8 km/h (1 Bft) S-SO 157 ° 0 min 0 W/m² 1,9 °C 3,4 °C 6,4 km/h (2 Bft)
31.12.2023 01:03 21,1 °C 3,4 °C 54 % 89 % 1012,6 hPa 0,0 l/m² 4,8 km/h (1 Bft) S 180 ° 0 min 0 W/m² 1,8 °C 3,4 °C 8,0 km/h (2 Bft)
31.12.2023 01:04 21,1 °C 3,4 °C 54 % 90 % 1012,5 hPa 0,0 l/m² 6,4 km/h (2 Bft) S 180 ° 0 min 0 W/m² 1,9 °C 3,4 °C 8,0 km/h (2 Bft)
31.12.2023 01:05 21,1 °C 3,4 °C 54 % 90 % 1012,6 hPa 0,0 l/m² 6,4 km/h (2 Bft) S 180 ° 0 min 0 W/m² 1,9 °C 3,4 °C 9,7 km/h (2 Bft)
31.12.2023 01:06 21,1 °C 3,4 °C 54 % 90 % 1012,5 hPa 0,0 l/m² 4,8 km/h (1 Bft) S 180 ° 0 min 0 W/m² 1,9 °C 3,4 °C 6,4 km/h (2 Bft)
31.12.2023 01:07 21,1 °C 3,4 °C 54 % 90 % 1012,5 hPa 0,0 l/m² 4,8 km/h (1 Bft) S 180 ° 0 min 0 W/m² 1,9 °C 3,4 °C 6,4 km/h (2 Bft)
31.12.2023 01:08 21,1 °C 3,4 °C 54 % 90 % 1012,5 hPa 0,0 l/m² 4,8 km/h (1 Bft) S 180 ° 0 min 0 W/m² 1,9 °C 3,4 °C 8,0 km/h (2 Bft)
31.12.2023 01:09 21,1 °C 3,4 °C 54 % 90 % 1012,5 hPa 0,0 l/m² 3,2 km/h (1 Bft) S 180 ° 0 min 0 W/m² 1,9 °C 3,4 °C 4,8 km/h (1 Bft)
31.12.2023 01:10 21,1 °C 3,4 °C 54 % 90 % 1012,5 hPa 0,0 l/m² 3,2 km/h (1 Bft) S 180 ° 0 min 0 W/m² 1,9 °C 3,4 °C 4,8 km/h (1 Bft)
31.12.2023 01:11 21,1 °C 3,4 °C 54 % 90 % 1012,5 hPa 0,0 l/m² 4,8 km/h (1 Bft) S-SO 157 ° 0 min 0 W/m² 1,9 °C 3,4 °C 8,0 km/h (2 Bft)
31.12.2023 01:12 21,1 °C 3,4 °C 54 % 90 % 1012,5 hPa 0,0 l/m² 4,8 km/h (1 Bft) S-SO 157 ° 0 min 0 W/m² 1,9 °C 3,4 °C 9,7 km/h (2 Bft)
31.12.2023 01:13 21,1 °C 3,4 °C 54 % 90 % 1012,5 hPa 0,0 l/m² 4,8 km/h (1 Bft) S-SO 157 ° 0 min 0 W/m² 1,9 °C 3,4 °C 9,7 km/h (2 Bft)
31.12.2023 01:14 21,1 °C 3,5 °C 54 % 90 % 1012,4 hPa 0,0 l/m² 3,2 km/h (1 Bft) S-SO 157 ° 0 min 0 W/m² 2,0 °C 3,5 °C 6,4 km/h (2 Bft)
31.12.2023 01:15 21,1 °C 3,5 °C 54 % 90 % 1012,3 hPa 0,0 l/m² 4,8 km/h (1 Bft) S-SO 157 ° 0 min 0 W/m² 2,0 °C 3,5 °C 6,4 km/h (2 Bft)
31.12.2023 01:16 21,1 °C 3,6 °C 54 % 90 % 1012,3 hPa 0,0 l/m² 6,4 km/h (2 Bft) S-SO 157 ° 0 min 0 W/m² 2,1 °C 3,6 °C 6,4 km/h (2 Bft)
31.12.2023 01:17 21,1 °C 3,6 °C 54 % 90 % 1012,3 hPa 0,0 l/m² 4,8 km/h (1 Bft) S-SO 157 ° 0 min 0 W/m² 2,1 °C 3,6 °C 6,4 km/h (2 Bft)
31.12.2023 01:18 21,1 °C 3,6 °C 54 % 90 % 1012,3 hPa 0,0 l/m² 4,8 km/h (1 Bft) S-SO 157 ° 0 min 0 W/m² 2,1 °C 3,6 °C 8,0 km/h (2 Bft)
31.12.2023 01:19 21,1 °C 3,6 °C 54 % 90 % 1012,3 hPa 0,0 l/m² 4,8 km/h (1 Bft) S-SO 157 ° 0 min 0 W/m² 2,1 °C 3,6 °C 6,4 km/h (2 Bft)
31.12.2023 01:20 21,1 °C 3,6 °C 54 % 90 % 1012,2 hPa 0,0 l/m² 4,8 km/h (1 Bft) S-SO 157 ° 0 min 0 W/m² 2,1 °C 3,6 °C 6,4 km/h (2 Bft)
31.12.2023 01:21 21,1 °C 3,6 °C 54 % 90 % 1012,2 hPa 0,0 l/m² 4,8 km/h (1 Bft) S-SO 157 ° 0 min 0 W/m² 2,1 °C 3,6 °C 4,8 km/h (1 Bft)
31.12.2023 01:22 21,1 °C 3,6 °C 54 % 90 % 1012,3 hPa 0,0 l/m² 4,8 km/h (1 Bft) S-SO 157 ° 0 min 0 W/m² 2,1 °C 3,6 °C 4,8 km/h (1 Bft)
31.12.2023 01:23 21,1 °C 3,6 °C 54 % 90 % 1012,2 hPa 0,0 l/m² 3,2 km/h (1 Bft) S-SO 157 ° 0 min 0 W/m² 2,1 °C 3,6 °C 4,8 km/h (1 Bft)
31.12.2023 01:24 21,1 °C 3,6 °C 54 % 90 % 1012,1 hPa 0,0 l/m² 3,2 km/h (1 Bft) S-SO 157 ° 0 min 0 W/m² 2,1 °C 3,6 °C 3,2 km/h (1 Bft)
31.12.2023 01:25 21,1 °C 3,6 °C 54 % 90 % 1012,1 hPa 0,0 l/m² 3,2 km/h (1 Bft) S-SO 157 ° 0 min 0 W/m² 2,1 °C 3,6 °C 4,8 km/h (1 Bft)
31.12.2023 01:26 21,1 °C 3,7 °C 54 % 90 % 1012,0 hPa 0,0 l/m² 1,6 km/h (1 Bft) S-SO 157 ° 0 min 0 W/m² 2,2 °C 3,7 °C 3,2 km/h (1 Bft)
31.12.2023 01:27 21,1 °C 3,7 °C 54 % 90 % 1012,0 hPa 0,0 l/m² 0,0 km/h (0 Bft) S-SO 157 ° 0 min 0 W/m² 2,2 °C 3,7 °C 1,6 km/h (1 Bft)
31.12.2023 01:28 21,1 °C 3,7 °C 54 % 91 % 1012,1 hPa 0,0 l/m² 1,6 km/h (1 Bft) S-SO 157 ° 0 min 0 W/m² 2,4 °C 3,7 °C 4,8 km/h (1 Bft)
31.12.2023 01:29 21,1 °C 3,7 °C 54 % 90 % 1012,0 hPa 0,0 l/m² 3,2 km/h (1 Bft) S-SO 157 ° 0 min 0 W/m² 2,2 °C 3,7 °C 6,4 km/h (2 Bft)
31.12.2023 01:30 21,1 °C 3,7 °C 54 % 91 % 1012,1 hPa 0,0 l/m² 4,8 km/h (1 Bft) S-SO 157 ° 0 min 0 W/m² 2,4 °C 3,7 °C 6,4 km/h (2 Bft)
31.12.2023 01:31 21,1 °C 3,7 °C 54 % 91 % 1012,1 hPa 0,0 l/m² 4,8 km/h (1 Bft) S-SO 157 ° 0 min 0 W/m² 2,4 °C 3,7 °C 9,7 km/h (2 Bft)
31.12.2023 01:32 21,1 °C 3,7 °C 54 % 91 % 1012,0 hPa 0,0 l/m² 4,8 km/h (1 Bft) S 180 ° 0 min 0 W/m² 2,4 °C 3,7 °C 9,7 km/h (2 Bft)
31.12.2023 01:33 21,1 °C 3,7 °C 54 % 91 % 1012,0 hPa 0,0 l/m² 6,4 km/h (2 Bft) S-SO 157 ° 0 min 0 W/m² 2,4 °C 3,7 °C 11,3 km/h (2 Bft)
31.12.2023 01:34 21,1 °C 3,7 °C 54 % 91 % 1011,9 hPa 0,0 l/m² 6,4 km/h (2 Bft) S-SO 157 ° 0 min 0 W/m² 2,4 °C 3,7 °C 11,3 km/h (2 Bft)
31.12.2023 01:35 21,1 °C 3,8 °C 54 % 91 % 1012,0 hPa 0,0 l/m² 8,0 km/h (2 Bft) S-SO 157 ° 0 min 0 W/m² 2,5 °C 2,3 °C 9,7 km/h (2 Bft)
31.12.2023 01:36 21,1 °C 3,8 °C 54 % 91 % 1011,9 hPa 0,0 l/m² 6,4 km/h (2 Bft) S-SO 157 ° 0 min 0 W/m² 2,5 °C 3,8 °C 9,7 km/h (2 Bft)
31.12.2023 01:37 21,1 °C 3,8 °C 54 % 91 % 1012,0 hPa 0,0 l/m² 6,4 km/h (2 Bft) S-SO 157 ° 0 min 0 W/m² 2,5 °C 3,8 °C 8,0 km/h (2 Bft)
31.12.2023 01:38 21,1 °C 3,8 °C 54 % 91 % 1012,0 hPa 0,0 l/m² 4,8 km/h (1 Bft) S-SO 157 ° 0 min 0 W/m² 2,5 °C 3,8 °C 8,0 km/h (2 Bft)
31.12.2023 01:39 21,1 °C 3,8 °C 54 % 91 % 1011,9 hPa 0,0 l/m² 6,4 km/h (2 Bft) S-SO 157 ° 0 min 0 W/m² 2,5 °C 3,8 °C 9,7 km/h (2 Bft)
31.12.2023 01:40 21,1 °C 3,8 °C 54 % 91 % 1011,9 hPa 0,0 l/m² 8,0 km/h (2 Bft) S-SO 157 ° 0 min 0 W/m² 2,5 °C 2,3 °C 11,3 km/h (2 Bft)
31.12.2023 01:41 21,1 °C 3,8 °C 54 % 91 % 1011,8 hPa 0,0 l/m² 6,4 km/h (2 Bft) S-SO 157 ° 0 min 0 W/m² 2,5 °C 3,8 °C 9,7 km/h (2 Bft)
31.12.2023 01:42 21,1 °C 3,8 °C 54 % 91 % 1011,7 hPa 0,0 l/m² 6,4 km/h (2 Bft) S-SO 157 ° 0 min 0 W/m² 2,5 °C 3,8 °C 9,7 km/h (2 Bft)
31.12.2023 01:43 21,0 °C 3,9 °C 54 % 91 % 1011,8 hPa 0,0 l/m² 8,0 km/h (2 Bft) SO 135 ° 0 min 0 W/m² 2,6 °C 2,4 °C 11,3 km/h (2 Bft)
31.12.2023 01:44 21,1 °C 3,9 °C 54 % 91 % 1011,8 hPa 0,0 l/m² 6,4 km/h (2 Bft) SO 135 ° 0 min 0 W/m² 2,6 °C 3,9 °C 8,0 km/h (2 Bft)
31.12.2023 01:45 21,1 °C 3,9 °C 54 % 91 % 1011,7 hPa 0,0 l/m² 6,4 km/h (2 Bft) SO 135 ° 0 min 0 W/m² 2,6 °C 3,9 °C 8,0 km/h (2 Bft)
31.12.2023 01:46 21,0 °C 4,0 °C 54 % 91 % 1011,7 hPa 0,0 l/m² 6,4 km/h (2 Bft) SO 135 ° 0 min 0 W/m² 2,7 °C 4,0 °C 11,3 km/h (2 Bft)
31.12.2023 01:47 21,1 °C 4,1 °C 54 % 91 % 1011,7 hPa 0,0 l/m² 8,0 km/h (2 Bft) SO 135 ° 0 min 0 W/m² 2,8 °C 2,7 °C 12,9 km/h (3 Bft)
31.12.2023 01:48 21,1 °C 4,1 °C 54 % 91 % 1011,7 hPa 0,0 l/m² 6,4 km/h (2 Bft) SO 135 ° 0 min 0 W/m² 2,8 °C 4,1 °C 12,9 km/h (3 Bft)
31.12.2023 01:49 21,0 °C 4,1 °C 54 % 91 % 1011,6 hPa 0,0 l/m² 6,4 km/h (2 Bft) SO 135 ° 0 min 0 W/m² 2,8 °C 4,1 °C 8,0 km/h (2 Bft)
31.12.2023 01:50 21,0 °C 4,2 °C 54 % 91 % 1011,7 hPa 0,0 l/m² 6,4 km/h (2 Bft) SO 135 ° 0 min 0 W/m² 2,9 °C 4,2 °C 11,3 km/h (2 Bft)
31.12.2023 01:51 21,1 °C 4,2 °C 54 % 91 % 1011,6 hPa 0,0 l/m² 6,4 km/h (2 Bft) SO 135 ° 0 min 0 W/m² 2,9 °C 4,2 °C 8,0 km/h (2 Bft)
31.12.2023 01:52 21,1 °C 4,2 °C 54 % 91 % 1011,5 hPa 0,0 l/m² 3,2 km/h (1 Bft) SO 135 ° 0 min 0 W/m² 2,9 °C 4,2 °C 4,8 km/h (1 Bft)
31.12.2023 01:53 21,1 °C 4,2 °C 54 % 91 % 1011,5 hPa 0,0 l/m² 4,8 km/h (1 Bft) O-SO 112 ° 0 min 0 W/m² 2,9 °C 4,2 °C 8,0 km/h (2 Bft)
31.12.2023 01:54 21,1 °C 4,2 °C 54 % 91 % 1011,5 hPa 0,0 l/m² 3,2 km/h (1 Bft) O-SO 112 ° 0 min 0 W/m² 2,9 °C 4,2 °C 4,8 km/h (1 Bft)
31.12.2023 01:55 21,1 °C 4,2 °C 54 % 91 % 1011,5 hPa 0,0 l/m² 4,8 km/h (1 Bft) O-SO 112 ° 0 min 0 W/m² 2,9 °C 4,2 °C 6,4 km/h (2 Bft)
31.12.2023 01:56 21,0 °C 4,2 °C 54 % 91 % 1011,5 hPa 0,0 l/m² 4,8 km/h (1 Bft) O-SO 112 ° 0 min 0 W/m² 2,9 °C 4,2 °C 8,0 km/h (2 Bft)
31.12.2023 01:57 21,0 °C 4,2 °C 54 % 91 % 1011,5 hPa 0,0 l/m² 1,6 km/h (1 Bft) O-SO 112 ° 0 min 0 W/m² 2,9 °C 4,2 °C 4,8 km/h (1 Bft)
31.12.2023 01:58 21,0 °C 4,3 °C 54 % 91 % 1011,4 hPa 0,0 l/m² 4,8 km/h (1 Bft) O-SO 112 ° 0 min 0 W/m² 3,0 °C 4,3 °C 6,4 km/h (2 Bft)
31.12.2023 01:59 21,1 °C 4,2 °C 54 % 91 % 1011,4 hPa 0,0 l/m² 4,8 km/h (1 Bft) O-SO 112 ° 0 min 0 W/m² 2,9 °C 4,2 °C 9,7 km/h (2 Bft)
31.12.2023 02:00 21,0 °C 4,3 °C 54 % 90 % 1011,4 hPa 0,0 l/m² 4,8 km/h (1 Bft) O-SO 112 ° 0 min 0 W/m² 2,8 °C 4,3 °C 6,4 km/h (2 Bft)
31.12.2023 02:01 21,0 °C 4,3 °C 54 % 90 % 1011,4 hPa 0,0 l/m² 4,8 km/h (1 Bft) O-SO 112 ° 0 min 0 W/m² 2,8 °C 4,3 °C 6,4 km/h (2 Bft)
31.12.2023 02:02 21,0 °C 4,3 °C 54 % 90 % 1011,4 hPa 0,0 l/m² 4,8 km/h (1 Bft) O-SO 112 ° 0 min 0 W/m² 2,8 °C 4,3 °C 9,7 km/h (2 Bft)
31.12.2023 02:03 21,0 °C 4,3 °C 54 % 90 % 1011,4 hPa 0,0 l/m² 3,2 km/h (1 Bft) O-SO 112 ° 0 min 0 W/m² 2,8 °C 4,3 °C 6,4 km/h (2 Bft)
31.12.2023 02:04 21,1 °C 4,3 °C 54 % 90 % 1011,4 hPa 0,0 l/m² 4,8 km/h (1 Bft) O-SO 112 ° 0 min 0 W/m² 2,8 °C 4,3 °C 9,7 km/h (2 Bft)
31.12.2023 02:05 21,0 °C 4,3 °C 54 % 90 % 1011,4 hPa 0,0 l/m² 6,4 km/h (2 Bft) O-SO 112 ° 0 min 0 W/m² 2,8 °C 4,3 °C 9,7 km/h (2 Bft)
31.12.2023 02:06 21,0 °C 4,3 °C 54 % 90 % 1011,4 hPa 0,0 l/m² 8,0 km/h (2 Bft) O-SO 112 ° 0 min 0 W/m² 2,8 °C 2,9 °C 11,3 km/h (2 Bft)
31.12.2023 02:07 21,0 °C 4,3 °C 54 % 90 % 1011,3 hPa 0,0 l/m² 8,0 km/h (2 Bft) O-SO 112 ° 0 min 0 W/m² 2,8 °C 2,9 °C 11,3 km/h (2 Bft)
31.12.2023 02:08 21,0 °C 4,3 °C 54 % 90 % 1011,3 hPa 0,0 l/m² 11,3 km/h (2 Bft) O-SO 112 ° 0 min 0 W/m² 2,8 °C 0,4 °C 14,5 km/h (3 Bft)
31.12.2023 02:09 21,0 °C 4,4 °C 54 % 90 % 1011,2 hPa 0,0 l/m² 6,4 km/h (2 Bft) O-SO 112 ° 0 min 0 W/m² 2,9 °C 4,4 °C 11,3 km/h (2 Bft)
31.12.2023 02:10 21,0 °C 4,4 °C 54 % 90 % 1011,2 hPa 0,0 l/m² 6,4 km/h (2 Bft) O-SO 112 ° 0 min 0 W/m² 2,9 °C 4,4 °C 14,5 km/h (3 Bft)
31.12.2023 02:11 21,1 °C 4,4 °C 54 % 90 % 1011,2 hPa 0,0 l/m² 9,7 km/h (2 Bft) O-SO 112 ° 0 min 0 W/m² 2,9 °C 1,6 °C 12,9 km/h (3 Bft)
31.12.2023 02:12 21,0 °C 4,4 °C 54 % 90 % 1011,2 hPa 0,0 l/m² 6,4 km/h (2 Bft) O-SO 112 ° 0 min 0 W/m² 2,9 °C 4,4 °C 9,7 km/h (2 Bft)
31.12.2023 02:13 21,0 °C 4,5 °C 54 % 90 % 1011,3 hPa 0,0 l/m² 6,4 km/h (2 Bft) O-SO 112 ° 0 min 0 W/m² 3,0 °C 4,5 °C 11,3 km/h (2 Bft)
31.12.2023 02:14 21,0 °C 4,4 °C 54 % 90 % 1011,2 hPa 0,0 l/m² 8,0 km/h (2 Bft) O-SO 112 ° 0 min 0 W/m² 2,9 °C 3,0 °C 11,3 km/h (2 Bft)
31.12.2023 02:15 21,0 °C 4,5 °C 54 % 90 % 1011,3 hPa 0,0 l/m² 4,8 km/h (1 Bft) O-SO 112 ° 0 min 0 W/m² 3,0 °C 4,5 °C 6,4 km/h (2 Bft)
31.12.2023 02:16 21,0 °C 4,5 °C 54 % 90 % 1011,3 hPa 0,0 l/m² 6,4 km/h (2 Bft) O-SO 112 ° 0 min 0 W/m² 3,0 °C 4,5 °C 9,7 km/h (2 Bft)
31.12.2023 02:17 21,0 °C 4,5 °C 54 % 90 % 1011,2 hPa 0,0 l/m² 8,0 km/h (2 Bft) O-SO 112 ° 0 min 0 W/m² 3,0 °C 3,1 °C 11,3 km/h (2 Bft)
31.12.2023 02:18 21,0 °C 4,5 °C 54 % 90 % 1011,2 hPa 0,0 l/m² 4,8 km/h (1 Bft) O-SO 112 ° 0 min 0 W/m² 3,0 °C 4,5 °C 6,4 km/h (2 Bft)
31.12.2023 02:19 21,0 °C 4,5 °C 54 % 90 % 1011,2 hPa 0,0 l/m² 4,8 km/h (1 Bft) O-SO 112 ° 0 min 0 W/m² 3,0 °C 4,5 °C 9,7 km/h (2 Bft)
31.12.2023 02:20 21,0 °C 4,6 °C 54 % 90 % 1011,3 hPa 0,0 l/m² 6,4 km/h (2 Bft) O-SO 112 ° 0 min 0 W/m² 3,1 °C 4,6 °C 11,3 km/h (2 Bft)
31.12.2023 02:21 21,0 °C 4,6 °C 54 % 90 % 1011,2 hPa 0,0 l/m² 4,8 km/h (1 Bft) O-SO 112 ° 0 min 0 W/m² 3,1 °C 4,6 °C 6,4 km/h (2 Bft)
31.12.2023 02:22 21,0 °C 4,6 °C 54 % 90 % 1011,3 hPa 0,0 l/m² 4,8 km/h (1 Bft) O-SO 112 ° 0 min 0 W/m² 3,1 °C 4,6 °C 6,4 km/h (2 Bft)
31.12.2023 02:23 21,0 °C 4,6 °C 54 % 90 % 1011,3 hPa 0,0 l/m² 3,2 km/h (1 Bft) O-SO 112 ° 0 min 0 W/m² 3,1 °C 4,6 °C 6,4 km/h (2 Bft)
31.12.2023 02:24 21,0 °C 4,6 °C 54 % 90 % 1011,3 hPa 0,0 l/m² 3,2 km/h (1 Bft) O-SO 112 ° 0 min 0 W/m² 3,1 °C 4,6 °C 4,8 km/h (1 Bft)
31.12.2023 02:25 21,0 °C 4,6 °C 54 % 90 % 1011,2 hPa 0,0 l/m² 1,6 km/h (1 Bft) O-SO 112 ° 0 min 0 W/m² 3,1 °C 4,6 °C 1,6 km/h (1 Bft)
31.12.2023 02:26 20,9 °C 4,6 °C 54 % 90 % 1011,3 hPa 0,0 l/m² 0,0 km/h (0 Bft) O-SO 112 ° 0 min 0 W/m² 3,1 °C 4,6 °C 1,6 km/h (1 Bft)
31.12.2023 02:27 21,0 °C 4,6 °C 54 % 90 % 1011,3 hPa 0,0 l/m² 0,0 km/h (0 Bft) N 0 ° 0 min 0 W/m² 3,1 °C 4,6 °C 0,0 km/h (0 Bft)
31.12.2023 02:28 21,0 °C 4,6 °C 54 % 90 % 1011,3 hPa 0,0 l/m² 1,6 km/h (1 Bft) O-SO 112 ° 0 min 0 W/m² 3,1 °C 4,6 °C 1,6 km/h (1 Bft)
31.12.2023 02:29 20,9 °C 4,6 °C 54 % 90 % 1011,3 hPa 0,0 l/m² 0,0 km/h (0 Bft) O-SO 112 ° 0 min 0 W/m² 3,1 °C 4,6 °C 1,6 km/h (1 Bft)
31.12.2023 02:30 20,9 °C 4,6 °C 54 % 90 % 1011,3 hPa 0,0 l/m² 0,0 km/h (0 Bft) O-SO 112 ° 0 min 0 W/m² 3,1 °C 4,6 °C 1,6 km/h (1 Bft)
31.12.2023 02:31 21,0 °C 4,6 °C 54 % 90 % 1011,3 hPa 0,0 l/m² 0,0 km/h (0 Bft) N 0 ° 0 min 0 W/m² 3,1 °C 4,6 °C 0,0 km/h (0 Bft)
31.12.2023 02:32 20,9 °C 4,6 °C 54 % 90 % 1011,4 hPa 0,0 l/m² 0,0 km/h (0 Bft) N 0 ° 0 min 0 W/m² 3,1 °C 4,6 °C 0,0 km/h (0 Bft)
31.12.2023 02:33 21,0 °C 4,6 °C 54 % 90 % 1011,3 hPa 0,0 l/m² 0,0 km/h (0 Bft) N 0 ° 0 min 0 W/m² 3,1 °C 4,6 °C 0,0 km/h (0 Bft)
31.12.2023 02:34 20,9 °C 4,6 °C 54 % 90 % 1011,2 hPa 0,0 l/m² 1,6 km/h (1 Bft) O-SO 112 ° 0 min 0 W/m² 3,1 °C 4,6 °C 3,2 km/h (1 Bft)
31.12.2023 02:35 21,0 °C 4,6 °C 54 % 90 % 1011,3 hPa 0,0 l/m² 1,6 km/h (1 Bft) O-SO 112 ° 0 min 0 W/m² 3,1 °C 4,6 °C 3,2 km/h (1 Bft)
31.12.2023 02:36 21,0 °C 4,5 °C 54 % 89 % 1011,3 hPa 0,0 l/m² 1,6 km/h (1 Bft) O-SO 112 ° 0 min 0 W/m² 2,8 °C 4,5 °C 3,2 km/h (1 Bft)
31.12.2023 02:37 21,0 °C 4,5 °C 54 % 89 % 1011,3 hPa 0,0 l/m² 0,0 km/h (0 Bft) N 0 ° 0 min 0 W/m² 2,8 °C 4,5 °C 0,0 km/h (0 Bft)
31.12.2023 02:38 21,0 °C 4,5 °C 54 % 89 % 1011,3 hPa 0,0 l/m² 0,0 km/h (0 Bft) N 0 ° 0 min 0 W/m² 2,8 °C 4,5 °C 0,0 km/h (0 Bft)
31.12.2023 02:39 20,9 °C 4,4 °C 54 % 89 % 1011,3 hPa 0,0 l/m² 0,0 km/h (0 Bft) O-SO 112 ° 0 min 0 W/m² 2,7 °C 4,4 °C 1,6 km/h (1 Bft)
31.12.2023 02:40 20,9 °C 4,4 °C 54 % 89 % 1011,3 hPa 0,0 l/m² 0,0 km/h (0 Bft) N 0 ° 0 min 0 W/m² 2,7 °C 4,4 °C 0,0 km/h (0 Bft)
31.12.2023 02:41 20,9 °C 4,4 °C 54 % 89 % 1011,3 hPa 0,0 l/m² 0,0 km/h (0 Bft) N 0 ° 0 min 0 W/m² 2,7 °C 4,4 °C 0,0 km/h (0 Bft)
31.12.2023 02:42 21,0 °C 4,4 °C 54 % 89 % 1011,3 hPa 0,0 l/m² 0,0 km/h (0 Bft) N 0 ° 0 min 0 W/m² 2,7 °C 4,4 °C 0,0 km/h (0 Bft)
31.12.2023 02:43 20,9 °C 4,4 °C 54 % 89 % 1011,3 hPa 0,0 l/m² 0,0 km/h (0 Bft) O-SO 112 ° 0 min 0 W/m² 2,7 °C 4,4 °C 1,6 km/h (1 Bft)
31.12.2023 02:44 20,9 °C 4,4 °C 54 % 89 % 1011,3 hPa 0,0 l/m² 0,0 km/h (0 Bft) N 0 ° 0 min 0 W/m² 2,7 °C 4,4 °C 0,0 km/h (0 Bft)
31.12.2023 02:45 20,9 °C 4,3 °C 54 % 89 % 1011,3 hPa 0,0 l/m² 0,0 km/h (0 Bft) O-SO 112 ° 0 min 0 W/m² 2,7 °C 4,3 °C 1,6 km/h (1 Bft)
31.12.2023 02:46 20,9 °C 4,3 °C 54 % 89 % 1011,3 hPa 0,0 l/m² 0,0 km/h (0 Bft) N 0 ° 0 min 0 W/m² 2,7 °C 4,3 °C 0,0 km/h (0 Bft)
31.12.2023 02:47 20,9 °C 4,3 °C 54 % 89 % 1011,3 hPa 0,0 l/m² 0,0 km/h (0 Bft) O-SO 112 ° 0 min 0 W/m² 2,7 °C 4,3 °C 1,6 km/h (1 Bft)
31.12.2023 02:48 20,9 °C 4,3 °C 54 % 89 % 1011,3 hPa 0,0 l/m² 0,0 km/h (0 Bft) O-SO 112 ° 0 min 0 W/m² 2,7 °C 4,3 °C 1,6 km/h (1 Bft)
31.12.2023 02:49 20,9 °C 4,3 °C 54 % 89 % 1011,3 hPa 0,0 l/m² 0,0 km/h (0 Bft) N 0 ° 0 min 0 W/m² 2,7 °C 4,3 °C 0,0 km/h (0 Bft)
31.12.2023 02:50 20,9 °C 4,3 °C 54 % 89 % 1011,3 hPa 0,0 l/m² 0,0 km/h (0 Bft) O-SO 112 ° 0 min 0 W/m² 2,7 °C 4,3 °C 1,6 km/h (1 Bft)
31.12.2023 02:51 20,9 °C 4,3 °C 54 % 89 % 1011,3 hPa 0,0 l/m² 0,0 km/h (0 Bft) O-SO 112 ° 0 min 0 W/m² 2,7 °C 4,3 °C 1,6 km/h (1 Bft)
31.12.2023 02:52 20,9 °C 4,3 °C 54 % 89 % 1011,2 hPa 0,0 l/m² 0,0 km/h (0 Bft) O-SO 112 ° 0 min 0 W/m² 2,7 °C 4,3 °C 1,6 km/h (1 Bft)
31.12.2023 02:53 20,9 °C 4,3 °C 54 % 89 % 1011,2 hPa 0,0 l/m² 1,6 km/h (1 Bft) O-SO 112 ° 0 min 0 W/m² 2,7 °C 4,3 °C 3,2 km/h (1 Bft)
31.12.2023 02:54 20,9 °C 4,3 °C 54 % 89 % 1011,2 hPa 0,0 l/m² 1,6 km/h (1 Bft) O-SO 112 ° 0 min 0 W/m² 2,7 °C 4,3 °C 3,2 km/h (1 Bft)
31.12.2023 02:55 20,9 °C 4,3 °C 54 % 89 % 1011,2 hPa 0,0 l/m² 1,6 km/h (1 Bft) O-SO 112 ° 0 min 0 W/m² 2,7 °C 4,3 °C 3,2 km/h (1 Bft)
31.12.2023 02:56 20,9 °C 4,3 °C 54 % 89 % 1011,2 hPa 0,0 l/m² 3,2 km/h (1 Bft) O-SO 112 ° 0 min 0 W/m² 2,7 °C 4,3 °C 4,8 km/h (1 Bft)
31.12.2023 02:57 20,9 °C 4,3 °C 54 % 89 % 1011,1 hPa 0,0 l/m² 4,8 km/h (1 Bft) O-SO 112 ° 0 min 0 W/m² 2,7 °C 4,3 °C 6,4 km/h (2 Bft)
31.12.2023 02:58 20,9 °C 4,2 °C 54 % 89 % 1011,1 hPa 0,0 l/m² 8,0 km/h (2 Bft) SO 135 ° 0 min 0 W/m² 2,6 °C 2,8 °C 12,9 km/h (3 Bft)
31.12.2023 02:59 20,9 °C 4,2 °C 54 % 89 % 1011,1 hPa 0,0 l/m² 8,0 km/h (2 Bft) SO 135 ° 0 min 0 W/m² 2,6 °C 2,8 °C 12,9 km/h (3 Bft)
31.12.2023 03:00 20,9 °C 4,2 °C 54 % 89 % 1011,0 hPa 0,0 l/m² 9,7 km/h (2 Bft) SO 135 ° 0 min 0 W/m² 2,6 °C 1,4 °C 12,9 km/h (3 Bft)
31.12.2023 03:01 20,9 °C 4,3 °C 54 % 90 % 1011,1 hPa 0,0 l/m² 8,0 km/h (2 Bft) SO 135 ° 0 min 0 W/m² 2,8 °C 2,9 °C 14,5 km/h (3 Bft)
31.12.2023 03:02 20,9 °C 4,3 °C 54 % 90 % 1011,0 hPa 0,0 l/m² 11,3 km/h (2 Bft) SO 135 ° 0 min 0 W/m² 2,8 °C 0,4 °C 16,1 km/h (3 Bft)
31.12.2023 03:03 20,9 °C 4,3 °C 54 % 90 % 1011,0 hPa 0,0 l/m² 6,4 km/h (2 Bft) SO 135 ° 0 min 0 W/m² 2,8 °C 4,3 °C 12,9 km/h (3 Bft)
31.12.2023 03:04 20,9 °C 4,3 °C 54 % 90 % 1010,9 hPa 0,0 l/m² 11,3 km/h (2 Bft) O-SO 112 ° 0 min 0 W/m² 2,8 °C 0,4 °C 16,1 km/h (3 Bft)
31.12.2023 03:05 20,9 °C 4,4 °C 54 % 90 % 1011,0 hPa 0,0 l/m² 11,3 km/h (2 Bft) SO 135 ° 0 min 0 W/m² 2,9 °C 0,5 °C 16,1 km/h (3 Bft)
31.12.2023 03:06 20,9 °C 4,4 °C 54 % 90 % 1010,9 hPa 0,0 l/m² 11,3 km/h (2 Bft) O-SO 112 ° 0 min 0 W/m² 2,9 °C 0,5 °C 16,1 km/h (3 Bft)
31.12.2023 03:07 20,9 °C 4,4 °C 54 % 90 % 1011,0 hPa 0,0 l/m² 11,3 km/h (2 Bft) O-SO 112 ° 0 min 0 W/m² 2,9 °C 0,5 °C 14,5 km/h (3 Bft)
31.12.2023 03:08 20,9 °C 4,5 °C 54 % 90 % 1010,9 hPa 0,0 l/m² 8,0 km/h (2 Bft) O-SO 112 ° 0 min 0 W/m² 3,0 °C 3,1 °C 14,5 km/h (3 Bft)
31.12.2023 03:09 20,9 °C 4,6 °C 54 % 90 % 1010,9 hPa 0,0 l/m² 6,4 km/h (2 Bft) O-SO 112 ° 0 min 0 W/m² 3,1 °C 4,6 °C 11,3 km/h (2 Bft)
31.12.2023 03:10 20,9 °C 4,6 °C 54 % 90 % 1010,9 hPa 0,0 l/m² 8,0 km/h (2 Bft) O-SO 112 ° 0 min 0 W/m² 3,1 °C 3,2 °C 11,3 km/h (2 Bft)
31.12.2023 03:11 20,9 °C 4,6 °C 54 % 90 % 1011,0 hPa 0,0 l/m² 8,0 km/h (2 Bft) O-SO 112 ° 0 min 0 W/m² 3,1 °C 3,2 °C 12,9 km/h (3 Bft)
31.12.2023 03:12 20,9 °C 4,6 °C 54 % 90 % 1010,9 hPa 0,0 l/m² 6,4 km/h (2 Bft) SO 135 ° 0 min 0 W/m² 3,1 °C 4,6 °C 11,3 km/h (2 Bft)
31.12.2023 03:13 20,9 °C 4,6 °C 54 % 90 % 1010,9 hPa 0,0 l/m² 6,4 km/h (2 Bft) SO 135 ° 0 min 0 W/m² 3,1 °C 4,6 °C 12,9 km/h (3 Bft)
31.12.2023 03:14 20,9 °C 4,6 °C 54 % 90 % 1011,0 hPa 0,0 l/m² 8,0 km/h (2 Bft) SO 135 ° 0 min 0 W/m² 3,1 °C 3,2 °C 14,5 km/h (3 Bft)
31.12.2023 03:15 20,9 °C 4,7 °C 54 % 90 % 1010,9 hPa 0,0 l/m² 6,4 km/h (2 Bft) SO 135 ° 0 min 0 W/m² 3,2 °C 4,7 °C 11,3 km/h (2 Bft)
31.12.2023 03:16 20,9 °C 4,7 °C 54 % 90 % 1010,9 hPa 0,0 l/m² 8,0 km/h (2 Bft) SO 135 ° 0 min 0 W/m² 3,2 °C 3,3 °C 12,9 km/h (3 Bft)
31.12.2023 03:17 20,9 °C 4,7 °C 54 % 90 % 1010,9 hPa 0,0 l/m² 4,8 km/h (1 Bft) SO 135 ° 0 min 0 W/m² 3,2 °C 4,7 °C 6,4 km/h (2 Bft)
31.12.2023 03:18 20,9 °C 4,8 °C 54 % 90 % 1010,9 hPa 0,0 l/m² 4,8 km/h (1 Bft) SO 135 ° 0 min 0 W/m² 3,3 °C 4,8 °C 9,7 km/h (2 Bft)
31.12.2023 03:19 20,9 °C 4,8 °C 54 % 90 % 1010,8 hPa 0,0 l/m² 8,0 km/h (2 Bft) S-SO 157 ° 0 min 0 W/m² 3,3 °C 3,4 °C 11,3 km/h (2 Bft)
31.12.2023 03:20 20,9 °C 4,8 °C 54 % 90 % 1010,8 hPa 0,0 l/m² 8,0 km/h (2 Bft) SO 135 ° 0 min 0 W/m² 3,3 °C 3,4 °C 12,9 km/h (3 Bft)
31.12.2023 03:21 20,9 °C 4,8 °C 54 % 90 % 1010,8 hPa 0,0 l/m² 8,0 km/h (2 Bft) S-SO 157 ° 0 min 0 W/m² 3,3 °C 3,4 °C 9,7 km/h (2 Bft)
31.12.2023 03:22 20,9 °C 4,8 °C 54 % 90 % 1010,8 hPa 0,0 l/m² 4,8 km/h (1 Bft) S-SO 157 ° 0 min 0 W/m² 3,3 °C 4,8 °C 6,4 km/h (2 Bft)
31.12.2023 03:23 20,9 °C 4,9 °C 54 % 90 % 1010,8 hPa 0,0 l/m² 8,0 km/h (2 Bft) S-SO 157 ° 0 min 0 W/m² 3,4 °C 3,5 °C 11,3 km/h (2 Bft)
31.12.2023 03:24 20,9 °C 4,9 °C 54 % 90 % 1010,8 hPa 0,0 l/m² 9,7 km/h (2 Bft) S-SO 157 ° 0 min 0 W/m² 3,4 °C 2,2 °C 12,9 km/h (3 Bft)
31.12.2023 03:25 20,9 °C 4,9 °C 54 % 90 % 1010,7 hPa 0,0 l/m² 8,0 km/h (2 Bft) S 180 ° 0 min 0 W/m² 3,4 °C 3,5 °C 9,7 km/h (2 Bft)
31.12.2023 03:26 20,9 °C 4,9 °C 54 % 90 % 1010,8 hPa 0,0 l/m² 4,8 km/h (1 Bft) S 180 ° 0 min 0 W/m² 3,4 °C 4,9 °C 8,0 km/h (2 Bft)
31.12.2023 03:27 20,9 °C 4,9 °C 55 % 90 % 1010,7 hPa 0,0 l/m² 3,2 km/h (1 Bft) S 180 ° 0 min 0 W/m² 3,4 °C 4,9 °C 8,0 km/h (2 Bft)
31.12.2023 03:28 20,9 °C 4,9 °C 54 % 90 % 1010,7 hPa 0,0 l/m² 3,2 km/h (1 Bft) S 180 ° 0 min 0 W/m² 3,4 °C 4,9 °C 4,8 km/h (1 Bft)
31.12.2023 03:29 20,9 °C 4,9 °C 54 % 90 % 1010,7 hPa 0,0 l/m² 6,4 km/h (2 Bft) S-SO 157 ° 0 min 0 W/m² 3,4 °C 4,9 °C 9,7 km/h (2 Bft)
31.12.2023 03:30 20,9 °C 4,9 °C 54 % 90 % 1010,6 hPa 0,0 l/m² 6,4 km/h (2 Bft) S-SO 157 ° 0 min 0 W/m² 3,4 °C 4,9 °C 9,7 km/h (2 Bft)
31.12.2023 03:31 20,9 °C 4,9 °C 54 % 90 % 1010,6 hPa 0,0 l/m² 6,4 km/h (2 Bft) S-SO 157 ° 0 min 0 W/m² 3,4 °C 4,9 °C 11,3 km/h (2 Bft)
31.12.2023 03:32 20,9 °C 4,9 °C 54 % 90 % 1010,6 hPa 0,0 l/m² 8,0 km/h (2 Bft) S-SO 157 ° 0 min 0 W/m² 3,4 °C 3,5 °C 11,3 km/h (2 Bft)
31.12.2023 03:33 20,9 °C 4,9 °C 54 % 90 % 1010,6 hPa 0,0 l/m² 8,0 km/h (2 Bft) S-SO 157 ° 0 min 0 W/m² 3,4 °C 3,5 °C 12,9 km/h (3 Bft)
31.12.2023 03:34 20,9 °C 4,9 °C 54 % 90 % 1010,6 hPa 0,0 l/m² 4,8 km/h (1 Bft) S-SO 157 ° 0 min 0 W/m² 3,4 °C 4,9 °C 6,4 km/h (2 Bft)
31.12.2023 03:35 20,9 °C 4,9 °C 54 % 90 % 1010,6 hPa 0,0 l/m² 4,8 km/h (1 Bft) S-SO 157 ° 0 min 0 W/m² 3,4 °C 4,9 °C 8,0 km/h (2 Bft)
31.12.2023 03:36 20,9 °C 4,9 °C 54 % 90 % 1010,5 hPa 0,0 l/m² 6,4 km/h (2 Bft) S-SO 157 ° 0 min 0 W/m² 3,4 °C 4,9 °C 9,7 km/h (2 Bft)
31.12.2023 03:37 20,9 °C 4,9 °C 54 % 90 % 1010,6 hPa 0,0 l/m² 6,4 km/h (2 Bft) S-SO 157 ° 0 min 0 W/m² 3,4 °C 4,9 °C 9,7 km/h (2 Bft)
31.12.2023 03:38 20,9 °C 4,9 °C 54 % 90 % 1010,5 hPa 0,0 l/m² 4,8 km/h (1 Bft) S-SO 157 ° 0 min 0 W/m² 3,4 °C 4,9 °C 8,0 km/h (2 Bft)
31.12.2023 03:39 20,9 °C 4,9 °C 54 % 90 % 1010,5 hPa 0,0 l/m² 1,6 km/h (1 Bft) S-SO 157 ° 0 min 0 W/m² 3,4 °C 4,9 °C 6,4 km/h (2 Bft)
31.12.2023 03:40 20,8 °C 4,9 °C 54 % 90 % 1010,5 hPa 0,0 l/m² 4,8 km/h (1 Bft) S-SO 157 ° 0 min 0 W/m² 3,4 °C 4,9 °C 8,0 km/h (2 Bft)
31.12.2023 03:41 20,9 °C 4,9 °C 54 % 89 % 1010,5 hPa 0,0 l/m² 4,8 km/h (1 Bft) S-SO 157 ° 0 min 0 W/m² 3,2 °C 4,9 °C 8,0 km/h (2 Bft)
31.12.2023 03:42 20,8 °C 4,9 °C 54 % 89 % 1010,5 hPa 0,0 l/m² 4,8 km/h (1 Bft) S-SO 157 ° 0 min 0 W/m² 3,2 °C 4,9 °C 6,4 km/h (2 Bft)
31.12.2023 03:43 20,9 °C 4,9 °C 54 % 89 % 1010,5 hPa 0,0 l/m² 3,2 km/h (1 Bft) S-SO 157 ° 0 min 0 W/m² 3,2 °C 4,9 °C 6,4 km/h (2 Bft)
31.12.2023 03:44 20,8 °C 4,8 °C 54 % 89 % 1010,5 hPa 0,0 l/m² 4,8 km/h (1 Bft) S-SO 157 ° 0 min 0 W/m² 3,1 °C 4,8 °C 8,0 km/h (2 Bft)
31.12.2023 03:45 20,9 °C 4,8 °C 54 % 89 % 1010,5 hPa 0,0 l/m² 6,4 km/h (2 Bft) S-SO 157 ° 0 min 0 W/m² 3,1 °C 4,8 °C 8,0 km/h (2 Bft)
31.12.2023 03:46 20,9 °C 4,8 °C 54 % 89 % 1010,5 hPa 0,0 l/m² 4,8 km/h (1 Bft) S-SO 157 ° 0 min 0 W/m² 3,1 °C 4,8 °C 6,4 km/h (2 Bft)
31.12.2023 03:47 20,9 °C 4,8 °C 54 % 89 % 1010,5 hPa 0,0 l/m² 3,2 km/h (1 Bft) S-SO 157 ° 0 min 0 W/m² 3,1 °C 4,8 °C 8,0 km/h (2 Bft)
31.12.2023 03:48 20,9 °C 4,8 °C 54 % 89 % 1010,4 hPa 0,0 l/m² 3,2 km/h (1 Bft) S-SO 157 ° 0 min 0 W/m² 3,1 °C 4,8 °C 6,4 km/h (2 Bft)
31.12.2023 03:49 20,9 °C 4,8 °C 54 % 89 % 1010,5 hPa 0,0 l/m² 1,6 km/h (1 Bft) S-SO 157 ° 0 min 0 W/m² 3,1 °C 4,8 °C 3,2 km/h (1 Bft)
31.12.2023 03:50 20,8 °C 4,8 °C 54 % 89 % 1010,5 hPa 0,0 l/m² 0,0 km/h (0 Bft) S-SO 157 ° 0 min 0 W/m² 3,1 °C 4,8 °C 3,2 km/h (1 Bft)
31.12.2023 03:51 20,9 °C 4,8 °C 54 % 89 % 1010,4 hPa 0,0 l/m² 0,0 km/h (0 Bft) S-SO 157 ° 0 min 0 W/m² 3,1 °C 4,8 °C 3,2 km/h (1 Bft)
31.12.2023 03:52 20,8 °C 4,8 °C 54 % 89 % 1010,4 hPa 0,0 l/m² 0,0 km/h (0 Bft) S-SO 157 ° 0 min 0 W/m² 3,1 °C 4,8 °C 1,6 km/h (1 Bft)
31.12.2023 03:53 20,8 °C 4,8 °C 54 % 89 % 1010,4 hPa 0,0 l/m² 0,0 km/h (0 Bft) S-SO 157 ° 0 min 0 W/m² 3,1 °C 4,8 °C 1,6 km/h (1 Bft)
31.12.2023 03:54 20,8 °C 4,8 °C 54 % 89 % 1010,5 hPa 0,0 l/m² 0,0 km/h (0 Bft) S-SO 157 ° 0 min 0 W/m² 3,1 °C 4,8 °C 1,6 km/h (1 Bft)
31.12.2023 03:55 20,9 °C 4,7 °C 54 % 89 % 1010,4 hPa 0,0 l/m² 0,0 km/h (0 Bft) S-SO 157 ° 0 min 0 W/m² 3,0 °C 4,7 °C 3,2 km/h (1 Bft)
31.12.2023 03:56 20,8 °C 4,7 °C 54 % 89 % 1010,3 hPa 0,0 l/m² 0,0 km/h (0 Bft) N 0 ° 0 min 0 W/m² 3,0 °C 4,7 °C 0,0 km/h (0 Bft)
31.12.2023 03:57 20,9 °C 4,7 °C 54 % 89 % 1010,4 hPa 0,0 l/m² 0,0 km/h (0 Bft) N 0 ° 0 min 0 W/m² 3,0 °C 4,7 °C 0,0 km/h (0 Bft)
31.12.2023 03:58 20,9 °C 4,7 °C 54 % 89 % 1010,4 hPa 0,0 l/m² 0,0 km/h (0 Bft) N 0 ° 0 min 0 W/m² 3,0 °C 4,7 °C 0,0 km/h (0 Bft)
31.12.2023 03:59 20,9 °C 4,7 °C 54 % 89 % 1010,4 hPa 0,0 l/m² 0,0 km/h (0 Bft) N 0 ° 0 min 0 W/m² 3,0 °C 4,7 °C 0,0 km/h (0 Bft)
31.12.2023 04:00 20,9 °C 4,7 °C 54 % 89 % 1010,3 hPa 0,0 l/m² 0,0 km/h (0 Bft) S-SO 157 ° 0 min 0 W/m² 3,0 °C 4,7 °C 1,6 km/h (1 Bft)
31.12.2023 04:01 20,8 °C 4,7 °C 54 % 89 % 1010,4 hPa 0,0 l/m² 0,0 km/h (0 Bft) S-SO 157 ° 0 min 0 W/m² 3,0 °C 4,7 °C 1,6 km/h (1 Bft)
31.12.2023 04:02 20,9 °C 4,7 °C 54 % 89 % 1010,5 hPa 0,0 l/m² 0,0 km/h (0 Bft) S-SO 157 ° 0 min 0 W/m² 3,0 °C 4,7 °C 1,6 km/h (1 Bft)
31.12.2023 04:03 20,8 °C 4,7 °C 54 % 89 % 1010,4 hPa 0,0 l/m² 0,0 km/h (0 Bft) S-SO 157 ° 0 min 0 W/m² 3,0 °C 4,7 °C 1,6 km/h (1 Bft)
31.12.2023 04:04 20,9 °C 4,7 °C 54 % 89 % 1010,4 hPa 0,0 l/m² 0,0 km/h (0 Bft) S-SO 157 ° 0 min 0 W/m² 3,0 °C 4,7 °C 3,2 km/h (1 Bft)
31.12.2023 04:05 20,9 °C 4,7 °C 54 % 89 % 1010,4 hPa 0,0 l/m² 1,6 km/h (1 Bft) S-SO 157 ° 0 min 0 W/m² 3,0 °C 4,7 °C 3,2 km/h (1 Bft)
31.12.2023 04:06 20,9 °C 4,6 °C 54 % 89 % 1010,4 hPa 0,0 l/m² 1,6 km/h (1 Bft) S-SO 157 ° 0 min 0 W/m² 2,9 °C 4,6 °C 3,2 km/h (1 Bft)
31.12.2023 04:07 20,9 °C 4,6 °C 54 % 89 % 1010,4 hPa 0,0 l/m² 1,6 km/h (1 Bft) S-SO 157 ° 0 min 0 W/m² 2,9 °C 4,6 °C 3,2 km/h (1 Bft)
31.12.2023 04:08 20,9 °C 4,6 °C 54 % 89 % 1010,4 hPa 0,0 l/m² 1,6 km/h (1 Bft) S-SO 157 ° 0 min 0 W/m² 2,9 °C 4,6 °C 3,2 km/h (1 Bft)
31.12.2023 04:09 20,9 °C 4,6 °C 54 % 89 % 1010,3 hPa 0,0 l/m² 0,0 km/h (0 Bft) S-SO 157 ° 0 min 0 W/m² 2,9 °C 4,6 °C 3,2 km/h (1 Bft)
31.12.2023 04:10 20,9 °C 4,6 °C 54 % 89 % 1010,4 hPa 0,0 l/m² 1,6 km/h (1 Bft) S-SO 157 ° 0 min 0 W/m² 2,9 °C 4,6 °C 6,4 km/h (2 Bft)
31.12.2023 04:11 20,9 °C 4,6 °C 54 % 89 % 1010,4 hPa 0,0 l/m² 0,0 km/h (0 Bft) S-SO 157 ° 0 min 0 W/m² 2,9 °C 4,6 °C 3,2 km/h (1 Bft)
31.12.2023 04:12 20,9 °C 4,6 °C 54 % 89 % 1010,4 hPa 0,0 l/m² 3,2 km/h (1 Bft) S-SO 157 ° 0 min 0 W/m² 2,9 °C 4,6 °C 6,4 km/h (2 Bft)
31.12.2023 04:13 20,9 °C 4,6 °C 54 % 89 % 1010,4 hPa 0,0 l/m² 3,2 km/h (1 Bft) S-SO 157 ° 0 min 0 W/m² 2,9 °C 4,6 °C 6,4 km/h (2 Bft)
31.12.2023 04:14 20,8 °C 4,6 °C 54 % 89 % 1010,4 hPa 0,0 l/m² 1,6 km/h (1 Bft) S-SO 157 ° 0 min 0 W/m² 2,9 °C 4,6 °C 3,2 km/h (1 Bft)
31.12.2023 04:15 20,9 °C 4,5 °C 54 % 89 % 1010,4 hPa 0,0 l/m² 1,6 km/h (1 Bft) S-SO 157 ° 0 min 0 W/m² 2,8 °C 4,5 °C 6,4 km/h (2 Bft)
31.12.2023 04:16 20,9 °C 4,5 °C 54 % 89 % 1010,4 hPa 0,0 l/m² 3,2 km/h (1 Bft) S-SO 157 ° 0 min 0 W/m² 2,8 °C 4,5 °C 8,0 km/h (2 Bft)
31.12.2023 04:17 20,9 °C 4,5 °C 54 % 89 % 1010,4 hPa 0,0 l/m² 1,6 km/h (1 Bft) S-SO 157 ° 0 min 0 W/m² 2,8 °C 4,5 °C 4,8 km/h (1 Bft)
31.12.2023 04:18 20,9 °C 4,5 °C 54 % 89 % 1010,4 hPa 0,0 l/m² 3,2 km/h (1 Bft) S-SO 157 ° 0 min 0 W/m² 2,8 °C 4,5 °C 4,8 km/h (1 Bft)
31.12.2023 04:19 20,9 °C 4,5 °C 54 % 89 % 1010,4 hPa 0,0 l/m² 0,0 km/h (0 Bft) S-SO 157 ° 0 min 0 W/m² 2,8 °C 4,5 °C 1,6 km/h (1 Bft)
31.12.2023 04:20 20,9 °C 4,5 °C 54 % 89 % 1010,4 hPa 0,0 l/m² 1,6 km/h (1 Bft) S-SO 157 ° 0 min 0 W/m² 2,8 °C 4,5 °C 4,8 km/h (1 Bft)
31.12.2023 04:21 20,9 °C 4,5 °C 54 % 89 % 1010,4 hPa 0,0 l/m² 0,0 km/h (0 Bft) S-SO 157 ° 0 min 0 W/m² 2,8 °C 4,5 °C 1,6 km/h (1 Bft)
31.12.2023 04:22 20,9 °C 4,5 °C 54 % 89 % 1010,3 hPa 0,0 l/m² 0,0 km/h (0 Bft) S-SO 157 ° 0 min 0 W/m² 2,8 °C 4,5 °C 1,6 km/h (1 Bft)
31.12.2023 04:23 20,9 °C 4,5 °C 54 % 89 % 1010,4 hPa 0,0 l/m² 0,0 km/h (0 Bft) S-SO 157 ° 0 min 0 W/m² 2,8 °C 4,5 °C 1,6 km/h (1 Bft)
31.12.2023 04:24 20,9 °C 4,5 °C 54 % 89 % 1010,4 hPa 0,0 l/m² 0,0 km/h (0 Bft) N 0 ° 0 min 0 W/m² 2,8 °C 4,5 °C 0,0 km/h (0 Bft)
31.12.2023 04:25 20,9 °C 4,5 °C 54 % 89 % 1010,3 hPa 0,0 l/m² 0,0 km/h (0 Bft) S-SO 157 ° 0 min 0 W/m² 2,8 °C 4,5 °C 1,6 km/h (1 Bft)
31.12.2023 04:26 20,9 °C 4,5 °C 54 % 89 % 1010,4 hPa 0,0 l/m² 0,0 km/h (0 Bft) N 0 ° 0 min 0 W/m² 2,8 °C 4,5 °C 0,0 km/h (0 Bft)
31.12.2023 04:27 20,9 °C 4,6 °C 54 % 89 % 1010,3 hPa 0,0 l/m² 0,0 km/h (0 Bft) N 0 ° 0 min 0 W/m² 2,9 °C 4,6 °C 0,0 km/h (0 Bft)
31.12.2023 04:28 20,9 °C 4,6 °C 54 % 89 % 1010,3 hPa 0,0 l/m² 0,0 km/h (0 Bft) N 0 ° 0 min 0 W/m² 2,9 °C 4,6 °C 0,0 km/h (0 Bft)
31.12.2023 04:29 20,9 °C 4,5 °C 54 % 89 % 1010,3 hPa 0,0 l/m² 0,0 km/h (0 Bft) S-SO 157 ° 0 min 0 W/m² 2,8 °C 4,5 °C 1,6 km/h (1 Bft)
31.12.2023 04:30 20,9 °C 4,6 °C 54 % 89 % 1010,3 hPa 0,0 l/m² 1,6 km/h (1 Bft) S-SO 157 ° 0 min 0 W/m² 2,9 °C 4,6 °C 3,2 km/h (1 Bft)
31.12.2023 04:31 20,9 °C 4,6 °C 54 % 89 % 1010,3 hPa 0,0 l/m² 1,6 km/h (1 Bft) S-SO 157 ° 0 min 0 W/m² 2,9 °C 4,6 °C 3,2 km/h (1 Bft)
31.12.2023 04:32 20,9 °C 4,6 °C 54 % 89 % 1010,3 hPa 0,0 l/m² 0,0 km/h (0 Bft) S-SO 157 ° 0 min 0 W/m² 2,9 °C 4,6 °C 1,6 km/h (1 Bft)
31.12.2023 04:33 20,9 °C 4,6 °C 54 % 90 % 1010,2 hPa 0,0 l/m² 0,0 km/h (0 Bft) S-SO 157 ° 0 min 0 W/m² 3,1 °C 4,6 °C 1,6 km/h (1 Bft)
31.12.2023 04:34 20,9 °C 4,6 °C 54 % 90 % 1010,2 hPa 0,0 l/m² 0,0 km/h (0 Bft) S-SO 157 ° 0 min 0 W/m² 3,1 °C 4,6 °C 1,6 km/h (1 Bft)
31.12.2023 04:35 20,9 °C 4,6 °C 54 % 90 % 1010,2 hPa 0,0 l/m² 1,6 km/h (1 Bft) S-SO 157 ° 0 min 0 W/m² 3,1 °C 4,6 °C 3,2 km/h (1 Bft)
31.12.2023 04:36 20,9 °C 4,6 °C 54 % 90 % 1010,0 hPa 0,0 l/m² 3,2 km/h (1 Bft) S-SO 157 ° 0 min 0 W/m² 3,1 °C 4,6 °C 4,8 km/h (1 Bft)
31.12.2023 04:37 20,9 °C 4,6 °C 54 % 90 % 1010,0 hPa 0,0 l/m² 3,2 km/h (1 Bft) S-SO 157 ° 0 min 0 W/m² 3,1 °C 4,6 °C 6,4 km/h (2 Bft)
31.12.2023 04:38 20,9 °C 4,6 °C 54 % 90 % 1010,0 hPa 0,0 l/m² 6,4 km/h (2 Bft) O 90 ° 0 min 0 W/m² 3,1 °C 4,6 °C 9,7 km/h (2 Bft)
31.12.2023 04:39 20,9 °C 4,6 °C 54 % 90 % 1009,9 hPa 0,0 l/m² 6,4 km/h (2 Bft) O 90 ° 0 min 0 W/m² 3,1 °C 4,6 °C 8,0 km/h (2 Bft)
31.12.2023 04:40 20,9 °C 4,7 °C 54 % 90 % 1010,0 hPa 0,0 l/m² 8,0 km/h (2 Bft) O 90 ° 0 min 0 W/m² 3,2 °C 3,3 °C 11,3 km/h (2 Bft)
31.12.2023 04:41 20,9 °C 4,7 °C 54 % 90 % 1010,0 hPa 0,0 l/m² 8,0 km/h (2 Bft) O 90 ° 0 min 0 W/m² 3,2 °C 3,3 °C 11,3 km/h (2 Bft)
31.12.2023 04:42 20,9 °C 4,7 °C 54 % 90 % 1010,0 hPa 0,0 l/m² 8,0 km/h (2 Bft) O 90 ° 0 min 0 W/m² 3,2 °C 3,3 °C 11,3 km/h (2 Bft)
31.12.2023 04:43 20,9 °C 4,7 °C 54 % 90 % 1010,0 hPa 0,0 l/m² 8,0 km/h (2 Bft) O 90 ° 0 min 0 W/m² 3,2 °C 3,3 °C 11,3 km/h (2 Bft)
31.12.2023 04:44 20,9 °C 4,7 °C 54 % 90 % 1010,0 hPa 0,0 l/m² 6,4 km/h (2 Bft) O 90 ° 0 min 0 W/m² 3,2 °C 4,7 °C 8,0 km/h (2 Bft)
31.12.2023 04:45 20,9 °C 4,7 °C 54 % 90 % 1010,0 hPa 0,0 l/m² 8,0 km/h (2 Bft) O 90 ° 0 min 0 W/m² 3,2 °C 3,3 °C 11,3 km/h (2 Bft)
31.12.2023 04:46 20,9 °C 4,7 °C 54 % 90 % 1009,9 hPa 0,0 l/m² 11,3 km/h (2 Bft) O 90 ° 0 min 0 W/m² 3,2 °C 0,9 °C 14,5 km/h (3 Bft)
31.12.2023 04:47 20,9 °C 4,8 °C 54 % 90 % 1009,9 hPa 0,0 l/m² 9,7 km/h (2 Bft) O 90 ° 0 min 0 W/m² 3,3 °C 2,1 °C 12,9 km/h (3 Bft)
31.12.2023 04:48 20,9 °C 4,8 °C 54 % 90 % 1009,9 hPa 0,0 l/m² 9,7 km/h (2 Bft) O 90 ° 0 min 0 W/m² 3,3 °C 2,1 °C 12,9 km/h (3 Bft)
31.12.2023 04:49 20,9 °C 4,8 °C 54 % 90 % 1009,9 hPa 0,0 l/m² 8,0 km/h (2 Bft) O 90 ° 0 min 0 W/m² 3,3 °C 3,4 °C 11,3 km/h (2 Bft)
31.12.2023 04:50 20,9 °C 4,8 °C 54 % 89 % 1009,9 hPa 0,0 l/m² 9,7 km/h (2 Bft) O 90 ° 0 min 0 W/m² 3,1 °C 2,1 °C 12,9 km/h (3 Bft)
31.12.2023 04:51 20,9 °C 4,8 °C 54 % 89 % 1009,9 hPa 0,0 l/m² 9,7 km/h (2 Bft) O 90 ° 0 min 0 W/m² 3,1 °C 2,1 °C 11,3 km/h (2 Bft)
31.12.2023 04:52 20,9 °C 4,8 °C 54 % 89 % 1009,9 hPa 0,0 l/m² 8,0 km/h (2 Bft) O 90 ° 0 min 0 W/m² 3,1 °C 3,4 °C 11,3 km/h (2 Bft)
31.12.2023 04:53 20,9 °C 4,8 °C 54 % 89 % 1009,8 hPa 0,0 l/m² 11,3 km/h (2 Bft) O 90 ° 0 min 0 W/m² 3,1 °C 1,0 °C 14,5 km/h (3 Bft)
31.12.2023 04:54 20,9 °C 4,8 °C 54 % 89 % 1009,8 hPa 0,0 l/m² 12,9 km/h (3 Bft) O 90 ° 0 min 0 W/m² 3,1 °C -0,0 °C 14,5 km/h (3 Bft)
31.12.2023 04:55 20,9 °C 4,8 °C 54 % 89 % 1009,7 hPa 0,0 l/m² 11,3 km/h (2 Bft) O 90 ° 0 min 0 W/m² 3,1 °C 1,0 °C 12,9 km/h (3 Bft)
31.12.2023 04:56 20,9 °C 4,8 °C 54 % 89 % 1009,7 hPa 0,0 l/m² 12,9 km/h (3 Bft) O 90 ° 0 min 0 W/m² 3,1 °C -0,0 °C 14,5 km/h (3 Bft)
31.12.2023 04:57 20,9 °C 4,8 °C 54 % 89 % 1009,7 hPa 0,0 l/m² 11,3 km/h (2 Bft) O 90 ° 0 min 0 W/m² 3,1 °C 1,0 °C 14,5 km/h (3 Bft)
31.12.2023 04:58 20,9 °C 4,9 °C 54 % 89 % 1009,7 hPa 0,0 l/m² 11,3 km/h (2 Bft) O-SO 112 ° 0 min 0 W/m² 3,2 °C 1,1 °C 14,5 km/h (3 Bft)
31.12.2023 04:59 20,9 °C 4,8 °C 54 % 89 % 1009,5 hPa 0,0 l/m² 11,3 km/h (2 Bft) O-SO 112 ° 0 min 0 W/m² 3,1 °C 1,0 °C 14,5 km/h (3 Bft)
31.12.2023 05:00 20,9 °C 4,9 °C 54 % 89 % 1009,6 hPa 0,0 l/m² 12,9 km/h (3 Bft) O 90 ° 0 min 0 W/m² 3,2 °C 0,1 °C 16,1 km/h (3 Bft)
31.12.2023 05:01 20,9 °C 4,8 °C 54 % 89 % 1009,6 hPa 0,0 l/m² 11,3 km/h (2 Bft) O 90 ° 0 min 0 W/m² 3,1 °C 1,0 °C 12,9 km/h (3 Bft)
31.12.2023 05:02 20,9 °C 4,8 °C 54 % 89 % 1009,5 hPa 0,0 l/m² 11,3 km/h (2 Bft) O 90 ° 0 min 0 W/m² 3,1 °C 1,0 °C 14,5 km/h (3 Bft)
31.12.2023 05:03 20,9 °C 4,8 °C 54 % 89 % 1009,4 hPa 0,0 l/m² 12,9 km/h (3 Bft) O 90 ° 0 min 0 W/m² 3,1 °C -0,0 °C 16,1 km/h (3 Bft)
31.12.2023 05:04 20,9 °C 4,8 °C 54 % 89 % 1009,5 hPa 0,0 l/m² 11,3 km/h (2 Bft) O 90 ° 0 min 0 W/m² 3,1 °C 1,0 °C 12,9 km/h (3 Bft)
31.12.2023 05:05 20,9 °C 4,8 °C 54 % 89 % 1009,4 hPa 0,0 l/m² 11,3 km/h (2 Bft) O 90 ° 0 min 0 W/m² 3,1 °C 1,0 °C 14,5 km/h (3 Bft)
31.12.2023 05:06 20,9 °C 4,8 °C 54 % 89 % 1009,4 hPa 0,0 l/m² 11,3 km/h (2 Bft) O 90 ° 0 min 0 W/m² 3,1 °C 1,0 °C 12,9 km/h (3 Bft)
31.12.2023 05:07 20,9 °C 4,8 °C 54 % 89 % 1009,5 hPa 0,0 l/m² 11,3 km/h (2 Bft) O 90 ° 0 min 0 W/m² 3,1 °C 1,0 °C 12,9 km/h (3 Bft)
31.12.2023 05:08 20,9 °C 4,8 °C 54 % 89 % 1009,4 hPa 0,0 l/m² 11,3 km/h (2 Bft) O 90 ° 0 min 0 W/m² 3,1 °C 1,0 °C 14,5 km/h (3 Bft)
31.12.2023 05:09 20,9 °C 4,7 °C 54 % 89 % 1009,4 hPa 0,0 l/m² 12,9 km/h (3 Bft) O 90 ° 0 min 0 W/m² 3,0 °C -0,1 °C 16,1 km/h (3 Bft)
31.12.2023 05:10 20,9 °C 4,7 °C 54 % 89 % 1009,3 hPa 0,0 l/m² 16,1 km/h (3 Bft) O 90 ° 0 min 0 W/m² 3,0 °C -1,8 °C 17,7 km/h (3 Bft)
31.12.2023 05:11 20,9 °C 4,7 °C 54 % 89 % 1009,4 hPa 0,0 l/m² 16,1 km/h (3 Bft) O 90 ° 0 min 0 W/m² 3,0 °C -1,8 °C 19,3 km/h (3 Bft)
31.12.2023 05:12 20,9 °C 4,7 °C 54 % 89 % 1009,4 hPa 0,0 l/m² 12,9 km/h (3 Bft) O 90 ° 0 min 0 W/m² 3,0 °C -0,1 °C 19,3 km/h (3 Bft)
31.12.2023 05:13 20,9 °C 4,7 °C 54 % 89 % 1009,4 hPa 0,0 l/m² 11,3 km/h (2 Bft) O 90 ° 0 min 0 W/m² 3,0 °C 0,9 °C 14,5 km/h (3 Bft)
31.12.2023 05:14 20,9 °C 4,7 °C 54 % 89 % 1009,4 hPa 0,0 l/m² 11,3 km/h (2 Bft) O 90 ° 0 min 0 W/m² 3,0 °C 0,9 °C 12,9 km/h (3 Bft)
31.12.2023 05:15 20,9 °C 4,7 °C 54 % 89 % 1009,4 hPa 0,0 l/m² 12,9 km/h (3 Bft) O 90 ° 0 min 0 W/m² 3,0 °C -0,1 °C 14,5 km/h (3 Bft)
31.12.2023 05:16 20,9 °C 4,6 °C 54 % 89 % 1009,3 hPa 0,0 l/m² 9,7 km/h (2 Bft) O 90 ° 0 min 0 W/m² 2,9 °C 1,8 °C 12,9 km/h (3 Bft)
31.12.2023 05:17 20,9 °C 4,6 °C 54 % 89 % 1009,4 hPa 0,0 l/m² 11,3 km/h (2 Bft) O 90 ° 0 min 0 W/m² 2,9 °C 0,7 °C 14,5 km/h (3 Bft)
31.12.2023 05:18 20,9 °C 4,6 °C 54 % 89 % 1009,4 hPa 0,0 l/m² 12,9 km/h (3 Bft) O 90 ° 0 min 0 W/m² 2,9 °C -0,2 °C 14,5 km/h (3 Bft)
31.12.2023 05:19 20,9 °C 4,6 °C 54 % 89 % 1009,4 hPa 0,0 l/m² 12,9 km/h (3 Bft) O 90 ° 0 min 0 W/m² 2,9 °C -0,2 °C 16,1 km/h (3 Bft)
31.12.2023 05:20 20,9 °C 4,6 °C 54 % 89 % 1009,3 hPa 0,0 l/m² 12,9 km/h (3 Bft) O 90 ° 0 min 0 W/m² 2,9 °C -0,2 °C 16,1 km/h (3 Bft)
31.12.2023 05:21 20,9 °C 4,5 °C 54 % 89 % 1009,4 hPa 0,0 l/m² 12,9 km/h (3 Bft) O 90 ° 0 min 0 W/m² 2,8 °C -0,4 °C 14,5 km/h (3 Bft)
31.12.2023 05:22 20,9 °C 4,5 °C 54 % 89 % 1009,3 hPa 0,0 l/m² 12,9 km/h (3 Bft) O 90 ° 0 min 0 W/m² 2,8 °C -0,4 °C 16,1 km/h (3 Bft)
31.12.2023 05:23 20,9 °C 4,5 °C 54 % 89 % 1009,4 hPa 0,0 l/m² 12,9 km/h (3 Bft) O 90 ° 0 min 0 W/m² 2,8 °C -0,4 °C 14,5 km/h (3 Bft)
31.12.2023 05:24 20,9 °C 4,5 °C 54 % 89 % 1009,3 hPa 0,0 l/m² 11,3 km/h (2 Bft) O 90 ° 0 min 0 W/m² 2,8 °C 0,6 °C 14,5 km/h (3 Bft)
31.12.2023 05:25 20,9 °C 4,4 °C 54 % 89 % 1009,2 hPa 0,0 l/m² 11,3 km/h (2 Bft) O 90 ° 0 min 0 W/m² 2,7 °C 0,5 °C 12,9 km/h (3 Bft)
31.12.2023 05:26 20,9 °C 4,4 °C 54 % 89 % 1009,2 hPa 0,0 l/m² 9,7 km/h (2 Bft) O 90 ° 0 min 0 W/m² 2,7 °C 1,6 °C 14,5 km/h (3 Bft)
31.12.2023 05:27 20,9 °C 4,4 °C 54 % 89 % 1009,2 hPa 0,0 l/m² 11,3 km/h (2 Bft) O 90 ° 0 min 0 W/m² 2,7 °C 0,5 °C 14,5 km/h (3 Bft)
31.12.2023 05:28 20,9 °C 4,4 °C 54 % 89 % 1009,1 hPa 0,0 l/m² 11,3 km/h (2 Bft) O 90 ° 0 min 0 W/m² 2,7 °C 0,5 °C 12,9 km/h (3 Bft)
31.12.2023 05:29 20,9 °C 4,4 °C 54 % 89 % 1009,2 hPa 0,0 l/m² 11,3 km/h (2 Bft) O 90 ° 0 min 0 W/m² 2,7 °C 0,5 °C 14,5 km/h (3 Bft)
31.12.2023 05:30 20,9 °C 4,4 °C 54 % 89 % 1009,2 hPa 0,0 l/m² 12,9 km/h (3 Bft) O 90 ° 0 min 0 W/m² 2,7 °C -0,5 °C 14,5 km/h (3 Bft)
31.12.2023 05:31 20,9 °C 4,3 °C 54 % 89 % 1009,2 hPa 0,0 l/m² 12,9 km/h (3 Bft) O 90 ° 0 min 0 W/m² 2,7 °C -0,6 °C 14,5 km/h (3 Bft)
31.12.2023 05:32 20,9 °C 4,3 °C 54 % 89 % 1009,2 hPa 0,0 l/m² 11,3 km/h (2 Bft) O 90 ° 0 min 0 W/m² 2,7 °C 0,4 °C 14,5 km/h (3 Bft)
31.12.2023 05:33 20,9 °C 4,3 °C 54 % 89 % 1009,2 hPa 0,0 l/m² 9,7 km/h (2 Bft) O 90 ° 0 min 0 W/m² 2,7 °C 1,5 °C 12,9 km/h (3 Bft)
31.12.2023 05:34 20,9 °C 4,3 °C 54 % 89 % 1009,2 hPa 0,0 l/m² 11,3 km/h (2 Bft) O 90 ° 0 min 0 W/m² 2,7 °C 0,4 °C 12,9 km/h (3 Bft)
31.12.2023 05:35 20,9 °C 4,2 °C 54 % 89 % 1009,2 hPa 0,0 l/m² 11,3 km/h (2 Bft) O-SO 112 ° 0 min 0 W/m² 2,6 °C 0,3 °C 12,9 km/h (3 Bft)
31.12.2023 05:36 20,9 °C 4,2 °C 54 % 89 % 1009,2 hPa 0,0 l/m² 12,9 km/h (3 Bft) O 90 ° 0 min 0 W/m² 2,6 °C -0,7 °C 14,5 km/h (3 Bft)
31.12.2023 05:37 20,9 °C 4,2 °C 54 % 89 % 1009,2 hPa 0,0 l/m² 12,9 km/h (3 Bft) O 90 ° 0 min 0 W/m² 2,6 °C -0,7 °C 14,5 km/h (3 Bft)
31.12.2023 05:38 20,9 °C 4,2 °C 54 % 89 % 1009,1 hPa 0,0 l/m² 12,9 km/h (3 Bft) O 90 ° 0 min 0 W/m² 2,6 °C -0,7 °C 14,5 km/h (3 Bft)
31.12.2023 05:39 20,9 °C 4,2 °C 54 % 89 % 1009,2 hPa 0,0 l/m² 11,3 km/h (2 Bft) O-SO 112 ° 0 min 0 W/m² 2,6 °C 0,3 °C 14,5 km/h (3 Bft)
31.12.2023 05:40 20,9 °C 4,2 °C 54 % 89 % 1009,1 hPa 0,0 l/m² 9,7 km/h (2 Bft) O 90 ° 0 min 0 W/m² 2,6 °C 1,4 °C 11,3 km/h (2 Bft)
31.12.2023 05:41 20,9 °C 4,2 °C 54 % 89 % 1009,1 hPa 0,0 l/m² 11,3 km/h (2 Bft) O 90 ° 0 min 0 W/m² 2,6 °C 0,3 °C 14,5 km/h (3 Bft)
31.12.2023 05:42 20,9 °C 4,2 °C 54 % 89 % 1009,1 hPa 0,0 l/m² 12,9 km/h (3 Bft) O 90 ° 0 min 0 W/m² 2,6 °C -0,7 °C 14,5 km/h (3 Bft)
31.12.2023 05:43 20,9 °C 4,2 °C 54 % 89 % 1009,1 hPa 0,0 l/m² 11,3 km/h (2 Bft) O 90 ° 0 min 0 W/m² 2,6 °C 0,3 °C 12,9 km/h (3 Bft)
31.12.2023 05:44 20,9 °C 4,2 °C 54 % 89 % 1009,0 hPa 0,0 l/m² 11,3 km/h (2 Bft) O 90 ° 0 min 0 W/m² 2,6 °C 0,3 °C 16,1 km/h (3 Bft)
31.12.2023 05:45 20,9 °C 4,2 °C 54 % 89 % 1009,0 hPa 0,0 l/m² 11,3 km/h (2 Bft) O 90 ° 0 min 0 W/m² 2,6 °C 0,3 °C 14,5 km/h (3 Bft)
31.12.2023 05:46 20,9 °C 4,2 °C 54 % 89 % 1009,0 hPa 0,0 l/m² 12,9 km/h (3 Bft) O 90 ° 0 min 0 W/m² 2,6 °C -0,7 °C 16,1 km/h (3 Bft)
31.12.2023 05:47 20,9 °C 4,2 °C 54 % 89 % 1009,0 hPa 0,0 l/m² 12,9 km/h (3 Bft) O 90 ° 0 min 0 W/m² 2,6 °C -0,7 °C 16,1 km/h (3 Bft)
31.12.2023 05:48 20,9 °C 4,2 °C 54 % 89 % 1009,0 hPa 0,0 l/m² 11,3 km/h (2 Bft) O 90 ° 0 min 0 W/m² 2,6 °C 0,3 °C 12,9 km/h (3 Bft)
31.12.2023 05:49 20,9 °C 4,2 °C 54 % 89 % 1009,0 hPa 0,0 l/m² 9,7 km/h (2 Bft) O 90 ° 0 min 0 W/m² 2,6 °C 1,4 °C 12,9 km/h (3 Bft)
31.12.2023 05:50 20,9 °C 4,2 °C 54 % 89 % 1009,1 hPa 0,0 l/m² 8,0 km/h (2 Bft) O 90 ° 0 min 0 W/m² 2,6 °C 2,8 °C 9,7 km/h (2 Bft)
31.12.2023 05:51 20,9 °C 4,2 °C 54 % 89 % 1009,0 hPa 0,0 l/m² 6,4 km/h (2 Bft) O 90 ° 0 min 0 W/m² 2,6 °C 4,2 °C 9,7 km/h (2 Bft)
31.12.2023 05:52 20,9 °C 4,1 °C 54 % 89 % 1009,1 hPa 0,0 l/m² 6,4 km/h (2 Bft) O 90 ° 0 min 0 W/m² 2,5 °C 4,1 °C 11,3 km/h (2 Bft)
31.12.2023 05:53 20,9 °C 4,1 °C 54 % 89 % 1009,0 hPa 0,0 l/m² 6,4 km/h (2 Bft) O 90 ° 0 min 0 W/m² 2,5 °C 4,1 °C 9,7 km/h (2 Bft)
31.12.2023 05:54 20,9 °C 4,1 °C 54 % 89 % 1008,9 hPa 0,0 l/m² 6,4 km/h (2 Bft) O 90 ° 0 min 0 W/m² 2,5 °C 4,1 °C 9,7 km/h (2 Bft)
31.12.2023 05:55 20,9 °C 4,1 °C 54 % 89 % 1008,9 hPa 0,0 l/m² 4,8 km/h (1 Bft) O 90 ° 0 min 0 W/m² 2,5 °C 4,1 °C 6,4 km/h (2 Bft)
31.12.2023 05:56 20,9 °C 4,1 °C 54 % 89 % 1009,0 hPa 0,0 l/m² 4,8 km/h (1 Bft) O 90 ° 0 min 0 W/m² 2,5 °C 4,1 °C 6,4 km/h (2 Bft)
31.12.2023 05:57 20,9 °C 4,0 °C 54 % 89 % 1008,9 hPa 0,0 l/m² 4,8 km/h (1 Bft) O 90 ° 0 min 0 W/m² 2,4 °C 4,0 °C 9,7 km/h (2 Bft)
31.12.2023 05:58 20,9 °C 4,0 °C 54 % 89 % 1008,8 hPa 0,0 l/m² 4,8 km/h (1 Bft) O 90 ° 0 min 0 W/m² 2,4 °C 4,0 °C 6,4 km/h (2 Bft)
31.12.2023 05:59 20,9 °C 4,0 °C 54 % 89 % 1008,8 hPa 0,0 l/m² 6,4 km/h (2 Bft) O 90 ° 0 min 0 W/m² 2,4 °C 4,0 °C 9,7 km/h (2 Bft)
31.12.2023 06:00 20,9 °C 3,9 °C 54 % 89 % 1008,8 hPa 0,0 l/m² 4,8 km/h (1 Bft) O 90 ° 0 min 0 W/m² 2,3 °C 3,9 °C 6,4 km/h (2 Bft)
31.12.2023 06:01 20,9 °C 3,9 °C 54 % 89 % 1008,8 hPa 0,0 l/m² 6,4 km/h (2 Bft) O 90 ° 0 min 0 W/m² 2,3 °C 3,9 °C 9,7 km/h (2 Bft)
31.12.2023 06:02 20,9 °C 3,8 °C 54 % 89 % 1008,8 hPa 0,0 l/m² 8,0 km/h (2 Bft) O 90 ° 0 min 0 W/m² 2,2 °C 2,3 °C 11,3 km/h (2 Bft)
31.12.2023 06:03 20,9 °C 3,8 °C 54 % 89 % 1008,7 hPa 0,0 l/m² 8,0 km/h (2 Bft) O 90 ° 0 min 0 W/m² 2,2 °C 2,3 °C 9,7 km/h (2 Bft)
31.12.2023 06:04 20,9 °C 3,8 °C 54 % 89 % 1008,7 hPa 0,0 l/m² 9,7 km/h (2 Bft) O 90 ° 0 min 0 W/m² 2,2 °C 1,0 °C 12,9 km/h (3 Bft)
31.12.2023 06:05 20,9 °C 3,8 °C 54 % 89 % 1008,6 hPa 0,0 l/m² 6,4 km/h (2 Bft) O 90 ° 0 min 0 W/m² 2,2 °C 3,8 °C 6,4 km/h (2 Bft)
31.12.2023 06:06 20,9 °C 3,8 °C 54 % 89 % 1008,7 hPa 0,0 l/m² 6,4 km/h (2 Bft) O 90 ° 0 min 0 W/m² 2,2 °C 3,8 °C 9,7 km/h (2 Bft)
31.12.2023 06:07 20,9 °C 3,8 °C 54 % 89 % 1008,6 hPa 0,0 l/m² 6,4 km/h (2 Bft) O 90 ° 0 min 0 W/m² 2,2 °C 3,8 °C 9,7 km/h (2 Bft)
31.12.2023 06:08 20,9 °C 3,8 °C 54 % 89 % 1008,6 hPa 0,0 l/m² 9,7 km/h (2 Bft) O 90 ° 0 min 0 W/m² 2,2 °C 1,0 °C 11,3 km/h (2 Bft)
31.12.2023 06:09 20,9 °C 3,8 °C 54 % 89 % 1008,6 hPa 0,0 l/m² 4,8 km/h (1 Bft) O 90 ° 0 min 0 W/m² 2,2 °C 3,8 °C 9,7 km/h (2 Bft)
31.12.2023 06:10 20,9 °C 3,8 °C 54 % 89 % 1008,6 hPa 0,0 l/m² 6,4 km/h (2 Bft) O 90 ° 0 min 0 W/m² 2,2 °C 3,8 °C 9,7 km/h (2 Bft)
31.12.2023 06:11 20,9 °C 3,8 °C 54 % 89 % 1008,6 hPa 0,0 l/m² 6,4 km/h (2 Bft) O 90 ° 0 min 0 W/m² 2,2 °C 3,8 °C 9,7 km/h (2 Bft)
31.12.2023 06:12 20,9 °C 3,8 °C 54 % 89 % 1008,6 hPa 0,0 l/m² 6,4 km/h (2 Bft) O 90 ° 0 min 0 W/m² 2,2 °C 3,8 °C 9,7 km/h (2 Bft)
31.12.2023 06:13 20,9 °C 3,8 °C 54 % 89 % 1008,6 hPa 0,0 l/m² 4,8 km/h (1 Bft) O 90 ° 0 min 0 W/m² 2,2 °C 3,8 °C 6,4 km/h (2 Bft)
31.12.2023 06:14 20,9 °C 3,8 °C 54 % 89 % 1008,6 hPa 0,0 l/m² 4,8 km/h (1 Bft) O 90 ° 0 min 0 W/m² 2,2 °C 3,8 °C 6,4 km/h (2 Bft)
31.12.2023 06:15 20,9 °C 3,8 °C 55 % 89 % 1008,6 hPa 0,0 l/m² 4,8 km/h (1 Bft) O 90 ° 0 min 0 W/m² 2,2 °C 3,8 °C 6,4 km/h (2 Bft)
31.12.2023 06:16 20,9 °C 3,8 °C 54 % 89 % 1008,6 hPa 0,0 l/m² 4,8 km/h (1 Bft) O 90 ° 0 min 0 W/m² 2,2 °C 3,8 °C 4,8 km/h (1 Bft)
31.12.2023 06:17 20,9 °C 3,8 °C 54 % 89 % 1008,6 hPa 0,0 l/m² 4,8 km/h (1 Bft) O 90 ° 0 min 0 W/m² 2,2 °C 3,8 °C 6,4 km/h (2 Bft)
31.12.2023 06:18 20,9 °C 3,8 °C 54 % 89 % 1008,6 hPa 0,0 l/m² 3,2 km/h (1 Bft) O 90 ° 0 min 0 W/m² 2,2 °C 3,8 °C 4,8 km/h (1 Bft)
31.12.2023 06:19 20,9 °C 3,8 °C 55 % 89 % 1008,5 hPa 0,0 l/m² 3,2 km/h (1 Bft) O 90 ° 0 min 0 W/m² 2,2 °C 3,8 °C 4,8 km/h (1 Bft)
31.12.2023 06:20 20,9 °C 3,8 °C 55 % 89 % 1008,5 hPa 0,0 l/m² 3,2 km/h (1 Bft) O 90 ° 0 min 0 W/m² 2,2 °C 3,8 °C 4,8 km/h (1 Bft)
31.12.2023 06:21 20,9 °C 3,8 °C 55 % 89 % 1008,5 hPa 0,0 l/m² 3,2 km/h (1 Bft) O 90 ° 0 min 0 W/m² 2,2 °C 3,8 °C 4,8 km/h (1 Bft)
31.12.2023 06:22 20,8 °C 3,8 °C 54 % 89 % 1008,5 hPa 0,0 l/m² 1,6 km/h (1 Bft) O 90 ° 0 min 0 W/m² 2,2 °C 3,8 °C 3,2 km/h (1 Bft)
31.12.2023 06:23 20,9 °C 3,7 °C 54 % 90 % 1008,5 hPa 0,0 l/m² 1,6 km/h (1 Bft) O 90 ° 0 min 0 W/m² 2,2 °C 3,7 °C 3,2 km/h (1 Bft)
31.12.2023 06:24 20,9 °C 3,7 °C 54 % 89 % 1008,5 hPa 0,0 l/m² 0,0 km/h (0 Bft) O 90 ° 0 min 0 W/m² 2,1 °C 3,7 °C 1,6 km/h (1 Bft)
31.12.2023 06:25 20,9 °C 3,7 °C 55 % 89 % 1008,5 hPa 0,0 l/m² 0,0 km/h (0 Bft) N 0 ° 0 min 0 W/m² 2,1 °C 3,7 °C 0,0 km/h (0 Bft)
31.12.2023 06:26 20,9 °C 3,7 °C 55 % 89 % 1008,5 hPa 0,0 l/m² 0,0 km/h (0 Bft) N 0 ° 0 min 0 W/m² 2,1 °C 3,7 °C 0,0 km/h (0 Bft)
31.12.2023 06:27 20,9 °C 3,7 °C 55 % 89 % 1008,5 hPa 0,0 l/m² 0,0 km/h (0 Bft) N 0 ° 0 min 0 W/m² 2,1 °C 3,7 °C 0,0 km/h (0 Bft)
31.12.2023 06:28 20,9 °C 3,7 °C 55 % 89 % 1008,6 hPa 0,0 l/m² 0,0 km/h (0 Bft) N 0 ° 0 min 0 W/m² 2,1 °C 3,7 °C 0,0 km/h (0 Bft)
31.12.2023 06:29 20,9 °C 3,7 °C 55 % 89 % 1008,5 hPa 0,0 l/m² 0,0 km/h (0 Bft) N 0 ° 0 min 0 W/m² 2,1 °C 3,7 °C 0,0 km/h (0 Bft)
31.12.2023 06:30 20,8 °C 3,7 °C 54 % 89 % 1008,5 hPa 0,0 l/m² 0,0 km/h (0 Bft) N 0 ° 0 min 0 W/m² 2,1 °C 3,7 °C 0,0 km/h (0 Bft)
31.12.2023 06:31 20,9 °C 3,7 °C 55 % 89 % 1008,5 hPa 0,0 l/m² 0,0 km/h (0 Bft) N 0 ° 0 min 0 W/m² 2,1 °C 3,7 °C 0,0 km/h (0 Bft)
31.12.2023 06:32 20,8 °C 3,7 °C 54 % 89 % 1008,5 hPa 0,0 l/m² 0,0 km/h (0 Bft) O 90 ° 0 min 0 W/m² 2,1 °C 3,7 °C 1,6 km/h (1 Bft)
31.12.2023 06:33 20,9 °C 3,6 °C 55 % 89 % 1008,5 hPa 0,0 l/m² 0,0 km/h (0 Bft) N 0 ° 0 min 0 W/m² 2,0 °C 3,6 °C 0,0 km/h (0 Bft)
31.12.2023 06:34 20,8 °C 3,6 °C 54 % 89 % 1008,4 hPa 0,0 l/m² 0,0 km/h (0 Bft) O 90 ° 0 min 0 W/m² 2,0 °C 3,6 °C 1,6 km/h (1 Bft)
31.12.2023 06:35 20,8 °C 3,6 °C 54 % 89 % 1008,4 hPa 0,0 l/m² 0,0 km/h (0 Bft) O 90 ° 0 min 0 W/m² 2,0 °C 3,6 °C 1,6 km/h (1 Bft)
31.12.2023 06:36 20,8 °C 3,6 °C 55 % 89 % 1008,5 hPa 0,0 l/m² 0,0 km/h (0 Bft) N 0 ° 0 min 0 W/m² 2,0 °C 3,6 °C 0,0 km/h (0 Bft)
31.12.2023 06:37 20,8 °C 3,6 °C 55 % 89 % 1008,5 hPa 0,0 l/m² 0,0 km/h (0 Bft) O 90 ° 0 min 0 W/m² 2,0 °C 3,6 °C 1,6 km/h (1 Bft)
31.12.2023 06:38 20,8 °C 3,5 °C 54 % 89 % 1008,4 hPa 0,0 l/m² 0,0 km/h (0 Bft) O 90 ° 0 min 0 W/m² 1,9 °C 3,5 °C 1,6 km/h (1 Bft)
31.12.2023 06:39 20,8 °C 3,5 °C 54 % 89 % 1008,4 hPa 0,0 l/m² 0,0 km/h (0 Bft) N 0 ° 0 min 0 W/m² 1,9 °C 3,5 °C 0,0 km/h (0 Bft)
31.12.2023 06:40 20,9 °C 3,5 °C 55 % 89 % 1008,5 hPa 0,0 l/m² 0,0 km/h (0 Bft) O 90 ° 0 min 0 W/m² 1,9 °C 3,5 °C 1,6 km/h (1 Bft)
31.12.2023 06:41 20,9 °C 3,4 °C 55 % 89 % 1008,4 hPa 0,0 l/m² 0,0 km/h (0 Bft) O 90 ° 0 min 0 W/m² 1,8 °C 3,4 °C 3,2 km/h (1 Bft)
31.12.2023 06:42 20,8 °C 3,5 °C 54 % 89 % 1008,4 hPa 0,0 l/m² 0,0 km/h (0 Bft) O 90 ° 0 min 0 W/m² 1,9 °C 3,5 °C 1,6 km/h (1 Bft)
31.12.2023 06:43 20,8 °C 3,4 °C 55 % 89 % 1008,5 hPa 0,0 l/m² 0,0 km/h (0 Bft) O 90 ° 0 min 0 W/m² 1,8 °C 3,4 °C 1,6 km/h (1 Bft)
31.12.2023 06:44 20,8 °C 3,4 °C 55 % 89 % 1008,5 hPa 0,0 l/m² 0,0 km/h (0 Bft) N 0 ° 0 min 0 W/m² 1,8 °C 3,4 °C 0,0 km/h (0 Bft)
31.12.2023 06:45 20,8 °C 3,4 °C 55 % 89 % 1008,5 hPa 0,0 l/m² 0,0 km/h (0 Bft) O 90 ° 0 min 0 W/m² 1,8 °C 3,4 °C 3,2 km/h (1 Bft)
31.12.2023 06:46 20,8 °C 3,4 °C 54 % 89 % 1008,5 hPa 0,0 l/m² 3,2 km/h (1 Bft) O 90 ° 0 min 0 W/m² 1,8 °C 3,4 °C 4,8 km/h (1 Bft)
31.12.2023 06:47 20,8 °C 3,4 °C 54 % 89 % 1008,5 hPa 0,0 l/m² 3,2 km/h (1 Bft) O 90 ° 0 min 0 W/m² 1,8 °C 3,4 °C 6,4 km/h (2 Bft)
31.12.2023 06:48 20,8 °C 3,4 °C 55 % 89 % 1008,4 hPa 0,0 l/m² 1,6 km/h (1 Bft) O 90 ° 0 min 0 W/m² 1,8 °C 3,4 °C 3,2 km/h (1 Bft)
31.12.2023 06:49 20,8 °C 3,4 °C 54 % 90 % 1008,4 hPa 0,0 l/m² 1,6 km/h (1 Bft) O 90 ° 0 min 0 W/m² 1,9 °C 3,4 °C 3,2 km/h (1 Bft)
31.12.2023 06:50 20,8 °C 3,4 °C 55 % 90 % 1008,4 hPa 0,0 l/m² 3,2 km/h (1 Bft) O 90 ° 0 min 0 W/m² 1,9 °C 3,4 °C 4,8 km/h (1 Bft)
31.12.2023 06:51 20,8 °C 3,4 °C 55 % 90 % 1008,4 hPa 0,0 l/m² 1,6 km/h (1 Bft) O 90 ° 0 min 0 W/m² 1,9 °C 3,4 °C 3,2 km/h (1 Bft)
31.12.2023 06:52 20,8 °C 3,4 °C 54 % 89 % 1008,4 hPa 0,0 l/m² 3,2 km/h (1 Bft) O 90 ° 0 min 0 W/m² 1,8 °C 3,4 °C 4,8 km/h (1 Bft)
31.12.2023 06:53 20,8 °C 3,4 °C 55 % 89 % 1008,4 hPa 0,0 l/m² 3,2 km/h (1 Bft) O 90 ° 0 min 0 W/m² 1,8 °C 3,4 °C 4,8 km/h (1 Bft)
31.12.2023 06:54 20,8 °C 3,4 °C 54 % 89 % 1008,4 hPa 0,0 l/m² 3,2 km/h (1 Bft) O 90 ° 0 min 0 W/m² 1,8 °C 3,4 °C 4,8 km/h (1 Bft)
31.12.2023 06:55 20,8 °C 3,4 °C 55 % 90 % 1008,3 hPa 0,0 l/m² 3,2 km/h (1 Bft) O 90 ° 0 min 0 W/m² 1,9 °C 3,4 °C 4,8 km/h (1 Bft)
31.12.2023 06:56 20,8 °C 3,4 °C 54 % 90 % 1008,3 hPa 0,0 l/m² 4,8 km/h (1 Bft) O 90 ° 0 min 0 W/m² 1,9 °C 3,4 °C 9,7 km/h (2 Bft)
31.12.2023 06:57 20,8 °C 3,4 °C 55 % 90 % 1008,3 hPa 0,0 l/m² 3,2 km/h (1 Bft) O 90 ° 0 min 0 W/m² 1,9 °C 3,4 °C 4,8 km/h (1 Bft)
31.12.2023 06:58 20,8 °C 3,4 °C 55 % 90 % 1008,2 hPa 0,0 l/m² 3,2 km/h (1 Bft) O 90 ° 0 min 0 W/m² 1,9 °C 3,4 °C 4,8 km/h (1 Bft)
31.12.2023 06:59 20,8 °C 3,4 °C 55 % 90 % 1008,2 hPa 0,0 l/m² 4,8 km/h (1 Bft) O 90 ° 0 min 0 W/m² 1,9 °C 3,4 °C 6,4 km/h (2 Bft)
31.12.2023 07:00 20,8 °C 3,4 °C 54 % 90 % 1008,2 hPa 0,0 l/m² 4,8 km/h (1 Bft) O 90 ° 0 min 0 W/m² 1,9 °C 3,4 °C 6,4 km/h (2 Bft)
31.12.2023 07:01 20,8 °C 3,4 °C 54 % 90 % 1008,2 hPa 0,0 l/m² 4,8 km/h (1 Bft) O 90 ° 0 min 0 W/m² 1,9 °C 3,4 °C 6,4 km/h (2 Bft)
31.12.2023 07:02 20,8 °C 3,4 °C 54 % 90 % 1008,1 hPa 0,0 l/m² 1,6 km/h (1 Bft) O 90 ° 0 min 0 W/m² 1,9 °C 3,4 °C 3,2 km/h (1 Bft)
31.12.2023 07:03 20,8 °C 3,4 °C 55 % 90 % 1008,2 hPa 0,0 l/m² 1,6 km/h (1 Bft) O 90 ° 0 min 0 W/m² 1,9 °C 3,4 °C 4,8 km/h (1 Bft)
31.12.2023 07:04 20,8 °C 3,4 °C 55 % 90 % 1008,0 hPa 0,0 l/m² 4,8 km/h (1 Bft) O 90 ° 0 min 0 W/m² 1,9 °C 3,4 °C 4,8 km/h (1 Bft)
31.12.2023 07:05 20,8 °C 3,3 °C 55 % 90 % 1008,0 hPa 0,0 l/m² 6,4 km/h (2 Bft) O 90 ° 0 min 0 W/m² 1,8 °C 3,3 °C 6,4 km/h (2 Bft)
31.12.2023 07:06 20,8 °C 3,3 °C 55 % 90 % 1008,0 hPa 0,0 l/m² 6,4 km/h (2 Bft) O 90 ° 0 min 0 W/m² 1,8 °C 3,3 °C 6,4 km/h (2 Bft)
31.12.2023 07:07 20,8 °C 3,4 °C 55 % 90 % 1008,0 hPa 0,0 l/m² 6,4 km/h (2 Bft) O 90 ° 0 min 0 W/m² 1,9 °C 3,4 °C 11,3 km/h (2 Bft)
31.12.2023 07:08 20,8 °C 3,3 °C 55 % 90 % 1008,0 hPa 0,0 l/m² 3,2 km/h (1 Bft) O 90 ° 0 min 0 W/m² 1,8 °C 3,3 °C 4,8 km/h (1 Bft)
31.12.2023 07:09 20,8 °C 3,3 °C 55 % 90 % 1008,0 hPa 0,0 l/m² 6,4 km/h (2 Bft) O 90 ° 0 min 0 W/m² 1,8 °C 3,3 °C 9,7 km/h (2 Bft)
31.12.2023 07:10 20,8 °C 3,3 °C 55 % 90 % 1008,0 hPa 0,0 l/m² 3,2 km/h (1 Bft) O 90 ° 0 min 0 W/m² 1,8 °C 3,3 °C 4,8 km/h (1 Bft)
31.12.2023 07:11 20,8 °C 3,3 °C 55 % 90 % 1008,0 hPa 0,0 l/m² 4,8 km/h (1 Bft) O 90 ° 0 min 0 W/m² 1,8 °C 3,3 °C 6,4 km/h (2 Bft)
31.12.2023 07:12 20,8 °C 3,3 °C 55 % 90 % 1008,0 hPa 0,0 l/m² 4,8 km/h (1 Bft) O 90 ° 0 min 0 W/m² 1,8 °C 3,3 °C 6,4 km/h (2 Bft)
31.12.2023 07:13 20,8 °C 3,3 °C 55 % 90 % 1008,0 hPa 0,0 l/m² 4,8 km/h (1 Bft) O 90 ° 0 min 0 W/m² 1,8 °C 3,3 °C 6,4 km/h (2 Bft)
31.12.2023 07:14 20,8 °C 3,3 °C 55 % 90 % 1008,0 hPa 0,0 l/m² 4,8 km/h (1 Bft) O 90 ° 0 min 0 W/m² 1,8 °C 3,3 °C 6,4 km/h (2 Bft)
31.12.2023 07:15 20,8 °C 3,3 °C 55 % 90 % 1008,0 hPa 0,0 l/m² 4,8 km/h (1 Bft) O 90 ° 0 min 0 W/m² 1,8 °C 3,3 °C 9,7 km/h (2 Bft)
31.12.2023 07:16 20,8 °C 3,3 °C 55 % 90 % 1008,0 hPa 0,0 l/m² 3,2 km/h (1 Bft) O 90 ° 0 min 0 W/m² 1,8 °C 3,3 °C 4,8 km/h (1 Bft)
31.12.2023 07:17 20,8 °C 3,4 °C 55 % 90 % 1008,1 hPa 0,0 l/m² 3,2 km/h (1 Bft) O 90 ° 0 min 0 W/m² 1,9 °C 3,4 °C 6,4 km/h (2 Bft)
31.12.2023 07:18 20,8 °C 3,4 °C 55 % 90 % 1008,1 hPa 0,0 l/m² 3,2 km/h (1 Bft) O 90 ° 0 min 0 W/m² 1,9 °C 3,4 °C 6,4 km/h (2 Bft)
31.12.2023 07:19 20,8 °C 3,4 °C 55 % 90 % 1008,1 hPa 0,0 l/m² 3,2 km/h (1 Bft) O 90 ° 0 min 0 W/m² 1,9 °C 3,4 °C 4,8 km/h (1 Bft)
31.12.2023 07:20 20,8 °C 3,4 °C 55 % 90 % 1008,1 hPa 0,0 l/m² 1,6 km/h (1 Bft) O 90 ° 0 min 0 W/m² 1,9 °C 3,4 °C 3,2 km/h (1 Bft)
31.12.2023 07:21 20,8 °C 3,4 °C 55 % 90 % 1008,1 hPa 0,0 l/m² 1,6 km/h (1 Bft) O 90 ° 0 min 0 W/m² 1,9 °C 3,4 °C 3,2 km/h (1 Bft)
31.12.2023 07:22 20,8 °C 3,4 °C 55 % 90 % 1008,2 hPa 0,0 l/m² 1,6 km/h (1 Bft) O 90 ° 0 min 0 W/m² 1,9 °C 3,4 °C 3,2 km/h (1 Bft)
31.12.2023 07:23 20,8 °C 3,4 °C 55 % 90 % 1008,2 hPa 0,0 l/m² 1,6 km/h (1 Bft) O 90 ° 0 min 0 W/m² 1,9 °C 3,4 °C 3,2 km/h (1 Bft)
31.12.2023 07:24 20,8 °C 3,4 °C 55 % 90 % 1008,2 hPa 0,0 l/m² 0,0 km/h (0 Bft) O 90 ° 0 min 0 W/m² 1,9 °C 3,4 °C 1,6 km/h (1 Bft)
31.12.2023 07:25 20,8 °C 3,4 °C 55 % 90 % 1008,2 hPa 0,0 l/m² 0,0 km/h (0 Bft) N 0 ° 0 min 0 W/m² 1,9 °C 3,4 °C 0,0 km/h (0 Bft)
31.12.2023 07:26 20,8 °C 3,4 °C 55 % 90 % 1008,2 hPa 0,0 l/m² 0,0 km/h (0 Bft) N 0 ° 0 min 0 W/m² 1,9 °C 3,4 °C 0,0 km/h (0 Bft)
31.12.2023 07:27 20,8 °C 3,4 °C 55 % 90 % 1008,2 hPa 0,0 l/m² 1,6 km/h (1 Bft) O 90 ° 0 min 0 W/m² 1,9 °C 3,4 °C 1,6 km/h (1 Bft)
31.12.2023 07:28 20,8 °C 3,4 °C 55 % 90 % 1008,2 hPa 0,0 l/m² 3,2 km/h (1 Bft) O 90 ° 0 min 0 W/m² 1,9 °C 3,4 °C 4,8 km/h (1 Bft)
31.12.2023 07:29 20,8 °C 3,4 °C 55 % 90 % 1008,2 hPa 0,0 l/m² 4,8 km/h (1 Bft) NO 45 ° 0 min 0 W/m² 1,9 °C 3,4 °C 4,8 km/h (1 Bft)
31.12.2023 07:30 20,8 °C 3,3 °C 55 % 90 % 1008,2 hPa 0,0 l/m² 3,2 km/h (1 Bft) NO 45 ° 0 min 0 W/m² 1,8 °C 3,3 °C 4,8 km/h (1 Bft)
31.12.2023 07:31 20,8 °C 3,3 °C 55 % 90 % 1008,2 hPa 0,0 l/m² 3,2 km/h (1 Bft) NO 45 ° 0 min 0 W/m² 1,8 °C 3,3 °C 4,8 km/h (1 Bft)
31.12.2023 07:32 20,8 °C 3,3 °C 55 % 90 % 1008,2 hPa 0,0 l/m² 0,0 km/h (0 Bft) NO 45 ° 0 min 0 W/m² 1,8 °C 3,3 °C 3,2 km/h (1 Bft)
31.12.2023 07:33 20,8 °C 3,2 °C 55 % 90 % 1008,2 hPa 0,0 l/m² 0,0 km/h (0 Bft) N 0 ° 0 min 0 W/m² 1,7 °C 3,2 °C 0,0 km/h (0 Bft)
31.12.2023 07:34 20,8 °C 3,2 °C 55 % 90 % 1008,2 hPa 0,0 l/m² 0,0 km/h (0 Bft) N 0 ° 0 min 0 W/m² 1,7 °C 3,2 °C 0,0 km/h (0 Bft)
31.12.2023 07:35 20,8 °C 3,2 °C 55 % 90 % 1008,2 hPa 0,0 l/m² 0,0 km/h (0 Bft) N 0 ° 0 min 0 W/m² 1,7 °C 3,2 °C 0,0 km/h (0 Bft)
31.12.2023 07:36 20,8 °C 3,2 °C 55 % 90 % 1008,2 hPa 0,0 l/m² 0,0 km/h (0 Bft) N 0 ° 0 min 0 W/m² 1,7 °C 3,2 °C 0,0 km/h (0 Bft)
31.12.2023 07:37 20,8 °C 3,2 °C 55 % 90 % 1008,2 hPa 0,0 l/m² 0,0 km/h (0 Bft) N 0 ° 0 min 0 W/m² 1,7 °C 3,2 °C 0,0 km/h (0 Bft)
31.12.2023 07:38 20,8 °C 3,2 °C 55 % 90 % 1008,2 hPa 0,0 l/m² 0,0 km/h (0 Bft) N 0 ° 0 min 0 W/m² 1,7 °C 3,2 °C 0,0 km/h (0 Bft)
31.12.2023 07:39 20,8 °C 3,2 °C 55 % 90 % 1008,2 hPa 0,0 l/m² 1,6 km/h (1 Bft) NO 45 ° 0 min 0 W/m² 1,7 °C 3,2 °C 1,6 km/h (1 Bft)
31.12.2023 07:40 20,8 °C 3,2 °C 55 % 90 % 1008,2 hPa 0,0 l/m² 1,6 km/h (1 Bft) NO 45 ° 0 min 0 W/m² 1,7 °C 3,2 °C 3,2 km/h (1 Bft)
31.12.2023 07:41 20,8 °C 3,2 °C 55 % 90 % 1008,2 hPa 0,0 l/m² 1,6 km/h (1 Bft) NO 45 ° 0 min 0 W/m² 1,7 °C 3,2 °C 3,2 km/h (1 Bft)
31.12.2023 07:42 20,8 °C 3,2 °C 55 % 90 % 1008,1 hPa 0,0 l/m² 0,0 km/h (0 Bft) NO 45 ° 0 min 0 W/m² 1,7 °C 3,2 °C 3,2 km/h (1 Bft)
31.12.2023 07:43 20,8 °C 3,2 °C 55 % 90 % 1008,1 hPa 0,0 l/m² 0,0 km/h (0 Bft) NO 45 ° 0 min 0 W/m² 1,7 °C 3,2 °C 1,6 km/h (1 Bft)
31.12.2023 07:44 20,8 °C 3,1 °C 55 % 90 % 1008,2 hPa 0,0 l/m² 1,6 km/h (1 Bft) NO 45 ° 0 min 0 W/m² 1,6 °C 3,1 °C 3,2 km/h (1 Bft)
31.12.2023 07:45 20,8 °C 3,2 °C 55 % 90 % 1008,1 hPa 0,0 l/m² 1,6 km/h (1 Bft) NO 45 ° 0 min 0 W/m² 1,7 °C 3,2 °C 4,8 km/h (1 Bft)
31.12.2023 07:46 20,8 °C 3,1 °C 55 % 90 % 1008,1 hPa 0,0 l/m² 4,8 km/h (1 Bft) NO 45 ° 0 min 0 W/m² 1,6 °C 3,1 °C 8,0 km/h (2 Bft)
31.12.2023 07:47 20,8 °C 3,1 °C 55 % 90 % 1008,1 hPa 0,0 l/m² 4,8 km/h (1 Bft) S-SO 157 ° 0 min 0 W/m² 1,6 °C 3,1 °C 8,0 km/h (2 Bft)
31.12.2023 07:48 20,8 °C 3,1 °C 55 % 90 % 1008,0 hPa 0,0 l/m² 3,2 km/h (1 Bft) S-SO 157 ° 0 min 0 W/m² 1,6 °C 3,1 °C 6,4 km/h (2 Bft)
31.12.2023 07:49 20,8 °C 3,1 °C 55 % 90 % 1008,0 hPa 0,0 l/m² 3,2 km/h (1 Bft) S-SO 157 ° 0 min 0 W/m² 1,6 °C 3,1 °C 6,4 km/h (2 Bft)
31.12.2023 07:50 20,8 °C 3,1 °C 55 % 90 % 1008,0 hPa 0,0 l/m² 3,2 km/h (1 Bft) S-SO 157 ° 0 min 0 W/m² 1,6 °C 3,1 °C 4,8 km/h (1 Bft)
31.12.2023 07:51 20,8 °C 3,1 °C 55 % 90 % 1008,1 hPa 0,0 l/m² 1,6 km/h (1 Bft) S-SO 157 ° 0 min 0 W/m² 1,6 °C 3,1 °C 3,2 km/h (1 Bft)
31.12.2023 07:52 20,8 °C 3,1 °C 54 % 90 % 1008,0 hPa 0,0 l/m² 3,2 km/h (1 Bft) S-SO 157 ° 0 min 0 W/m² 1,6 °C 3,1 °C 6,4 km/h (2 Bft)
31.12.2023 07:53 20,8 °C 3,1 °C 55 % 90 % 1008,1 hPa 0,0 l/m² 3,2 km/h (1 Bft) SO 135 ° 0 min 0 W/m² 1,6 °C 3,1 °C 4,8 km/h (1 Bft)
31.12.2023 07:54 20,8 °C 3,1 °C 54 % 91 % 1008,0 hPa 0,0 l/m² 4,8 km/h (1 Bft) SO 135 ° 0 min 0 W/m² 1,8 °C 3,1 °C 6,4 km/h (2 Bft)
31.12.2023 07:55 20,8 °C 3,2 °C 54 % 91 % 1008,0 hPa 0,0 l/m² 6,4 km/h (2 Bft) SO 135 ° 0 min 0 W/m² 1,9 °C 3,2 °C 6,4 km/h (2 Bft)
31.12.2023 07:56 20,8 °C 3,2 °C 54 % 91 % 1008,0 hPa 0,0 l/m² 6,4 km/h (2 Bft) SO 135 ° 0 min 0 W/m² 1,9 °C 3,2 °C 8,0 km/h (2 Bft)
31.12.2023 07:57 20,8 °C 3,2 °C 54 % 91 % 1007,9 hPa 0,0 l/m² 6,4 km/h (2 Bft) O-SO 112 ° 0 min 0 W/m² 1,9 °C 3,2 °C 11,3 km/h (2 Bft)
31.12.2023 07:58 20,8 °C 3,3 °C 55 % 91 % 1008,0 hPa 0,0 l/m² 3,2 km/h (1 Bft) O-SO 112 ° 0 min 0 W/m² 2,0 °C 3,3 °C 4,8 km/h (1 Bft)
31.12.2023 07:59 20,8 °C 3,3 °C 54 % 91 % 1008,0 hPa 0,0 l/m² 4,8 km/h (1 Bft) O-SO 112 ° 0 min 0 W/m² 2,0 °C 3,3 °C 4,8 km/h (1 Bft)
31.12.2023 08:00 20,8 °C 3,3 °C 54 % 91 % 1008,0 hPa 0,0 l/m² 4,8 km/h (1 Bft) O-SO 112 ° 0 min 0 W/m² 2,0 °C 3,3 °C 6,4 km/h (2 Bft)
31.12.2023 08:01 20,8 °C 3,3 °C 54 % 91 % 1008,0 hPa 0,0 l/m² 6,4 km/h (2 Bft) O-SO 112 ° 0 min 0 W/m² 2,0 °C 3,3 °C 9,7 km/h (2 Bft)
31.12.2023 08:02 20,8 °C 3,3 °C 54 % 91 % 1008,0 hPa 0,0 l/m² 4,8 km/h (1 Bft) O-SO 112 ° 0 min 0 W/m² 2,0 °C 3,3 °C 6,4 km/h (2 Bft)
31.12.2023 08:03 20,8 °C 3,4 °C 55 % 91 % 1008,0 hPa 0,0 l/m² 4,8 km/h (1 Bft) O-SO 112 ° 0 min 0 W/m² 2,1 °C 3,4 °C 8,0 km/h (2 Bft)
31.12.2023 08:04 20,8 °C 3,4 °C 54 % 91 % 1007,9 hPa 0,0 l/m² 6,4 km/h (2 Bft) O-SO 112 ° 0 min 0 W/m² 2,1 °C 3,4 °C 11,3 km/h (2 Bft)
31.12.2023 08:05 20,8 °C 3,4 °C 54 % 91 % 1007,9 hPa 0,0 l/m² 6,4 km/h (2 Bft) SO 135 ° 0 min 0 W/m² 2,1 °C 3,4 °C 12,9 km/h (3 Bft)
31.12.2023 08:06 20,8 °C 3,5 °C 54 % 91 % 1008,0 hPa 0,0 l/m² 4,8 km/h (1 Bft) SO 135 ° 0 min 0 W/m² 2,2 °C 3,5 °C 11,3 km/h (2 Bft)
31.12.2023 08:07 20,8 °C 3,5 °C 54 % 91 % 1007,9 hPa 0,0 l/m² 4,8 km/h (1 Bft) SO 135 ° 0 min 0 W/m² 2,2 °C 3,5 °C 6,4 km/h (2 Bft)
31.12.2023 08:08 20,8 °C 3,6 °C 54 % 91 % 1007,9 hPa 0,0 l/m² 4,8 km/h (1 Bft) SO 135 ° 0 min 0 W/m² 2,3 °C 3,6 °C 11,3 km/h (2 Bft)
31.12.2023 08:09 20,8 °C 3,6 °C 54 % 91 % 1007,9 hPa 0,0 l/m² 4,8 km/h (1 Bft) SO 135 ° 0 min 0 W/m² 2,3 °C 3,6 °C 6,4 km/h (2 Bft)
31.12.2023 08:10 20,8 °C 3,6 °C 54 % 91 % 1007,8 hPa 0,0 l/m² 4,8 km/h (1 Bft) SO 135 ° 0 min 0 W/m² 2,3 °C 3,6 °C 6,4 km/h (2 Bft)
31.12.2023 08:11 20,8 °C 3,6 °C 54 % 91 % 1007,9 hPa 0,0 l/m² 6,4 km/h (2 Bft) O-SO 112 ° 0 min 0 W/m² 2,3 °C 3,6 °C 11,3 km/h (2 Bft)
31.12.2023 08:12 20,8 °C 3,6 °C 54 % 91 % 1007,9 hPa 0,0 l/m² 6,4 km/h (2 Bft) O-SO 112 ° 0 min 0 W/m² 2,3 °C 3,6 °C 11,3 km/h (2 Bft)
31.12.2023 08:13 20,8 °C 3,6 °C 54 % 91 % 1007,9 hPa 0,0 l/m² 4,8 km/h (1 Bft) O-SO 112 ° 0 min 0 W/m² 2,3 °C 3,6 °C 9,7 km/h (2 Bft)
31.12.2023 08:14 20,8 °C 3,7 °C 54 % 91 % 1007,9 hPa 0,0 l/m² 6,4 km/h (2 Bft) O-SO 112 ° 0 min 0 W/m² 2,4 °C 3,7 °C 9,7 km/h (2 Bft)
31.12.2023 08:15 20,9 °C 3,7 °C 54 % 91 % 1007,8 hPa 0,0 l/m² 9,7 km/h (2 Bft) SO 135 ° 0 min 0 W/m² 2,4 °C 0,9 °C 14,5 km/h (3 Bft)
31.12.2023 08:16 20,8 °C 3,7 °C 54 % 91 % 1007,8 hPa 0,0 l/m² 8,0 km/h (2 Bft) O-SO 112 ° 0 min 0 W/m² 2,4 °C 2,2 °C 12,9 km/h (3 Bft)
31.12.2023 08:24 20,9 °C 3,8 °C 54 % 91 % 1007,8 hPa 0,0 l/m² 4,1 km/h (1 Bft) SO 124 ° 0 min 0 W/m² 2,5 °C 3,8 °C 8,0 km/h (2 Bft)
31.12.2023 08:25 20,9 °C 3,8 °C 54 % 91 % 1007,8 hPa 0,0 l/m² 1,3 km/h (1 Bft) SO 124 ° 0 min 5 W/m² 2,5 °C 3,8 °C 3,2 km/h (1 Bft)
31.12.2023 08:26 20,9 °C 3,9 °C 54 % 91 % 1007,7 hPa 0,0 l/m² 2,1 km/h (1 Bft) SO 124 ° 0 min 5 W/m² 2,6 °C 3,9 °C 3,2 km/h (1 Bft)
31.12.2023 08:27 21,0 °C 3,9 °C 54 % 91 % 1007,8 hPa 0,0 l/m² 2,7 km/h (1 Bft) SO 124 ° 0 min 5 W/m² 2,6 °C 3,9 °C 4,8 km/h (1 Bft)
31.12.2023 08:28 21,0 °C 3,9 °C 54 % 91 % 1007,8 hPa 0,0 l/m² 5,0 km/h (1 Bft) O 98 ° 0 min 5 W/m² 2,6 °C 3,9 °C 9,7 km/h (2 Bft)
31.12.2023 08:30 21,0 °C 3,9 °C 54 % 91 % 1007,7 hPa 0,0 l/m² 2,6 km/h (1 Bft) O 97 ° 0 min 7 W/m² 2,6 °C 3,9 °C 6,4 km/h (2 Bft)
31.12.2023 08:31 21,0 °C 3,9 °C 54 % 91 % 1007,7 hPa 0,0 l/m² 3,0 km/h (1 Bft) O 95 ° 0 min 9 W/m² 2,6 °C 3,9 °C 4,8 km/h (1 Bft)
31.12.2023 08:32 21,0 °C 3,9 °C 54 % 91 % 1007,8 hPa 0,0 l/m² 4,5 km/h (1 Bft) O 86 ° 0 min 9 W/m² 2,6 °C 3,9 °C 6,4 km/h (2 Bft)
31.12.2023 08:33 21,0 °C 3,9 °C 54 % 91 % 1007,6 hPa 0,0 l/m² 4,2 km/h (1 Bft) O 84 ° 0 min 9 W/m² 2,6 °C 3,9 °C 6,4 km/h (2 Bft)
31.12.2023 08:34 21,0 °C 3,9 °C 54 % 91 % 1007,6 hPa 0,0 l/m² 3,4 km/h (1 Bft) O 84 ° 0 min 11 W/m² 2,6 °C 3,9 °C 4,8 km/h (1 Bft)
31.12.2023 08:36 21,0 °C 3,8 °C 54 % 91 % 1007,7 hPa 0,0 l/m² 4,0 km/h (1 Bft) O 80 ° 0 min 12 W/m² 2,5 °C 3,8 °C 6,4 km/h (2 Bft)
31.12.2023 08:38 21,1 °C 3,8 °C 54 % 91 % 1007,6 hPa 0,0 l/m² 3,6 km/h (1 Bft) O 79 ° 0 min 14 W/m² 2,5 °C 3,8 °C 4,8 km/h (1 Bft)
31.12.2023 08:40 21,1 °C 3,8 °C 54 % 91 % 1007,6 hPa 0,0 l/m² 3,7 km/h (1 Bft) O-NO 78 ° 0 min 16 W/m² 2,5 °C 3,8 °C 6,4 km/h (2 Bft)
31.12.2023 08:41 21,1 °C 3,8 °C 54 % 90 % 1007,5 hPa 0,0 l/m² 3,4 km/h (1 Bft) O-NO 77 ° 0 min 16 W/m² 2,3 °C 3,8 °C 6,4 km/h (2 Bft)
31.12.2023 08:42 21,1 °C 3,8 °C 54 % 90 % 1007,6 hPa 0,0 l/m² 3,1 km/h (1 Bft) O-NO 77 ° 0 min 18 W/m² 2,3 °C 3,8 °C 4,8 km/h (1 Bft)
31.12.2023 08:43 21,1 °C 3,8 °C 54 % 90 % 1007,6 hPa 0,0 l/m² 2,7 km/h (1 Bft) O-NO 77 ° 0 min 19 W/m² 2,3 °C 3,8 °C 4,8 km/h (1 Bft)
31.12.2023 08:44 21,1 °C 3,8 °C 54 % 90 % 1007,7 hPa 0,0 l/m² 2,8 km/h (1 Bft) O-NO 76 ° 0 min 19 W/m² 2,3 °C 3,8 °C 4,8 km/h (1 Bft)
31.12.2023 08:46 21,1 °C 3,7 °C 54 % 90 % 1007,8 hPa 0,0 l/m² 2,2 km/h (1 Bft) O-NO 76 ° 0 min 21 W/m² 2,2 °C 3,7 °C 4,8 km/h (1 Bft)
31.12.2023 08:48 21,1 °C 3,7 °C 54 % 90 % 1007,8 hPa 0,0 l/m² 1,4 km/h (1 Bft) O-NO 76 ° 0 min 23 W/m² 2,2 °C 3,7 °C 3,2 km/h (1 Bft)
31.12.2023 08:50 21,1 °C 3,7 °C 54 % 90 % 1007,7 hPa 0,0 l/m² 2,7 km/h (1 Bft) O-NO 76 ° 0 min 25 W/m² 2,2 °C 3,7 °C 4,8 km/h (1 Bft)
31.12.2023 08:51 21,1 °C 3,7 °C 54 % 90 % 1007,7 hPa 0,0 l/m² 3,0 km/h (1 Bft) O-NO 76 ° 0 min 26 W/m² 2,2 °C 3,7 °C 3,2 km/h (1 Bft)
31.12.2023 08:52 21,1 °C 3,7 °C 54 % 90 % 1007,6 hPa 0,0 l/m² 2,7 km/h (1 Bft) O-NO 76 ° 0 min 26 W/m² 2,2 °C 3,7 °C 3,2 km/h (1 Bft)
31.12.2023 08:53 21,1 °C 3,7 °C 55 % 90 % 1007,5 hPa 0,0 l/m² 3,1 km/h (1 Bft) O-NO 76 ° 0 min 26 W/m² 2,2 °C 3,7 °C 4,8 km/h (1 Bft)
31.12.2023 08:54 21,1 °C 3,7 °C 55 % 90 % 1007,5 hPa 0,0 l/m² 2,4 km/h (1 Bft) O-NO 76 ° 0 min 28 W/m² 2,2 °C 3,7 °C 3,2 km/h (1 Bft)
31.12.2023 08:56 21,1 °C 3,7 °C 55 % 90 % 1007,4 hPa 0,0 l/m² 3,1 km/h (1 Bft) O-NO 76 ° 0 min 28 W/m² 2,2 °C 3,7 °C 4,8 km/h (1 Bft)
31.12.2023 08:58 21,1 °C 3,7 °C 55 % 90 % 1007,4 hPa 0,0 l/m² 3,5 km/h (1 Bft) O-NO 76 ° 0 min 30 W/m² 2,2 °C 3,7 °C 4,8 km/h (1 Bft)
31.12.2023 09:00 21,1 °C 3,6 °C 55 % 90 % 1007,3 hPa 0,0 l/m² 3,6 km/h (1 Bft) O-NO 76 ° 0 min 33 W/m² 2,1 °C 3,6 °C 6,4 km/h (2 Bft)
31.12.2023 09:01 21,1 °C 3,7 °C 55 % 90 % 1007,4 hPa 0,0 l/m² 2,4 km/h (1 Bft) O-NO 76 ° 0 min 35 W/m² 2,2 °C 3,7 °C 3,2 km/h (1 Bft)
31.12.2023 09:02 21,1 °C 3,6 °C 55 % 90 % 1007,5 hPa 0,0 l/m² 2,8 km/h (1 Bft) O-NO 76 ° 0 min 37 W/m² 2,1 °C 3,6 °C 4,8 km/h (1 Bft)
31.12.2023 09:04 21,1 °C 3,7 °C 55 % 90 % 1007,4 hPa 0,0 l/m² 2,2 km/h (1 Bft) O-NO 76 ° 0 min 39 W/m² 2,2 °C 3,7 °C 4,8 km/h (1 Bft)
31.12.2023 09:05 21,1 °C 3,7 °C 55 % 91 % 1007,3 hPa 0,0 l/m² 2,1 km/h (1 Bft) O-NO 76 ° 0 min 40 W/m² 2,4 °C 3,7 °C 4,8 km/h (1 Bft)
31.12.2023 09:07 21,1 °C 3,7 °C 55 % 91 % 1007,3 hPa 0,0 l/m² 2,9 km/h (1 Bft) O-NO 76 ° 0 min 40 W/m² 2,4 °C 3,7 °C 4,8 km/h (1 Bft)
31.12.2023 09:09 21,1 °C 3,7 °C 55 % 90 % 1007,2 hPa 0,0 l/m² 3,0 km/h (1 Bft) O-NO 76 ° 0 min 42 W/m² 2,2 °C 3,7 °C 4,8 km/h (1 Bft)
31.12.2023 09:10 21,2 °C 3,7 °C 55 % 90 % 1007,2 hPa 0,0 l/m² 3,2 km/h (1 Bft) O-NO 76 ° 0 min 44 W/m² 2,2 °C 3,7 °C 4,8 km/h (1 Bft)
31.12.2023 09:11 21,2 °C 3,7 °C 55 % 90 % 1007,2 hPa 0,0 l/m² 3,2 km/h (1 Bft) O-NO 76 ° 0 min 44 W/m² 2,2 °C 3,7 °C 4,8 km/h (1 Bft)
31.12.2023 09:12 21,2 °C 3,7 °C 55 % 90 % 1007,3 hPa 0,0 l/m² 4,0 km/h (1 Bft) O-NO 76 ° 0 min 46 W/m² 2,2 °C 3,7 °C 6,4 km/h (2 Bft)
31.12.2023 09:13 21,1 °C 3,7 °C 55 % 91 % 1007,3 hPa 0,0 l/m² 1,5 km/h (1 Bft) O-NO 76 ° 0 min 46 W/m² 2,4 °C 3,7 °C 3,2 km/h (1 Bft)
31.12.2023 09:14 21,2 °C 3,7 °C 55 % 91 % 1007,3 hPa 0,0 l/m² 0,5 km/h (0 Bft) O-NO 76 ° 0 min 47 W/m² 2,4 °C 3,7 °C 3,2 km/h (1 Bft)
31.12.2023 09:16 21,2 °C 3,8 °C 55 % 91 % 1007,3 hPa 0,0 l/m² 0,2 km/h (0 Bft) O-NO 76 ° 0 min 49 W/m² 2,5 °C 3,8 °C 1,6 km/h (1 Bft)
31.12.2023 09:18 21,2 °C 3,8 °C 55 % 91 % 1007,3 hPa 0,0 l/m² 0,2 km/h (0 Bft) O-NO 76 ° 0 min 49 W/m² 2,5 °C 3,8 °C 1,6 km/h (1 Bft)
31.12.2023 09:20 21,2 °C 3,8 °C 55 % 91 % 1007,3 hPa 0,0 l/m² 0,9 km/h (0 Bft) O-NO 76 ° 0 min 51 W/m² 2,5 °C 3,8 °C 4,8 km/h (1 Bft)
31.12.2023 09:21 21,2 °C 3,8 °C 55 % 91 % 1007,3 hPa 0,0 l/m² 1,0 km/h (0 Bft) O-NO 76 ° 0 min 51 W/m² 2,5 °C 3,8 °C 3,2 km/h (1 Bft)
31.12.2023 09:22 21,2 °C 3,8 °C 55 % 91 % 1007,4 hPa 0,0 l/m² 0,4 km/h (0 Bft) O-NO 76 ° 0 min 51 W/m² 2,5 °C 3,8 °C 1,6 km/h (1 Bft)
31.12.2023 09:23 21,2 °C 3,8 °C 56 % 91 % 1007,6 hPa 0,0 l/m² 0,0 km/h (0 Bft) O-NO 76 ° 1 min 53 W/m² 2,5 °C 3,8 °C 0,0 km/h (0 Bft)
31.12.2023 09:24 21,2 °C 3,8 °C 55 % 91 % 1007,5 hPa 0,0 l/m² 0,0 km/h (0 Bft) O-NO 76 ° 1 min 53 W/m² 2,5 °C 3,8 °C 0,0 km/h (0 Bft)
31.12.2023 09:26 21,2 °C 3,8 °C 56 % 91 % 1007,5 hPa 0,0 l/m² 0,0 km/h (0 Bft) O-NO 76 ° 2 min 53 W/m² 2,5 °C 3,8 °C 0,0 km/h (0 Bft)
31.12.2023 09:28 21,2 °C 3,8 °C 56 % 91 % 1007,5 hPa 0,0 l/m² 0,0 km/h (0 Bft) O-NO 76 ° 2 min 56 W/m² 2,5 °C 3,8 °C 0,0 km/h (0 Bft)
31.12.2023 09:30 21,2 °C 3,8 °C 56 % 90 % 1007,6 hPa 0,0 l/m² 0,0 km/h (0 Bft) O-NO 76 ° 2 min 58 W/m² 2,3 °C 3,8 °C 0,0 km/h (0 Bft)
31.12.2023 09:31 21,2 °C 3,8 °C 56 % 91 % 1007,5 hPa 0,0 l/m² 0,0 km/h (0 Bft) O-NO 76 ° 1 min 58 W/m² 2,5 °C 3,8 °C 0,0 km/h (0 Bft)
31.12.2023 09:32 21,3 °C 3,8 °C 56 % 90 % 1007,4 hPa 0,0 l/m² 0,0 km/h (0 Bft) O-NO 76 ° 1 min 58 W/m² 2,3 °C 3,8 °C 0,0 km/h (0 Bft)
31.12.2023 09:33 21,2 °C 3,8 °C 56 % 90 % 1007,3 hPa 0,0 l/m² 0,0 km/h (0 Bft) O-NO 76 ° 1 min 60 W/m² 2,3 °C 3,8 °C 0,0 km/h (0 Bft)
31.12.2023 09:34 21,2 °C 3,8 °C 56 % 90 % 1007,4 hPa 0,0 l/m² 0,4 km/h (0 Bft) O-NO 76 ° 1 min 62 W/m² 2,3 °C 3,8 °C 1,6 km/h (1 Bft)
31.12.2023 09:36 21,3 °C 3,8 °C 56 % 90 % 1007,4 hPa 0,0 l/m² 1,2 km/h (1 Bft) O-NO 76 ° 2 min 63 W/m² 2,3 °C 3,8 °C 3,2 km/h (1 Bft)
31.12.2023 09:38 21,3 °C 3,8 °C 56 % 91 % 1007,3 hPa 0,0 l/m² 2,4 km/h (1 Bft) O-NO 76 ° 2 min 65 W/m² 2,5 °C 3,8 °C 4,8 km/h (1 Bft)
31.12.2023 09:40 21,3 °C 3,8 °C 56 % 90 % 1007,2 hPa 0,0 l/m² 3,7 km/h (1 Bft) O-NO 76 ° 2 min 70 W/m² 2,3 °C 3,8 °C 6,4 km/h (2 Bft)
31.12.2023 09:41 21,3 °C 3,8 °C 56 % 91 % 1007,2 hPa 0,0 l/m² 5,4 km/h (2 Bft) O-NO 76 ° 1 min 72 W/m² 2,5 °C 3,8 °C 6,4 km/h (2 Bft)
31.12.2023 09:42 21,3 °C 3,9 °C 56 % 91 % 1007,2 hPa 0,0 l/m² 5,4 km/h (2 Bft) O-NO 76 ° 1 min 72 W/m² 2,6 °C 3,9 °C 6,4 km/h (2 Bft)
31.12.2023 09:43 21,3 °C 4,0 °C 56 % 91 % 1007,2 hPa 0,0 l/m² 4,2 km/h (1 Bft) O-NO 76 ° 1 min 72 W/m² 2,7 °C 4,0 °C 4,8 km/h (1 Bft)
31.12.2023 09:44 21,3 °C 4,1 °C 56 % 91 % 1007,2 hPa 0,0 l/m² 4,8 km/h (1 Bft) O-NO 76 ° 1 min 74 W/m² 2,8 °C 4,1 °C 6,4 km/h (2 Bft)
31.12.2023 09:47 21,3 °C 4,2 °C 56 % 91 % 1007,1 hPa 0,0 l/m² 4,2 km/h (1 Bft) O-NO 76 ° 3 min 79 W/m² 2,9 °C 4,2 °C 6,4 km/h (2 Bft)
31.12.2023 09:49 21,3 °C 4,2 °C 56 % 91 % 1007,1 hPa 0,0 l/m² 5,5 km/h (2 Bft) O-NO 76 ° 2 min 83 W/m² 2,9 °C 4,2 °C 8,0 km/h (2 Bft)
31.12.2023 09:50 21,3 °C 4,3 °C 56 % 91 % 1007,1 hPa 0,0 l/m² 7,1 km/h (2 Bft) O-NO 76 ° 1 min 83 W/m² 3,0 °C 3,7 °C 8,0 km/h (2 Bft)
31.12.2023 09:51 21,4 °C 4,4 °C 56 % 91 % 1007,1 hPa 0,0 l/m² 6,2 km/h (2 Bft) O-NO 76 ° 1 min 84 W/m² 3,1 °C 4,4 °C 8,0 km/h (2 Bft)
31.12.2023 09:52 21,4 °C 4,4 °C 56 % 91 % 1007,0 hPa 0,0 l/m² 6,9 km/h (2 Bft) O-NO 76 ° 1 min 86 W/m² 3,1 °C 4,0 °C 11,3 km/h (2 Bft)
31.12.2023 09:53 21,4 °C 4,6 °C 56 % 91 % 1007,1 hPa 0,0 l/m² 5,2 km/h (1 Bft) O-NO 76 ° 1 min 86 W/m² 3,3 °C 4,6 °C 6,4 km/h (2 Bft)
31.12.2023 09:54 21,4 °C 4,6 °C 56 % 91 % 1007,1 hPa 0,0 l/m² 5,5 km/h (2 Bft) O-NO 76 ° 1 min 86 W/m² 3,3 °C 4,6 °C 8,0 km/h (2 Bft)
31.12.2023 09:56 21,4 °C 4,7 °C 56 % 91 % 1007,0 hPa 0,0 l/m² 2,4 km/h (1 Bft) O-NO 76 ° 2 min 88 W/m² 3,4 °C 4,7 °C 4,8 km/h (1 Bft)
31.12.2023 09:58 21,4 °C 4,8 °C 56 % 91 % 1007,0 hPa 0,0 l/m² 3,5 km/h (1 Bft) O-NO 76 ° 2 min 88 W/m² 3,5 °C 4,8 °C 6,4 km/h (2 Bft)
31.12.2023 10:00 21,4 °C 4,9 °C 56 % 91 % 1007,0 hPa 0,0 l/m² 4,3 km/h (1 Bft) O-NO 76 ° 2 min 86 W/m² 3,6 °C 4,9 °C 8,0 km/h (2 Bft)
31.12.2023 10:01 21,4 °C 5,0 °C 56 % 91 % 1007,0 hPa 0,0 l/m² 5,0 km/h (1 Bft) O-NO 76 ° 1 min 86 W/m² 3,7 °C 5,0 °C 6,4 km/h (2 Bft)
31.12.2023 10:02 21,4 °C 5,0 °C 56 % 90 % 1006,9 hPa 0,0 l/m² 4,5 km/h (1 Bft) O-NO 76 ° 1 min 88 W/m² 3,5 °C 5,0 °C 6,4 km/h (2 Bft)
31.12.2023 10:03 21,5 °C 5,1 °C 56 % 90 % 1006,9 hPa 0,0 l/m² 5,7 km/h (2 Bft) O-NO 77 ° 1 min 86 W/m² 3,6 °C 5,1 °C 8,0 km/h (2 Bft)
31.12.2023 10:04 21,4 °C 5,1 °C 56 % 90 % 1007,0 hPa 0,0 l/m² 5,7 km/h (2 Bft) O-NO 77 ° 1 min 86 W/m² 3,6 °C 5,1 °C 6,4 km/h (2 Bft)
31.12.2023 10:06 21,4 °C 5,2 °C 55 % 90 % 1006,9 hPa 0,0 l/m² 3,9 km/h (1 Bft) O-NO 77 ° 2 min 83 W/m² 3,7 °C 5,2 °C 6,4 km/h (2 Bft)
31.12.2023 10:08 21,4 °C 5,3 °C 56 % 90 % 1006,9 hPa 0,0 l/m² 4,6 km/h (1 Bft) O-NO 77 ° 2 min 83 W/m² 3,8 °C 5,3 °C 6,4 km/h (2 Bft)
31.12.2023 10:10 21,4 °C 5,3 °C 56 % 90 % 1006,9 hPa 0,0 l/m² 4,8 km/h (1 Bft) O-NO 77 ° 2 min 83 W/m² 3,8 °C 5,3 °C 6,4 km/h (2 Bft)
31.12.2023 10:11 21,5 °C 5,4 °C 56 % 90 % 1006,9 hPa 0,0 l/m² 4,0 km/h (1 Bft) O-NO 77 ° 1 min 83 W/m² 3,9 °C 5,4 °C 4,8 km/h (1 Bft)
31.12.2023 10:12 21,4 °C 5,3 °C 56 % 90 % 1006,9 hPa 0,0 l/m² 5,1 km/h (1 Bft) O-NO 77 ° 1 min 83 W/m² 3,8 °C 5,3 °C 6,4 km/h (2 Bft)
31.12.2023 10:13 21,4 °C 5,3 °C 56 % 89 % 1007,0 hPa 0,0 l/m² 4,8 km/h (1 Bft) O-NO 77 ° 1 min 84 W/m² 3,6 °C 5,3 °C 6,4 km/h (2 Bft)
31.12.2023 10:14 21,4 °C 5,4 °C 56 % 89 % 1006,9 hPa 0,0 l/m² 5,8 km/h (2 Bft) O-NO 77 ° 1 min 84 W/m² 3,7 °C 5,4 °C 6,4 km/h (2 Bft)
31.12.2023 10:16 21,4 °C 5,3 °C 56 % 89 % 1006,9 hPa 0,0 l/m² 6,6 km/h (2 Bft) O 80 ° 2 min 84 W/m² 3,6 °C 5,1 °C 8,0 km/h (2 Bft)
31.12.2023 10:18 21,5 °C 5,4 °C 56 % 89 % 1006,7 hPa 0,0 l/m² 7,7 km/h (2 Bft) O 81 ° 2 min 86 W/m² 3,7 °C 4,3 °C 11,3 km/h (2 Bft)
31.12.2023 10:20 21,4 °C 5,4 °C 56 % 89 % 1006,7 hPa 0,0 l/m² 6,5 km/h (2 Bft) O 84 ° 2 min 84 W/m² 3,7 °C 5,3 °C 8,0 km/h (2 Bft)
31.12.2023 10:21 21,5 °C 5,5 °C 56 % 89 % 1006,7 hPa 0,0 l/m² 5,1 km/h (1 Bft) O 84 ° 1 min 81 W/m² 3,8 °C 5,5 °C 8,0 km/h (2 Bft)
31.12.2023 10:22 21,5 °C 5,5 °C 56 % 89 % 1006,8 hPa 0,0 l/m² 6,3 km/h (2 Bft) O 84 ° 1 min 81 W/m² 3,8 °C 5,5 °C 8,0 km/h (2 Bft)
31.12.2023 10:23 21,5 °C 5,6 °C 56 % 89 % 1006,8 hPa 0,0 l/m² 6,6 km/h (2 Bft) O 86 ° 1 min 79 W/m² 3,9 °C 5,4 °C 8,0 km/h (2 Bft)
31.12.2023 10:24 21,4 °C 5,6 °C 56 % 89 % 1006,8 hPa 0,0 l/m² 4,7 km/h (1 Bft) O 86 ° 1 min 79 W/m² 3,9 °C 5,6 °C 8,0 km/h (2 Bft)
31.12.2023 10:26 21,5 °C 5,6 °C 56 % 90 % 1006,9 hPa 0,0 l/m² 3,9 km/h (1 Bft) O 86 ° 2 min 76 W/m² 4,1 °C 5,6 °C 6,4 km/h (2 Bft)
31.12.2023 10:28 21,5 °C 5,7 °C 55 % 89 % 1006,8 hPa 0,0 l/m² 4,8 km/h (1 Bft) O 88 ° 2 min 67 W/m² 4,0 °C 5,7 °C 8,0 km/h (2 Bft)
31.12.2023 10:30 21,4 °C 5,7 °C 56 % 89 % 1006,6 hPa 0,0 l/m² 6,5 km/h (2 Bft) O 88 ° 2 min 63 W/m² 4,0 °C 5,6 °C 8,0 km/h (2 Bft)
31.12.2023 10:31 21,4 °C 5,7 °C 56 % 89 % 1006,6 hPa 0,0 l/m² 6,0 km/h (2 Bft) O 82 ° 1 min 62 W/m² 4,0 °C 5,7 °C 11,3 km/h (2 Bft)
31.12.2023 10:32 21,4 °C 5,8 °C 56 % 89 % 1006,6 hPa 0,0 l/m² 8,7 km/h (2 Bft) O 82 ° 1 min 62 W/m² 4,1 °C 3,9 °C 11,3 km/h (2 Bft)
31.12.2023 10:33 21,4 °C 5,8 °C 56 % 89 % 1006,6 hPa 0,0 l/m² 8,1 km/h (2 Bft) O 86 ° 1 min 62 W/m² 4,1 °C 4,4 °C 11,3 km/h (2 Bft)
31.12.2023 10:34 21,4 °C 5,8 °C 56 % 89 % 1006,6 hPa 0,0 l/m² 9,5 km/h (2 Bft) O 88 ° 1 min 62 W/m² 4,1 °C 3,3 °C 11,3 km/h (2 Bft)
31.12.2023 10:36 21,4 °C 5,8 °C 56 % 89 % 1006,6 hPa 0,0 l/m² 6,5 km/h (2 Bft) O 92 ° 2 min 60 W/m² 4,1 °C 5,7 °C 9,7 km/h (2 Bft)
31.12.2023 10:38 21,4 °C 5,9 °C 56 % 89 % 1006,7 hPa 0,0 l/m² 4,6 km/h (1 Bft) O 92 ° 2 min 58 W/m² 4,2 °C 5,9 °C 9,7 km/h (2 Bft)
31.12.2023 10:40 21,4 °C 5,9 °C 56 % 89 % 1006,7 hPa 0,0 l/m² 4,8 km/h (1 Bft) O 92 ° 2 min 60 W/m² 4,2 °C 5,9 °C 6,4 km/h (2 Bft)
31.12.2023 10:41 21,4 °C 5,9 °C 56 % 89 % 1006,7 hPa 0,0 l/m² 5,2 km/h (1 Bft) O 92 ° 1 min 60 W/m² 4,2 °C 5,9 °C 6,4 km/h (2 Bft)
31.12.2023 10:42 21,4 °C 5,9 °C 56 % 89 % 1006,7 hPa 0,0 l/m² 4,1 km/h (1 Bft) O 92 ° 1 min 62 W/m² 4,2 °C 5,9 °C 4,8 km/h (1 Bft)
31.12.2023 10:43 21,4 °C 6,0 °C 56 % 89 % 1006,8 hPa 0,0 l/m² 8,1 km/h (2 Bft) O 94 ° 1 min 63 W/m² 4,3 °C 4,6 °C 9,7 km/h (2 Bft)
31.12.2023 10:44 21,4 °C 6,0 °C 56 % 89 % 1006,7 hPa 0,0 l/m² 6,8 km/h (2 Bft) O 98 ° 1 min 65 W/m² 4,3 °C 5,7 °C 11,3 km/h (2 Bft)
31.12.2023 10:46 21,4 °C 6,1 °C 56 % 89 % 1006,6 hPa 0,0 l/m² 6,6 km/h (2 Bft) O 99 ° 2 min 67 W/m² 4,4 °C 6,0 °C 9,7 km/h (2 Bft)
31.12.2023 10:48 21,4 °C 6,1 °C 56 % 89 % 1006,7 hPa 0,0 l/m² 5,4 km/h (2 Bft) O-SO 111 ° 2 min 70 W/m² 4,4 °C 6,1 °C 12,9 km/h (3 Bft)
31.12.2023 10:50 21,4 °C 6,1 °C 56 % 89 % 1006,8 hPa 0,0 l/m² 5,9 km/h (2 Bft) O-SO 112 ° 2 min 70 W/m² 4,4 °C 6,1 °C 9,7 km/h (2 Bft)
31.12.2023 10:51 21,4 °C 6,1 °C 56 % 89 % 1006,8 hPa 0,0 l/m² 6,4 km/h (2 Bft) O-SO 112 ° 1 min 70 W/m² 4,4 °C 6,1 °C 9,7 km/h (2 Bft)
31.12.2023 10:52 21,4 °C 6,1 °C 56 % 89 % 1006,7 hPa 0,0 l/m² 5,7 km/h (2 Bft) O-SO 112 ° 1 min 70 W/m² 4,4 °C 6,1 °C 6,4 km/h (2 Bft)
31.12.2023 10:53 21,4 °C 6,2 °C 56 % 88 % 1006,8 hPa 0,0 l/m² 5,6 km/h (2 Bft) O-SO 112 ° 1 min 70 W/m² 4,4 °C 6,2 °C 9,7 km/h (2 Bft)
31.12.2023 10:54 21,4 °C 6,2 °C 56 % 88 % 1006,7 hPa 0,0 l/m² 4,7 km/h (1 Bft) O-SO 112 ° 1 min 70 W/m² 4,4 °C 6,2 °C 6,4 km/h (2 Bft)
31.12.2023 10:56 21,4 °C 6,2 °C 56 % 88 % 1006,6 hPa 0,0 l/m² 6,6 km/h (2 Bft) O-SO 114 ° 2 min 69 W/m² 4,4 °C 6,1 °C 9,7 km/h (2 Bft)
31.12.2023 10:58 21,4 °C 6,3 °C 56 % 88 % 1006,6 hPa 0,0 l/m² 7,0 km/h (2 Bft) SO 125 ° 2 min 69 W/m² 4,5 °C 5,8 °C 12,9 km/h (3 Bft)
31.12.2023 11:00 21,4 °C 6,3 °C 56 % 88 % 1006,5 hPa 0,0 l/m² 7,5 km/h (2 Bft) O-SO 114 ° 2 min 63 W/m² 4,5 °C 5,4 °C 11,3 km/h (2 Bft)
31.12.2023 11:01 21,4 °C 6,3 °C 56 % 88 % 1006,4 hPa 0,0 l/m² 6,1 km/h (2 Bft) O-SO 115 ° 1 min 56 W/m² 4,5 °C 6,3 °C 9,7 km/h (2 Bft)
31.12.2023 11:02 21,4 °C 6,3 °C 56 % 88 % 1006,5 hPa 0,0 l/m² 4,6 km/h (1 Bft) O-SO 115 ° 1 min 54 W/m² 4,5 °C 6,3 °C 6,4 km/h (2 Bft)
31.12.2023 11:03 21,4 °C 6,3 °C 56 % 88 % 1006,4 hPa 0,0 l/m² 6,3 km/h (2 Bft) O-SO 115 ° 1 min 54 W/m² 4,5 °C 6,3 °C 9,7 km/h (2 Bft)
31.12.2023 11:04 21,4 °C 6,4 °C 55 % 88 % 1006,3 hPa 0,0 l/m² 7,2 km/h (2 Bft) O-SO 117 ° 1 min 53 W/m² 4,6 °C 5,7 °C 9,7 km/h (2 Bft)
31.12.2023 11:06 21,4 °C 6,4 °C 56 % 88 % 1006,3 hPa 0,0 l/m² 7,0 km/h (2 Bft) O-SO 115 ° 2 min 54 W/m² 4,6 °C 5,9 °C 9,7 km/h (2 Bft)
31.12.2023 11:08 21,3 °C 6,4 °C 55 % 88 % 1006,3 hPa 0,0 l/m² 7,7 km/h (2 Bft) O-SO 122 ° 0 min 51 W/m² 4,6 °C 5,3 °C 12,9 km/h (3 Bft)
31.12.2023 11:10 21,3 °C 6,4 °C 55 % 88 % 1006,3 hPa 0,0 l/m² 8,5 km/h (2 Bft) O-SO 115 ° 0 min 46 W/m² 4,6 °C 4,7 °C 12,9 km/h (3 Bft)
31.12.2023 11:11 21,3 °C 6,4 °C 55 % 88 % 1006,3 hPa 0,0 l/m² 10,3 km/h (2 Bft) O-SO 117 ° 0 min 46 W/m² 4,6 °C 3,4 °C 12,9 km/h (3 Bft)
31.12.2023 11:12 21,3 °C 6,5 °C 55 % 88 % 1006,2 hPa 0,0 l/m² 5,4 km/h (2 Bft) O-SO 117 ° 0 min 46 W/m² 4,7 °C 6,5 °C 6,4 km/h (2 Bft)
31.12.2023 11:13 21,3 °C 6,5 °C 55 % 88 % 1006,2 hPa 0,0 l/m² 5,5 km/h (2 Bft) O-SO 117 ° 0 min 46 W/m² 4,7 °C 6,5 °C 6,4 km/h (2 Bft)
31.12.2023 11:14 21,3 °C 6,5 °C 55 % 88 % 1006,3 hPa 0,0 l/m² 9,1 km/h (2 Bft) O-SO 115 ° 0 min 42 W/m² 4,7 °C 4,4 °C 11,3 km/h (2 Bft)
31.12.2023 11:16 21,3 °C 6,5 °C 55 % 87 % 1006,2 hPa 0,0 l/m² 7,6 km/h (2 Bft) O-SO 119 ° 0 min 40 W/m² 4,5 °C 5,5 °C 14,5 km/h (3 Bft)
31.12.2023 11:18 21,3 °C 6,6 °C 55 % 87 % 1006,2 hPa 0,0 l/m² 5,6 km/h (2 Bft) O-SO 118 ° 0 min 44 W/m² 4,6 °C 6,6 °C 11,3 km/h (2 Bft)
31.12.2023 11:20 21,3 °C 6,6 °C 53 % 88 % 1006,1 hPa 0,0 l/m² 6,6 km/h (2 Bft) O-SO 111 ° 0 min 47 W/m² 4,8 °C 6,5 °C 11,3 km/h (2 Bft)
31.12.2023 11:21 21,3 °C 6,6 °C 53 % 87 % 1006,1 hPa 0,0 l/m² 7,1 km/h (2 Bft) O-SO 113 ° 0 min 49 W/m² 4,6 °C 6,0 °C 11,3 km/h (2 Bft)
31.12.2023 11:22 21,3 °C 6,6 °C 53 % 87 % 1006,0 hPa 0,0 l/m² 5,2 km/h (1 Bft) O-SO 113 ° 0 min 49 W/m² 4,6 °C 6,6 °C 6,4 km/h (2 Bft)
31.12.2023 11:23 21,3 °C 6,6 °C 53 % 87 % 1006,0 hPa 0,0 l/m² 5,6 km/h (2 Bft) O-SO 113 ° 0 min 51 W/m² 4,6 °C 6,6 °C 9,7 km/h (2 Bft)
31.12.2023 11:24 21,2 °C 6,6 °C 53 % 87 % 1006,0 hPa 0,0 l/m² 4,9 km/h (1 Bft) O-SO 113 ° 1 min 53 W/m² 4,6 °C 6,6 °C 9,7 km/h (2 Bft)
31.12.2023 11:26 21,2 °C 6,7 °C 53 % 87 % 1005,9 hPa 0,0 l/m² 5,9 km/h (2 Bft) O-SO 110 ° 2 min 56 W/m² 4,7 °C 6,7 °C 9,7 km/h (2 Bft)
31.12.2023 11:28 21,2 °C 6,7 °C 53 % 87 % 1005,9 hPa 0,0 l/m² 5,5 km/h (2 Bft) O-SO 111 ° 2 min 56 W/m² 4,7 °C 6,7 °C 9,7 km/h (2 Bft)
31.12.2023 11:30 21,2 °C 6,7 °C 53 % 87 % 1006,0 hPa 0,0 l/m² 7,2 km/h (2 Bft) O-SO 112 ° 2 min 53 W/m² 4,7 °C 6,0 °C 11,3 km/h (2 Bft)
31.12.2023 11:31 21,2 °C 6,7 °C 53 % 87 % 1005,9 hPa 0,0 l/m² 7,9 km/h (2 Bft) O-SO 114 ° 0 min 49 W/m² 4,7 °C 5,5 °C 9,7 km/h (2 Bft)
31.12.2023 11:32 21,2 °C 6,7 °C 53 % 87 % 1005,9 hPa 0,0 l/m² 5,7 km/h (2 Bft) O-SO 114 ° 0 min 49 W/m² 4,7 °C 6,7 °C 9,7 km/h (2 Bft)
31.12.2023 11:33 21,2 °C 6,7 °C 53 % 87 % 1006,0 hPa 0,0 l/m² 3,8 km/h (1 Bft) O-SO 117 ° 0 min 47 W/m² 4,7 °C 6,7 °C 9,7 km/h (2 Bft)
31.12.2023 11:34 21,2 °C 6,7 °C 53 % 87 % 1006,1 hPa 0,0 l/m² 4,5 km/h (1 Bft) O-SO 117 ° 0 min 46 W/m² 4,7 °C 6,7 °C 6,4 km/h (2 Bft)
31.12.2023 11:36 21,2 °C 6,7 °C 53 % 87 % 1006,0 hPa 0,0 l/m² 4,8 km/h (1 Bft) O-SO 117 ° 0 min 46 W/m² 4,7 °C 6,7 °C 9,7 km/h (2 Bft)
31.12.2023 11:38 21,2 °C 6,7 °C 53 % 87 % 1005,9 hPa 0,0 l/m² 6,2 km/h (2 Bft) O-SO 120 ° 0 min 44 W/m² 4,7 °C 6,7 °C 11,3 km/h (2 Bft)
31.12.2023 11:40 21,2 °C 6,8 °C 53 % 87 % 1005,8 hPa 0,0 l/m² 8,1 km/h (2 Bft) O-SO 116 ° 0 min 42 W/m² 4,8 °C 5,4 °C 12,9 km/h (3 Bft)
31.12.2023 11:41 21,2 °C 6,8 °C 53 % 87 % 1005,8 hPa 0,0 l/m² 10,4 km/h (2 Bft) O-SO 121 ° 0 min 44 W/m² 4,8 °C 3,8 °C 14,5 km/h (3 Bft)
31.12.2023 11:42 21,2 °C 6,8 °C 53 % 87 % 1005,7 hPa 0,0 l/m² 11,6 km/h (2 Bft) O-SO 112 ° 0 min 44 W/m² 4,8 °C 3,1 °C 14,5 km/h (3 Bft)
31.12.2023 11:43 21,2 °C 6,8 °C 53 % 87 % 1005,7 hPa 0,0 l/m² 12,5 km/h (2 Bft) SO 124 ° 0 min 40 W/m² 4,8 °C 2,5 °C 16,1 km/h (3 Bft)
31.12.2023 11:44 21,2 °C 6,8 °C 53 % 87 % 1005,7 hPa 0,0 l/m² 12,5 km/h (2 Bft) O-SO 118 ° 0 min 39 W/m² 4,8 °C 2,5 °C 16,1 km/h (3 Bft)
31.12.2023 11:46 21,2 °C 6,8 °C 53 % 87 % 1005,7 hPa 0,0 l/m² 10,5 km/h (2 Bft) O-SO 120 ° 0 min 32 W/m² 4,8 °C 3,7 °C 12,9 km/h (3 Bft)
31.12.2023 11:48 21,2 °C 6,8 °C 54 % 87 % 1005,7 hPa 0,0 l/m² 9,3 km/h (2 Bft) O-SO 116 ° 0 min 32 W/m² 4,8 °C 4,5 °C 12,9 km/h (3 Bft)
31.12.2023 11:49 21,2 °C 6,8 °C 54 % 87 % 1005,6 hPa 0,0 l/m² 7,4 km/h (2 Bft) O-SO 117 ° 0 min 40 W/m² 4,8 °C 6,0 °C 11,3 km/h (2 Bft)
31.12.2023 11:50 21,2 °C 6,8 °C 54 % 87 % 1005,6 hPa 0,0 l/m² 9,1 km/h (2 Bft) O-SO 112 ° 0 min 46 W/m² 4,8 °C 4,7 °C 11,3 km/h (2 Bft)
31.12.2023 11:51 21,2 °C 6,8 °C 54 % 87 % 1005,5 hPa 0,0 l/m² 12,0 km/h (2 Bft) O-SO 116 ° 0 min 49 W/m² 4,8 °C 2,8 °C 14,5 km/h (3 Bft)
31.12.2023 11:52 21,2 °C 6,9 °C 54 % 87 % 1005,5 hPa 0,0 l/m² 11,9 km/h (2 Bft) O-SO 116 ° 0 min 51 W/m² 4,9 °C 3,0 °C 14,5 km/h (3 Bft)
31.12.2023 11:53 21,2 °C 6,9 °C 54 % 87 % 1005,6 hPa 0,0 l/m² 12,1 km/h (2 Bft) O-SO 120 ° 0 min 51 W/m² 4,9 °C 2,9 °C 12,9 km/h (3 Bft)
31.12.2023 11:54 21,2 °C 6,8 °C 54 % 87 % 1005,6 hPa 0,0 l/m² 9,2 km/h (2 Bft) O-SO 121 ° 1 min 53 W/m² 4,8 °C 4,6 °C 11,3 km/h (2 Bft)
31.12.2023 11:56 21,2 °C 6,9 °C 54 % 87 % 1005,5 hPa 0,0 l/m² 6,8 km/h (2 Bft) O-SO 119 ° 2 min 58 W/m² 4,9 °C 6,6 °C 11,3 km/h (2 Bft)
31.12.2023 11:58 21,2 °C 6,9 °C 54 % 87 % 1005,4 hPa 0,0 l/m² 8,2 km/h (2 Bft) O-SO 119 ° 2 min 58 W/m² 4,9 °C 5,4 °C 14,5 km/h (3 Bft)
31.12.2023 12:00 21,2 °C 6,9 °C 54 % 87 % 1005,4 hPa 0,0 l/m² 9,2 km/h (2 Bft) O-SO 121 ° 2 min 58 W/m² 4,9 °C 4,7 °C 14,5 km/h (3 Bft)
31.12.2023 12:01 21,2 °C 6,9 °C 54 % 87 % 1005,4 hPa 0,0 l/m² 10,7 km/h (2 Bft) O-SO 119 ° 1 min 54 W/m² 4,9 °C 3,7 °C 14,5 km/h (3 Bft)
31.12.2023 12:02 21,2 °C 6,9 °C 54 % 87 % 1005,4 hPa 0,0 l/m² 10,7 km/h (2 Bft) O-SO 118 ° 0 min 47 W/m² 4,9 °C 3,7 °C 12,9 km/h (3 Bft)
31.12.2023 12:03 21,2 °C 6,9 °C 54 % 87 % 1005,3 hPa 0,0 l/m² 7,6 km/h (2 Bft) O-SO 118 ° 0 min 40 W/m² 4,9 °C 5,9 °C 9,7 km/h (2 Bft)
31.12.2023 12:05 21,1 °C 6,9 °C 54 % 87 % 1005,2 hPa 0,0 l/m² 10,1 km/h (2 Bft) O-SO 113 ° 0 min 32 W/m² 4,9 °C 4,1 °C 12,9 km/h (3 Bft)
31.12.2023 12:06 21,2 °C 7,0 °C 54 % 87 % 1005,1 hPa 0,0 l/m² 11,7 km/h (2 Bft) O-SO 106 ° 0 min 32 W/m² 5,0 °C 3,2 °C 14,5 km/h (3 Bft)
31.12.2023 12:08 21,1 °C 7,0 °C 54 % 87 % 1005,1 hPa 0,0 l/m² 9,6 km/h (2 Bft) O-SO 108 ° 0 min 37 W/m² 5,0 °C 4,5 °C 12,9 km/h (3 Bft)
31.12.2023 12:10 21,2 °C 7,0 °C 54 % 87 % 1005,0 hPa 0,0 l/m² 9,0 km/h (2 Bft) O-SO 113 ° 0 min 49 W/m² 5,0 °C 5,0 °C 12,9 km/h (3 Bft)
31.12.2023 12:11 21,1 °C 7,1 °C 54 % 87 % 1004,9 hPa 0,0 l/m² 10,2 km/h (2 Bft) O-SO 119 ° 1 min 56 W/m² 5,1 °C 4,3 °C 14,5 km/h (3 Bft)
31.12.2023 12:12 21,2 °C 7,1 °C 54 % 87 % 1004,9 hPa 0,0 l/m² 6,5 km/h (2 Bft) O-SO 111 ° 1 min 67 W/m² 5,1 °C 7,0 °C 9,7 km/h (2 Bft)
31.12.2023 12:14 21,2 °C 7,1 °C 54 % 87 % 1004,8 hPa 0,0 l/m² 7,6 km/h (2 Bft) O-SO 104 ° 2 min 79 W/m² 5,1 °C 6,1 °C 11,3 km/h (2 Bft)
31.12.2023 12:16 21,2 °C 7,1 °C 53 % 87 % 1004,8 hPa 0,0 l/m² 7,3 km/h (2 Bft) O 97 ° 2 min 91 W/m² 5,1 °C 6,4 °C 11,3 km/h (2 Bft)
31.12.2023 12:18 21,1 °C 7,1 °C 53 % 87 % 1004,8 hPa 0,0 l/m² 7,4 km/h (2 Bft) O-SO 102 ° 2 min 98 W/m² 5,1 °C 6,3 °C 11,3 km/h (2 Bft)
31.12.2023 12:20 21,1 °C 7,2 °C 53 % 87 % 1004,8 hPa 0,0 l/m² 7,1 km/h (2 Bft) O-SO 104 ° 2 min 102 W/m² 5,2 °C 6,6 °C 11,3 km/h (2 Bft)
31.12.2023 12:22 21,1 °C 7,2 °C 53 % 87 % 1004,7 hPa 0,0 l/m² 6,1 km/h (2 Bft) O 90 ° 2 min 102 W/m² 5,2 °C 7,2 °C 11,3 km/h (2 Bft)
31.12.2023 12:23 21,1 °C 7,2 °C 53 % 87 % 1004,7 hPa 0,0 l/m² 7,4 km/h (2 Bft) O-SO 103 ° 1 min 102 W/m² 5,2 °C 6,4 °C 11,3 km/h (2 Bft)
31.12.2023 12:24 21,1 °C 7,3 °C 53 % 87 % 1004,7 hPa 0,0 l/m² 7,2 km/h (2 Bft) O-SO 106 ° 1 min 104 W/m² 5,3 °C 6,7 °C 11,3 km/h (2 Bft)
31.12.2023 12:26 21,1 °C 7,3 °C 53 % 86 % 1004,7 hPa 0,0 l/m² 6,1 km/h (2 Bft) O 99 ° 2 min 104 W/m² 5,1 °C 7,3 °C 11,3 km/h (2 Bft)
31.12.2023 12:28 21,1 °C 7,4 °C 53 % 86 % 1004,7 hPa 0,0 l/m² 4,6 km/h (1 Bft) O 92 ° 2 min 104 W/m² 5,2 °C 7,4 °C 9,7 km/h (2 Bft)
31.12.2023 12:30 21,1 °C 7,4 °C 53 % 87 % 1004,5 hPa 0,0 l/m² 5,7 km/h (2 Bft) O 96 ° 2 min 98 W/m² 5,4 °C 7,4 °C 9,7 km/h (2 Bft)
31.12.2023 12:32 21,2 °C 7,4 °C 53 % 87 % 1004,5 hPa 0,0 l/m² 4,6 km/h (1 Bft) O 96 ° 2 min 91 W/m² 5,4 °C 7,4 °C 6,4 km/h (2 Bft)
31.12.2023 12:33 21,1 °C 7,4 °C 53 % 87 % 1004,6 hPa 0,0 l/m² 4,8 km/h (1 Bft) O 96 ° 1 min 86 W/m² 5,4 °C 7,4 °C 6,4 km/h (2 Bft)
31.12.2023 12:34 21,1 °C 7,4 °C 53 % 86 % 1004,6 hPa 0,0 l/m² 4,9 km/h (1 Bft) O 96 ° 1 min 79 W/m² 5,2 °C 7,4 °C 6,4 km/h (2 Bft)
31.12.2023 12:36 21,1 °C 7,4 °C 53 % 86 % 1004,5 hPa 0,0 l/m² 4,5 km/h (1 Bft) O 96 ° 2 min 67 W/m² 5,2 °C 7,4 °C 6,4 km/h (2 Bft)
31.12.2023 12:38 21,2 °C 7,4 °C 53 % 87 % 1004,5 hPa 0,0 l/m² 6,2 km/h (2 Bft) O 92 ° 2 min 62 W/m² 5,4 °C 7,4 °C 11,3 km/h (2 Bft)
31.12.2023 12:40 21,1 °C 7,4 °C 54 % 87 % 1004,4 hPa 0,0 l/m² 4,4 km/h (1 Bft) O 98 ° 2 min 56 W/m² 5,4 °C 7,4 °C 9,7 km/h (2 Bft)
31.12.2023 12:42 21,1 °C 7,4 °C 54 % 87 % 1004,3 hPa 0,0 l/m² 4,4 km/h (1 Bft) O 98 ° 2 min 65 W/m² 5,4 °C 7,4 °C 6,4 km/h (2 Bft)
31.12.2023 12:43 21,1 °C 7,4 °C 54 % 87 % 1004,4 hPa 0,0 l/m² 4,0 km/h (1 Bft) O 98 ° 1 min 70 W/m² 5,4 °C 7,4 °C 4,8 km/h (1 Bft)
31.12.2023 12:45 21,2 °C 7,4 °C 54 % 87 % 1004,4 hPa 0,0 l/m² 6,8 km/h (2 Bft) O-SO 108 ° 2 min 74 W/m² 5,4 °C 7,1 °C 11,3 km/h (2 Bft)
31.12.2023 12:47 21,2 °C 7,5 °C 54 % 87 % 1004,3 hPa 0,0 l/m² 6,1 km/h (2 Bft) O-SO 111 ° 2 min 72 W/m² 5,5 °C 7,5 °C 11,3 km/h (2 Bft)
31.12.2023 12:49 21,2 °C 7,4 °C 54 % 86 % 1004,3 hPa 0,0 l/m² 7,4 km/h (2 Bft) O-SO 113 ° 2 min 74 W/m² 5,2 °C 6,6 °C 12,9 km/h (3 Bft)
31.12.2023 12:51 21,2 °C 7,5 °C 54 % 86 % 1004,3 hPa 0,0 l/m² 8,4 km/h (2 Bft) O-SO 115 ° 2 min 79 W/m² 5,3 °C 5,9 °C 12,9 km/h (3 Bft)
31.12.2023 12:52 21,2 °C 7,5 °C 54 % 86 % 1004,2 hPa 0,0 l/m² 5,0 km/h (1 Bft) O-SO 116 ° 1 min 81 W/m² 5,3 °C 7,5 °C 11,3 km/h (2 Bft)
31.12.2023 12:53 21,2 °C 7,6 °C 54 % 86 % 1004,3 hPa 0,0 l/m² 3,6 km/h (1 Bft) O-SO 116 ° 1 min 86 W/m² 5,4 °C 7,6 °C 4,8 km/h (1 Bft)
31.12.2023 12:55 21,1 °C 7,6 °C 54 % 86 % 1004,3 hPa 0,0 l/m² 5,7 km/h (2 Bft) O-SO 117 ° 2 min 91 W/m² 5,4 °C 7,6 °C 12,9 km/h (3 Bft)
31.12.2023 12:57 21,2 °C 7,6 °C 54 % 86 % 1004,2 hPa 0,0 l/m² 7,3 km/h (2 Bft) O-SO 119 ° 2 min 93 W/m² 5,4 °C 6,9 °C 11,3 km/h (2 Bft)
31.12.2023 12:59 21,2 °C 7,6 °C 54 % 86 % 1004,1 hPa 0,0 l/m² 7,1 km/h (2 Bft) O-SO 117 ° 2 min 93 W/m² 5,4 °C 7,0 °C 11,3 km/h (2 Bft)
31.12.2023 13:01 21,2 °C 7,7 °C 54 % 86 % 1004,1 hPa 0,0 l/m² 9,0 km/h (2 Bft) O-SO 113 ° 2 min 90 W/m² 5,5 °C 5,7 °C 12,9 km/h (3 Bft)
31.12.2023 13:02 21,2 °C 7,7 °C 54 % 86 % 1004,1 hPa 0,0 l/m² 7,7 km/h (2 Bft) O-SO 113 ° 1 min 90 W/m² 5,5 °C 6,7 °C 9,7 km/h (2 Bft)
31.12.2023 13:03 21,2 °C 7,7 °C 54 % 85 % 1004,0 hPa 0,0 l/m² 6,2 km/h (2 Bft) O-SO 113 ° 1 min 88 W/m² 5,3 °C 7,7 °C 6,4 km/h (2 Bft)
31.12.2023 13:05 21,2 °C 7,7 °C 54 % 85 % 1004,0 hPa 0,0 l/m² 6,9 km/h (2 Bft) O-SO 113 ° 2 min 90 W/m² 5,3 °C 7,3 °C 11,3 km/h (2 Bft)
31.12.2023 13:07 21,2 °C 7,7 °C 54 % 85 % 1003,9 hPa 0,0 l/m² 7,7 km/h (2 Bft) O-SO 123 ° 2 min 93 W/m² 5,3 °C 6,7 °C 11,3 km/h (2 Bft)
31.12.2023 13:09 21,2 °C 7,8 °C 54 % 85 % 1003,9 hPa 0,0 l/m² 10,3 km/h (2 Bft) SO 128 ° 2 min 98 W/m² 5,4 °C 5,0 °C 14,5 km/h (3 Bft)
31.12.2023 13:11 21,2 °C 7,9 °C 54 % 85 % 1003,9 hPa 0,0 l/m² 9,8 km/h (2 Bft) SO 128 ° 2 min 107 W/m² 5,5 °C 5,4 °C 14,5 km/h (3 Bft)
31.12.2023 13:12 21,2 °C 7,9 °C 54 % 85 % 1003,9 hPa 0,0 l/m² 8,3 km/h (2 Bft) O-SO 119 ° 1 min 109 W/m² 5,5 °C 6,4 °C 11,3 km/h (2 Bft)
31.12.2023 13:13 21,2 °C 7,9 °C 54 % 85 % 1003,8 hPa 0,0 l/m² 10,7 km/h (2 Bft) O-SO 118 ° 1 min 111 W/m² 5,5 °C 4,8 °C 12,9 km/h (3 Bft)
31.12.2023 13:15 21,2 °C 7,9 °C 54 % 85 % 1003,8 hPa 0,0 l/m² 8,8 km/h (2 Bft) O-SO 109 ° 2 min 114 W/m² 5,5 °C 6,1 °C 11,3 km/h (2 Bft)
31.12.2023 13:17 21,2 °C 8,0 °C 54 % 84 % 1003,8 hPa 0,0 l/m² 7,8 km/h (2 Bft) O-SO 118 ° 2 min 113 W/m² 5,5 °C 6,9 °C 11,3 km/h (2 Bft)
31.12.2023 13:19 21,2 °C 8,1 °C 54 % 84 % 1003,7 hPa 0,0 l/m² 9,0 km/h (2 Bft) O-SO 105 ° 2 min 113 W/m² 5,6 °C 6,1 °C 14,5 km/h (3 Bft)
31.12.2023 13:21 21,2 °C 8,1 °C 54 % 84 % 1003,6 hPa 0,0 l/m² 10,0 km/h (2 Bft) O-SO 104 ° 2 min 111 W/m² 5,6 °C 5,5 °C 14,5 km/h (3 Bft)
31.12.2023 13:22 21,2 °C 8,1 °C 54 % 84 % 1003,6 hPa 0,0 l/m² 11,0 km/h (2 Bft) O-SO 105 ° 1 min 107 W/m² 5,6 °C 4,9 °C 14,5 km/h (3 Bft)
31.12.2023 13:23 21,2 °C 8,1 °C 54 % 84 % 1003,5 hPa 0,0 l/m² 10,1 km/h (2 Bft) O-SO 108 ° 1 min 104 W/m² 5,6 °C 5,4 °C 11,3 km/h (2 Bft)
31.12.2023 13:25 21,2 °C 8,2 °C 54 % 84 % 1003,6 hPa 0,0 l/m² 12,1 km/h (2 Bft) O-SO 117 ° 2 min 98 W/m² 5,7 °C 4,4 °C 16,1 km/h (3 Bft)
31.12.2023 13:27 21,2 °C 8,2 °C 54 % 83 % 1003,5 hPa 0,0 l/m² 11,4 km/h (2 Bft) O-SO 115 ° 2 min 95 W/m² 5,5 °C 4,8 °C 14,5 km/h (3 Bft)
31.12.2023 13:29 21,2 °C 8,3 °C 54 % 83 % 1003,4 hPa 0,0 l/m² 9,3 km/h (2 Bft) O-SO 114 ° 2 min 86 W/m² 5,6 °C 6,2 °C 12,9 km/h (3 Bft)
31.12.2023 13:31 21,2 °C 8,3 °C 54 % 83 % 1003,4 hPa 0,0 l/m² 5,9 km/h (2 Bft) O-SO 114 ° 2 min 79 W/m² 5,6 °C 8,3 °C 9,7 km/h (2 Bft)
31.12.2023 13:32 21,2 °C 8,3 °C 54 % 83 % 1003,3 hPa 0,0 l/m² 8,3 km/h (2 Bft) O-SO 105 ° 1 min 74 W/m² 5,6 °C 6,9 °C 11,3 km/h (2 Bft)
31.12.2023 13:33 21,2 °C 8,3 °C 54 % 83 % 1003,3 hPa 0,0 l/m² 7,7 km/h (2 Bft) O 101 ° 1 min 69 W/m² 5,6 °C 7,3 °C 11,3 km/h (2 Bft)
31.12.2023 13:35 21,2 °C 8,3 °C 54 % 83 % 1003,3 hPa 0,0 l/m² 7,2 km/h (2 Bft) O-SO 113 ° 2 min 53 W/m² 5,6 °C 7,7 °C 11,3 km/h (2 Bft)
31.12.2023 13:37 21,2 °C 8,3 °C 54 % 83 % 1003,4 hPa 0,0 l/m² 7,9 km/h (2 Bft) O-SO 115 ° 0 min 42 W/m² 5,6 °C 7,1 °C 12,9 km/h (3 Bft)
31.12.2023 13:39 21,3 °C 8,3 °C 54 % 83 % 1003,3 hPa 0,0 l/m² 8,4 km/h (2 Bft) SO 128 ° 0 min 35 W/m² 5,6 °C 6,8 °C 12,9 km/h (3 Bft)
31.12.2023 13:41 21,3 °C 8,3 °C 54 % 83 % 1003,3 hPa 0,0 l/m² 7,6 km/h (2 Bft) O-SO 122 ° 0 min 30 W/m² 5,6 °C 7,4 °C 11,3 km/h (2 Bft)
31.12.2023 13:42 21,3 °C 8,3 °C 54 % 83 % 1003,3 hPa 0,0 l/m² 6,1 km/h (2 Bft) O-SO 122 ° 0 min 30 W/m² 5,6 °C 8,3 °C 8,0 km/h (2 Bft)
31.12.2023 13:44 21,3 °C 8,3 °C 54 % 83 % 1003,3 hPa 0,0 l/m² 7,1 km/h (2 Bft) SO 132 ° 0 min 32 W/m² 5,6 °C 7,8 °C 11,3 km/h (2 Bft)
31.12.2023 13:45 21,3 °C 8,3 °C 54 % 82 % 1003,3 hPa 0,0 l/m² 5,2 km/h (1 Bft) SO 133 ° 0 min 32 W/m² 5,4 °C 8,3 °C 6,4 km/h (2 Bft)
31.12.2023 13:46 21,3 °C 8,3 °C 54 % 83 % 1003,3 hPa 0,0 l/m² 7,5 km/h (2 Bft) SO 132 ° 0 min 33 W/m² 5,6 °C 7,4 °C 12,9 km/h (3 Bft)
31.12.2023 13:47 21,3 °C 8,3 °C 54 % 82 % 1003,3 hPa 0,0 l/m² 10,2 km/h (2 Bft) SO 128 ° 0 min 33 W/m² 5,4 °C 5,6 °C 12,9 km/h (3 Bft)
31.12.2023 13:49 21,3 °C 8,3 °C 54 % 82 % 1003,3 hPa 0,0 l/m² 6,8 km/h (2 Bft) SO 136 ° 0 min 39 W/m² 5,4 °C 8,0 °C 11,3 km/h (2 Bft)
31.12.2023 13:51 21,3 °C 8,3 °C 54 % 82 % 1003,3 hPa 0,0 l/m² 5,8 km/h (2 Bft) SO 133 ° 0 min 51 W/m² 5,4 °C 8,3 °C 11,3 km/h (2 Bft)
31.12.2023 13:52 21,3 °C 8,3 °C 54 % 82 % 1003,2 hPa 0,0 l/m² 10,3 km/h (2 Bft) S-SO 155 ° 0 min 51 W/m² 5,4 °C 5,5 °C 14,5 km/h (3 Bft)
31.12.2023 13:53 21,3 °C 8,3 °C 54 % 82 % 1003,2 hPa 0,0 l/m² 6,9 km/h (2 Bft) SO 141 ° 0 min 51 W/m² 5,4 °C 7,9 °C 11,3 km/h (2 Bft)
31.12.2023 13:55 21,3 °C 8,4 °C 54 % 82 % 1003,1 hPa 0,0 l/m² 8,9 km/h (2 Bft) SO 135 ° 0 min 44 W/m² 5,5 °C 6,5 °C 14,5 km/h (3 Bft)
31.12.2023 13:57 21,3 °C 8,4 °C 54 % 82 % 1003,1 hPa 0,0 l/m² 12,6 km/h (3 Bft) SO 138 ° 0 min 39 W/m² 5,5 °C 4,4 °C 16,1 km/h (3 Bft)
31.12.2023 13:59 21,3 °C 8,4 °C 54 % 82 % 1003,2 hPa 0,0 l/m² 10,2 km/h (2 Bft) SO 146 ° 0 min 42 W/m² 5,5 °C 5,7 °C 14,5 km/h (3 Bft)
31.12.2023 14:01 21,3 °C 8,5 °C 54 % 82 % 1003,0 hPa 0,0 l/m² 13,2 km/h (3 Bft) SO 126 ° 0 min 46 W/m² 5,6 °C 4,2 °C 22,5 km/h (4 Bft)
31.12.2023 14:02 21,3 °C 8,5 °C 54 % 81 % 1002,9 hPa 0,0 l/m² 12,8 km/h (3 Bft) SO 139 ° 0 min 47 W/m² 5,4 °C 4,4 °C 19,3 km/h (3 Bft)
31.12.2023 14:03 21,3 °C 8,5 °C 54 % 81 % 1002,8 hPa 0,0 l/m² 14,1 km/h (3 Bft) SO 130 ° 0 min 49 W/m² 5,4 °C 3,7 °C 16,1 km/h (3 Bft)
31.12.2023 14:05 21,3 °C 8,5 °C 54 % 81 % 1002,8 hPa 0,0 l/m² 12,7 km/h (3 Bft) SO 141 ° 2 min 56 W/m² 5,4 °C 4,4 °C 16,1 km/h (3 Bft)
31.12.2023 14:07 21,3 °C 8,6 °C 54 % 81 % 1002,8 hPa 0,0 l/m² 9,6 km/h (2 Bft) SO 133 ° 2 min 58 W/m² 5,5 °C 6,3 °C 16,1 km/h (3 Bft)
31.12.2023 14:09 21,3 °C 8,6 °C 54 % 81 % 1002,6 hPa 0,0 l/m² 13,1 km/h (3 Bft) SO 132 ° 2 min 58 W/m² 5,5 °C 4,3 °C 17,7 km/h (3 Bft)
31.12.2023 14:11 21,3 °C 8,6 °C 54 % 80 % 1002,6 hPa 0,0 l/m² 13,3 km/h (3 Bft) O-SO 117 ° 0 min 49 W/m² 5,3 °C 4,2 °C 19,3 km/h (3 Bft)
31.12.2023 14:12 21,3 °C 8,7 °C 54 % 80 % 1002,6 hPa 0,0 l/m² 16,0 km/h (3 Bft) SO 136 ° 0 min 47 W/m² 5,4 °C 3,1 °C 19,3 km/h (3 Bft)
31.12.2023 14:13 21,3 °C 8,7 °C 54 % 80 % 1002,6 hPa 0,0 l/m² 15,6 km/h (3 Bft) SO 128 ° 0 min 47 W/m² 5,4 °C 3,3 °C 19,3 km/h (3 Bft)
31.12.2023 14:15 21,3 °C 8,7 °C 54 % 80 % 1002,6 hPa 0,0 l/m² 15,0 km/h (3 Bft) SO 139 ° 0 min 44 W/m² 5,4 °C 3,6 °C 20,9 km/h (4 Bft)
31.12.2023 14:17 21,3 °C 8,7 °C 54 % 80 % 1002,6 hPa 0,0 l/m² 13,0 km/h (3 Bft) SO 129 ° 0 min 42 W/m² 5,4 °C 4,5 °C 17,7 km/h (3 Bft)
31.12.2023 14:19 21,3 °C 8,7 °C 54 % 80 % 1002,7 hPa 0,0 l/m² 9,4 km/h (2 Bft) S-SO 155 ° 0 min 42 W/m² 5,4 °C 6,5 °C 14,5 km/h (3 Bft)
31.12.2023 14:21 21,3 °C 8,7 °C 54 % 80 % 1002,7 hPa 0,0 l/m² 12,2 km/h (2 Bft) S-SO 157 ° 0 min 42 W/m² 5,4 °C 4,9 °C 19,3 km/h (3 Bft)
31.12.2023 14:22 21,3 °C 8,8 °C 54 % 80 % 1002,7 hPa 0,0 l/m² 14,3 km/h (3 Bft) S-SO 153 ° 0 min 42 W/m² 5,5 °C 4,0 °C 17,7 km/h (3 Bft)
31.12.2023 14:24 21,3 °C 8,8 °C 54 % 80 % 1002,6 hPa 0,0 l/m² 9,7 km/h (2 Bft) SO 141 ° 0 min 42 W/m² 5,5 °C 6,5 °C 16,1 km/h (3 Bft)
31.12.2023 14:26 21,3 °C 8,7 °C 54 % 80 % 1002,6 hPa 0,0 l/m² 10,4 km/h (2 Bft) S-SO 168 ° 0 min 42 W/m² 5,4 °C 5,9 °C 16,1 km/h (3 Bft)
31.12.2023 14:27 21,3 °C 8,8 °C 54 % 80 % 1002,6 hPa 0,0 l/m² 9,7 km/h (2 Bft) S-SO 157 ° 0 min 40 W/m² 5,5 °C 6,5 °C 12,9 km/h (3 Bft)
31.12.2023 14:28 21,3 °C 8,7 °C 54 % 80 % 1002,6 hPa 0,0 l/m² 8,0 km/h (2 Bft) S-SO 157 ° 0 min 40 W/m² 5,4 °C 7,5 °C 12,9 km/h (3 Bft)
31.12.2023 14:29 21,4 °C 8,8 °C 54 % 80 % 1002,6 hPa 0,0 l/m² 11,3 km/h (2 Bft) S-SO 157 ° 0 min 39 W/m² 5,5 °C 5,5 °C 14,5 km/h (3 Bft)
31.12.2023 14:30 21,3 °C 8,8 °C 54 % 80 % 1002,6 hPa 0,0 l/m² 12,9 km/h (3 Bft) S 180 ° 0 min 39 W/m² 5,5 °C 4,7 °C 16,1 km/h (3 Bft)
31.12.2023 14:31 21,3 °C 8,7 °C 54 % 80 % 1002,7 hPa 0,0 l/m² 12,9 km/h (3 Bft) S-SO 157 ° 0 min 39 W/m² 5,4 °C 4,6 °C 17,7 km/h (3 Bft)
31.12.2023 14:32 21,3 °C 8,7 °C 54 % 80 % 1002,7 hPa 0,0 l/m² 8,0 km/h (2 Bft) S-SO 157 ° 0 min 37 W/m² 5,4 °C 7,5 °C 9,7 km/h (2 Bft)
31.12.2023 14:33 21,3 °C 8,7 °C 54 % 80 % 1002,6 hPa 0,0 l/m² 8,0 km/h (2 Bft) S 180 ° 0 min 37 W/m² 5,4 °C 7,5 °C 12,9 km/h (3 Bft)
31.12.2023 14:34 21,3 °C 8,7 °C 54 % 80 % 1002,7 hPa 0,0 l/m² 9,7 km/h (2 Bft) S 180 ° 0 min 37 W/m² 5,4 °C 6,3 °C 12,9 km/h (3 Bft)
31.12.2023 14:35 21,3 °C 8,7 °C 54 % 80 % 1002,5 hPa 0,0 l/m² 4,8 km/h (1 Bft) S-SO 157 ° 0 min 37 W/m² 5,4 °C 8,7 °C 9,7 km/h (2 Bft)
31.12.2023 14:36 21,3 °C 8,7 °C 54 % 80 % 1002,6 hPa 0,0 l/m² 4,8 km/h (1 Bft) S-SO 157 ° 0 min 37 W/m² 5,4 °C 8,7 °C 8,0 km/h (2 Bft)
31.12.2023 14:37 21,3 °C 8,7 °C 54 % 80 % 1002,6 hPa 0,0 l/m² 6,4 km/h (2 Bft) S-SO 157 ° 0 min 35 W/m² 5,4 °C 8,7 °C 11,3 km/h (2 Bft)
31.12.2023 14:38 21,3 °C 8,7 °C 54 % 80 % 1002,7 hPa 0,0 l/m² 9,7 km/h (2 Bft) S-SO 157 ° 0 min 33 W/m² 5,4 °C 6,3 °C 12,9 km/h (3 Bft)
31.12.2023 14:39 21,3 °C 8,7 °C 54 % 80 % 1002,6 hPa 0,0 l/m² 4,8 km/h (1 Bft) S 180 ° 0 min 32 W/m² 5,4 °C 8,7 °C 8,0 km/h (2 Bft)
31.12.2023 14:40 21,3 °C 8,7 °C 54 % 80 % 1002,6 hPa 0,0 l/m² 4,8 km/h (1 Bft) S 180 ° 0 min 33 W/m² 5,4 °C 8,7 °C 6,4 km/h (2 Bft)
31.12.2023 14:41 21,3 °C 8,6 °C 54 % 80 % 1002,6 hPa 0,0 l/m² 6,4 km/h (2 Bft) S-SO 157 ° 0 min 37 W/m² 5,3 °C 8,6 °C 9,7 km/h (2 Bft)
31.12.2023 14:42 21,3 °C 8,6 °C 54 % 80 % 1002,6 hPa 0,0 l/m² 3,2 km/h (1 Bft) S-SO 157 ° 0 min 39 W/m² 5,3 °C 8,6 °C 6,4 km/h (2 Bft)
31.12.2023 14:43 21,2 °C 8,6 °C 54 % 80 % 1002,6 hPa 0,0 l/m² 3,2 km/h (1 Bft) S-SO 157 ° 0 min 40 W/m² 5,3 °C 8,6 °C 6,4 km/h (2 Bft)
31.12.2023 14:44 21,2 °C 8,6 °C 52 % 80 % 1002,6 hPa 0,0 l/m² 6,4 km/h (2 Bft) S 180 ° 0 min 40 W/m² 5,3 °C 8,6 °C 9,7 km/h (2 Bft)
31.12.2023 14:45 21,2 °C 8,6 °C 51 % 80 % 1002,6 hPa 0,0 l/m² 8,0 km/h (2 Bft) S 180 ° 0 min 42 W/m² 5,3 °C 7,4 °C 12,9 km/h (3 Bft)
31.12.2023 14:46 21,2 °C 8,6 °C 49 % 80 % 1002,6 hPa 0,0 l/m² 8,0 km/h (2 Bft) S-SO 157 ° 0 min 42 W/m² 5,3 °C 7,4 °C 11,3 km/h (2 Bft)
31.12.2023 14:47 21,2 °C 8,6 °C 48 % 80 % 1002,6 hPa 0,0 l/m² 9,7 km/h (2 Bft) S-SO 157 ° 0 min 42 W/m² 5,3 °C 6,2 °C 11,3 km/h (2 Bft)
31.12.2023 14:48 21,2 °C 8,6 °C 48 % 80 % 1002,6 hPa 0,0 l/m² 9,7 km/h (2 Bft) S-SO 157 ° 0 min 42 W/m² 5,3 °C 6,2 °C 20,9 km/h (4 Bft)
31.12.2023 14:49 21,1 °C 8,6 °C 48 % 80 % 1002,5 hPa 0,0 l/m² 11,3 km/h (2 Bft) S-SO 157 ° 0 min 42 W/m² 5,3 °C 5,3 °C 17,7 km/h (3 Bft)
31.12.2023 14:50 21,1 °C 8,5 °C 48 % 80 % 1002,6 hPa 0,0 l/m² 9,7 km/h (2 Bft) S-SO 157 ° 0 min 40 W/m² 5,3 °C 6,1 °C 11,3 km/h (2 Bft)
31.12.2023 14:51 21,1 °C 8,5 °C 49 % 80 % 1002,5 hPa 0,0 l/m² 8,0 km/h (2 Bft) S-SO 157 ° 0 min 40 W/m² 5,3 °C 7,3 °C 11,3 km/h (2 Bft)
31.12.2023 14:52 21,1 °C 8,5 °C 49 % 80 % 1002,5 hPa 0,0 l/m² 8,0 km/h (2 Bft) S-SO 157 ° 0 min 40 W/m² 5,3 °C 7,3 °C 11,3 km/h (2 Bft)
31.12.2023 14:53 21,1 °C 8,5 °C 49 % 80 % 1002,5 hPa 0,0 l/m² 8,0 km/h (2 Bft) S-SO 157 ° 0 min 40 W/m² 5,3 °C 7,3 °C 12,9 km/h (3 Bft)
31.12.2023 14:54 21,1 °C 8,5 °C 50 % 80 % 1002,5 hPa 0,0 l/m² 6,4 km/h (2 Bft) SO 135 ° 0 min 40 W/m² 5,3 °C 8,5 °C 9,7 km/h (2 Bft)
31.12.2023 14:55 21,1 °C 8,5 °C 50 % 80 % 1002,4 hPa 0,0 l/m² 9,7 km/h (2 Bft) S-SO 157 ° 0 min 40 W/m² 5,3 °C 6,1 °C 11,3 km/h (2 Bft)
31.12.2023 14:56 21,1 °C 8,4 °C 50 % 80 % 1002,4 hPa 0,0 l/m² 6,4 km/h (2 Bft) SO 135 ° 0 min 39 W/m² 5,2 °C 8,4 °C 8,0 km/h (2 Bft)
31.12.2023 14:57 21,0 °C 8,4 °C 50 % 80 % 1002,4 hPa 0,0 l/m² 6,4 km/h (2 Bft) SO 135 ° 0 min 39 W/m² 5,2 °C 8,4 °C 8,0 km/h (2 Bft)
31.12.2023 14:58 21,0 °C 8,5 °C 50 % 81 % 1002,3 hPa 0,0 l/m² 8,0 km/h (2 Bft) SO 135 ° 0 min 37 W/m² 5,4 °C 7,3 °C 9,7 km/h (2 Bft)
31.12.2023 14:59 21,0 °C 8,4 °C 50 % 80 % 1002,4 hPa 0,0 l/m² 6,4 km/h (2 Bft) S-SO 157 ° 0 min 37 W/m² 5,2 °C 8,4 °C 11,3 km/h (2 Bft)
31.12.2023 15:00 21,0 °C 8,4 °C 50 % 80 % 1002,4 hPa 0,0 l/m² 8,0 km/h (2 Bft) S-SO 157 ° 0 min 37 W/m² 5,2 °C 7,2 °C 12,9 km/h (3 Bft)
31.12.2023 15:01 21,0 °C 8,4 °C 50 % 80 % 1002,4 hPa 0,0 l/m² 6,4 km/h (2 Bft) S-SO 157 ° 0 min 37 W/m² 5,2 °C 8,4 °C 8,0 km/h (2 Bft)
31.12.2023 15:02 21,0 °C 8,4 °C 51 % 80 % 1002,4 hPa 0,0 l/m² 6,4 km/h (2 Bft) SO 135 ° 0 min 37 W/m² 5,2 °C 8,4 °C 9,7 km/h (2 Bft)
31.12.2023 15:03 21,0 °C 8,4 °C 51 % 80 % 1002,4 hPa 0,0 l/m² 6,4 km/h (2 Bft) SO 135 ° 0 min 35 W/m² 5,2 °C 8,4 °C 9,7 km/h (2 Bft)
31.12.2023 15:04 21,0 °C 8,4 °C 51 % 80 % 1002,3 hPa 0,0 l/m² 6,4 km/h (2 Bft) SO 135 ° 0 min 37 W/m² 5,2 °C 8,4 °C 8,0 km/h (2 Bft)
31.12.2023 15:05 20,9 °C 8,4 °C 51 % 80 % 1002,4 hPa 0,0 l/m² 6,4 km/h (2 Bft) SO 135 ° 0 min 37 W/m² 5,2 °C 8,4 °C 9,7 km/h (2 Bft)
31.12.2023 15:06 21,0 °C 8,4 °C 51 % 81 % 1002,4 hPa 0,0 l/m² 6,4 km/h (2 Bft) SO 135 ° 0 min 39 W/m² 5,3 °C 8,4 °C 8,0 km/h (2 Bft)
31.12.2023 15:07 21,0 °C 8,4 °C 51 % 81 % 1002,4 hPa 0,0 l/m² 6,4 km/h (2 Bft) SO 135 ° 0 min 39 W/m² 5,3 °C 8,4 °C 8,0 km/h (2 Bft)
31.12.2023 15:08 21,0 °C 8,4 °C 51 % 81 % 1002,4 hPa 0,0 l/m² 4,8 km/h (1 Bft) SO 135 ° 0 min 37 W/m² 5,3 °C 8,4 °C 6,4 km/h (2 Bft)
31.12.2023 15:09 21,0 °C 8,4 °C 51 % 81 % 1002,3 hPa 0,0 l/m² 6,4 km/h (2 Bft) SO 135 ° 0 min 37 W/m² 5,3 °C 8,4 °C 8,0 km/h (2 Bft)
31.12.2023 15:10 21,0 °C 8,3 °C 51 % 81 % 1002,3 hPa 0,0 l/m² 6,4 km/h (2 Bft) SO 135 ° 0 min 35 W/m² 5,2 °C 8,3 °C 8,0 km/h (2 Bft)
31.12.2023 15:11 20,9 °C 8,3 °C 51 % 81 % 1002,3 hPa 0,0 l/m² 6,4 km/h (2 Bft) SO 135 ° 0 min 35 W/m² 5,2 °C 8,3 °C 8,0 km/h (2 Bft)
31.12.2023 15:12 20,9 °C 8,3 °C 51 % 80 % 1002,3 hPa 0,0 l/m² 4,8 km/h (1 Bft) SO 135 ° 0 min 33 W/m² 5,1 °C 8,3 °C 6,4 km/h (2 Bft)
31.12.2023 15:13 21,0 °C 8,3 °C 51 % 80 % 1002,3 hPa 0,0 l/m² 3,2 km/h (1 Bft) SO 135 ° 0 min 33 W/m² 5,1 °C 8,3 °C 6,4 km/h (2 Bft)
31.12.2023 15:14 21,0 °C 8,3 °C 51 % 80 % 1002,3 hPa 0,0 l/m² 4,8 km/h (1 Bft) SO 135 ° 0 min 33 W/m² 5,1 °C 8,3 °C 6,4 km/h (2 Bft)
31.12.2023 15:15 21,0 °C 8,3 °C 51 % 81 % 1002,3 hPa 0,0 l/m² 4,8 km/h (1 Bft) SO 135 ° 0 min 33 W/m² 5,2 °C 8,3 °C 6,4 km/h (2 Bft)
31.12.2023 15:16 21,0 °C 8,3 °C 51 % 81 % 1002,3 hPa 0,0 l/m² 4,8 km/h (1 Bft) SO 135 ° 0 min 35 W/m² 5,2 °C 8,3 °C 8,0 km/h (2 Bft)
31.12.2023 15:17 20,9 °C 8,3 °C 51 % 81 % 1002,4 hPa 0,0 l/m² 6,4 km/h (2 Bft) S-SO 157 ° 0 min 47 W/m² 5,2 °C 8,3 °C 8,0 km/h (2 Bft)
31.12.2023 15:18 21,0 °C 8,3 °C 51 % 81 % 1002,4 hPa 0,0 l/m² 6,4 km/h (2 Bft) S-SO 157 ° 1 min 56 W/m² 5,2 °C 8,3 °C 8,0 km/h (2 Bft)
31.12.2023 15:19 20,9 °C 8,2 °C 51 % 81 % 1002,4 hPa 0,0 l/m² 6,4 km/h (2 Bft) S-SO 157 ° 1 min 58 W/m² 5,1 °C 8,2 °C 8,0 km/h (2 Bft)
31.12.2023 15:20 21,0 °C 8,2 °C 51 % 81 % 1002,4 hPa 0,0 l/m² 4,8 km/h (1 Bft) S-SO 157 ° 1 min 53 W/m² 5,1 °C 8,2 °C 6,4 km/h (2 Bft)
31.12.2023 15:21 21,0 °C 8,2 °C 51 % 82 % 1002,5 hPa 0,0 l/m² 3,2 km/h (1 Bft) S-SO 157 ° 0 min 46 W/m² 5,3 °C 8,2 °C 6,4 km/h (2 Bft)
31.12.2023 15:22 20,9 °C 8,2 °C 52 % 82 % 1002,3 hPa 0,0 l/m² 3,2 km/h (1 Bft) S-SO 157 ° 0 min 44 W/m² 5,3 °C 8,2 °C 6,4 km/h (2 Bft)
31.12.2023 15:23 20,9 °C 8,2 °C 51 % 82 % 1002,4 hPa 0,0 l/m² 4,8 km/h (1 Bft) S-SO 157 ° 0 min 46 W/m² 5,3 °C 8,2 °C 8,0 km/h (2 Bft)
31.12.2023 15:24 20,9 °C 8,2 °C 52 % 82 % 1002,4 hPa 0,0 l/m² 9,7 km/h (2 Bft) SO 135 ° 0 min 46 W/m² 5,3 °C 5,8 °C 14,5 km/h (3 Bft)
31.12.2023 15:25 21,0 °C 8,2 °C 52 % 82 % 1002,4 hPa 0,0 l/m² 9,7 km/h (2 Bft) S-SO 157 ° 0 min 47 W/m² 5,3 °C 5,8 °C 12,9 km/h (3 Bft)
31.12.2023 15:26 20,9 °C 8,2 °C 52 % 82 % 1002,3 hPa 0,0 l/m² 9,7 km/h (2 Bft) SO 135 ° 0 min 49 W/m² 5,3 °C 5,8 °C 12,9 km/h (3 Bft)
31.12.2023 15:27 20,9 °C 8,2 °C 52 % 82 % 1002,3 hPa 0,0 l/m² 8,0 km/h (2 Bft) SO 135 ° 0 min 51 W/m² 5,3 °C 7,0 °C 14,5 km/h (3 Bft)
31.12.2023 15:28 20,9 °C 8,2 °C 52 % 81 % 1002,3 hPa 0,0 l/m² 8,0 km/h (2 Bft) SO 135 ° 0 min 51 W/m² 5,1 °C 7,0 °C 11,3 km/h (2 Bft)
31.12.2023 15:29 20,9 °C 8,2 °C 52 % 81 % 1002,3 hPa 0,0 l/m² 9,7 km/h (2 Bft) SO 135 ° 0 min 51 W/m² 5,1 °C 5,8 °C 14,5 km/h (3 Bft)
31.12.2023 15:30 20,9 °C 8,2 °C 52 % 81 % 1002,3 hPa 0,0 l/m² 8,0 km/h (2 Bft) S-SO 157 ° 1 min 53 W/m² 5,1 °C 7,0 °C 12,9 km/h (3 Bft)
31.12.2023 15:31 20,9 °C 8,2 °C 52 % 81 % 1002,3 hPa 0,0 l/m² 6,4 km/h (2 Bft) SO 135 ° 1 min 53 W/m² 5,1 °C 8,2 °C 12,9 km/h (3 Bft)
31.12.2023 15:32 21,0 °C 8,2 °C 52 % 81 % 1002,2 hPa 0,0 l/m² 8,0 km/h (2 Bft) SO 135 ° 0 min 51 W/m² 5,1 °C 7,0 °C 11,3 km/h (2 Bft)
31.12.2023 15:33 20,9 °C 8,2 °C 52 % 81 % 1002,2 hPa 0,0 l/m² 9,7 km/h (2 Bft) SO 135 ° 0 min 47 W/m² 5,1 °C 5,8 °C 12,9 km/h (3 Bft)
31.12.2023 15:34 21,0 °C 8,3 °C 52 % 81 % 1002,2 hPa 0,0 l/m² 6,4 km/h (2 Bft) SO 135 ° 0 min 46 W/m² 5,2 °C 8,3 °C 9,7 km/h (2 Bft)
31.12.2023 15:35 20,9 °C 8,2 °C 52 % 81 % 1002,2 hPa 0,0 l/m² 8,0 km/h (2 Bft) SO 135 ° 0 min 44 W/m² 5,1 °C 7,0 °C 14,5 km/h (3 Bft)
31.12.2023 15:36 20,9 °C 8,2 °C 52 % 81 % 1002,2 hPa 0,0 l/m² 9,7 km/h (2 Bft) S-SO 157 ° 0 min 40 W/m² 5,1 °C 5,8 °C 12,9 km/h (3 Bft)
31.12.2023 15:37 20,9 °C 8,3 °C 52 % 81 % 1002,3 hPa 0,0 l/m² 9,7 km/h (2 Bft) S-SO 157 ° 0 min 37 W/m² 5,2 °C 5,9 °C 14,5 km/h (3 Bft)
31.12.2023 15:38 20,9 °C 8,3 °C 52 % 81 % 1002,2 hPa 0,0 l/m² 11,3 km/h (2 Bft) S-SO 157 ° 0 min 33 W/m² 5,2 °C 4,9 °C 16,1 km/h (3 Bft)
31.12.2023 15:39 20,9 °C 8,2 °C 52 % 81 % 1002,3 hPa 0,0 l/m² 9,7 km/h (2 Bft) S-SO 157 ° 0 min 30 W/m² 5,1 °C 5,8 °C 14,5 km/h (3 Bft)
31.12.2023 15:40 20,9 °C 8,3 °C 52 % 81 % 1002,3 hPa 0,0 l/m² 9,7 km/h (2 Bft) S-SO 157 ° 0 min 28 W/m² 5,2 °C 5,9 °C 12,9 km/h (3 Bft)
31.12.2023 15:41 21,0 °C 8,3 °C 52 % 81 % 1002,3 hPa 0,0 l/m² 9,7 km/h (2 Bft) SO 135 ° 0 min 25 W/m² 5,2 °C 5,9 °C 14,5 km/h (3 Bft)
31.12.2023 15:42 20,9 °C 8,2 °C 52 % 81 % 1002,3 hPa 0,0 l/m² 8,0 km/h (2 Bft) SO 135 ° 0 min 23 W/m² 5,1 °C 7,0 °C 12,9 km/h (3 Bft)
31.12.2023 15:43 21,0 °C 8,3 °C 52 % 81 % 1002,4 hPa 0,0 l/m² 9,7 km/h (2 Bft) SO 135 ° 0 min 21 W/m² 5,2 °C 5,9 °C 16,1 km/h (3 Bft)
31.12.2023 15:44 21,0 °C 8,3 °C 52 % 81 % 1002,3 hPa 0,0 l/m² 9,7 km/h (2 Bft) S-SO 157 ° 0 min 18 W/m² 5,2 °C 5,9 °C 12,9 km/h (3 Bft)
31.12.2023 15:45 20,9 °C 8,3 °C 52 % 81 % 1002,4 hPa 0,0 l/m² 8,0 km/h (2 Bft) S-SO 157 ° 0 min 14 W/m² 5,2 °C 7,1 °C 9,7 km/h (2 Bft)
31.12.2023 15:46 21,0 °C 8,3 °C 52 % 81 % 1002,4 hPa 0,0 l/m² 8,0 km/h (2 Bft) S-SO 157 ° 0 min 14 W/m² 5,2 °C 7,1 °C 9,7 km/h (2 Bft)
31.12.2023 15:47 20,9 °C 8,3 °C 52 % 81 % 1002,4 hPa 0,0 l/m² 6,4 km/h (2 Bft) S-SO 157 ° 0 min 12 W/m² 5,2 °C 8,3 °C 9,7 km/h (2 Bft)
31.12.2023 15:48 20,9 °C 8,3 °C 52 % 81 % 1002,4 hPa 0,0 l/m² 8,0 km/h (2 Bft) S-SO 157 ° 0 min 12 W/m² 5,2 °C 7,1 °C 9,7 km/h (2 Bft)
31.12.2023 15:49 21,0 °C 8,3 °C 52 % 81 % 1002,4 hPa 0,0 l/m² 6,4 km/h (2 Bft) S-SO 157 ° 0 min 11 W/m² 5,2 °C 8,3 °C 11,3 km/h (2 Bft)
31.12.2023 15:50 20,9 °C 8,3 °C 52 % 81 % 1002,5 hPa 0,0 l/m² 8,0 km/h (2 Bft) S-SO 157 ° 0 min 11 W/m² 5,2 °C 7,1 °C 12,9 km/h (3 Bft)
31.12.2023 15:51 20,9 °C 8,3 °C 52 % 81 % 1002,5 hPa 0,0 l/m² 8,0 km/h (2 Bft) S-SO 157 ° 0 min 11 W/m² 5,2 °C 7,1 °C 8,0 km/h (2 Bft)
31.12.2023 15:52 20,9 °C 8,3 °C 52 % 81 % 1002,4 hPa 0,0 l/m² 8,0 km/h (2 Bft) S-SO 157 ° 0 min 11 W/m² 5,2 °C 7,1 °C 11,3 km/h (2 Bft)
31.12.2023 15:53 21,0 °C 8,3 °C 52 % 81 % 1002,4 hPa 0,0 l/m² 8,0 km/h (2 Bft) S-SO 157 ° 0 min 12 W/m² 5,2 °C 7,1 °C 9,7 km/h (2 Bft)
31.12.2023 15:54 21,0 °C 8,3 °C 52 % 81 % 1002,4 hPa 0,0 l/m² 6,4 km/h (2 Bft) S-SO 157 ° 0 min 12 W/m² 5,2 °C 8,3 °C 9,7 km/h (2 Bft)
31.12.2023 15:55 20,9 °C 8,3 °C 52 % 81 % 1002,4 hPa 0,0 l/m² 4,8 km/h (1 Bft) S-SO 157 ° 0 min 12 W/m² 5,2 °C 8,3 °C 9,7 km/h (2 Bft)
31.12.2023 15:56 20,9 °C 8,3 °C 52 % 81 % 1002,4 hPa 0,0 l/m² 4,8 km/h (1 Bft) S-SO 157 ° 0 min 14 W/m² 5,2 °C 8,3 °C 8,0 km/h (2 Bft)
31.12.2023 15:57 20,9 °C 8,3 °C 52 % 81 % 1002,4 hPa 0,0 l/m² 6,4 km/h (2 Bft) S-SO 157 ° 0 min 14 W/m² 5,2 °C 8,3 °C 12,9 km/h (3 Bft)
31.12.2023 15:58 21,0 °C 8,3 °C 52 % 81 % 1002,4 hPa 0,0 l/m² 8,0 km/h (2 Bft) S-SO 157 ° 0 min 14 W/m² 5,2 °C 7,1 °C 12,9 km/h (3 Bft)
31.12.2023 15:59 20,9 °C 8,3 °C 52 % 81 % 1002,4 hPa 0,0 l/m² 8,0 km/h (2 Bft) S-SO 157 ° 0 min 14 W/m² 5,2 °C 7,1 °C 12,9 km/h (3 Bft)
31.12.2023 16:00 21,0 °C 8,3 °C 52 % 81 % 1002,4 hPa 0,0 l/m² 8,0 km/h (2 Bft) SO 135 ° 0 min 12 W/m² 5,2 °C 7,1 °C 11,3 km/h (2 Bft)
31.12.2023 16:01 20,9 °C 8,2 °C 52 % 81 % 1002,4 hPa 0,0 l/m² 9,7 km/h (2 Bft) S-SO 157 ° 0 min 12 W/m² 5,1 °C 5,8 °C 12,9 km/h (3 Bft)
31.12.2023 16:02 20,9 °C 8,3 °C 52 % 81 % 1002,3 hPa 0,0 l/m² 6,4 km/h (2 Bft) S-SO 157 ° 0 min 11 W/m² 5,2 °C 8,3 °C 9,7 km/h (2 Bft)
31.12.2023 16:03 20,9 °C 8,2 °C 52 % 81 % 1002,3 hPa 0,0 l/m² 8,0 km/h (2 Bft) S-SO 157 ° 0 min 11 W/m² 5,1 °C 7,0 °C 11,3 km/h (2 Bft)
31.12.2023 16:04 20,9 °C 8,2 °C 52 % 81 % 1002,4 hPa 0,0 l/m² 9,7 km/h (2 Bft) S-SO 157 ° 0 min 11 W/m² 5,1 °C 5,8 °C 12,9 km/h (3 Bft)
31.12.2023 16:05 20,9 °C 8,2 °C 52 % 81 % 1002,4 hPa 0,0 l/m² 6,4 km/h (2 Bft) S-SO 157 ° 0 min 9 W/m² 5,1 °C 8,2 °C 8,0 km/h (2 Bft)
31.12.2023 16:06 20,9 °C 8,2 °C 52 % 81 % 1002,4 hPa 0,0 l/m² 6,4 km/h (2 Bft) S-SO 157 ° 0 min 9 W/m² 5,1 °C 8,2 °C 8,0 km/h (2 Bft)
31.12.2023 16:07 20,9 °C 8,2 °C 52 % 81 % 1002,3 hPa 0,0 l/m² 8,0 km/h (2 Bft) S-SO 157 ° 0 min 7 W/m² 5,1 °C 7,0 °C 12,9 km/h (3 Bft)
31.12.2023 16:08 20,9 °C 8,2 °C 52 % 81 % 1002,4 hPa 0,0 l/m² 8,0 km/h (2 Bft) S-SO 157 ° 0 min 7 W/m² 5,1 °C 7,0 °C 9,7 km/h (2 Bft)
31.12.2023 16:09 20,9 °C 8,2 °C 52 % 81 % 1002,3 hPa 0,0 l/m² 8,0 km/h (2 Bft) S-SO 157 ° 0 min 7 W/m² 5,1 °C 7,0 °C 12,9 km/h (3 Bft)
31.12.2023 16:10 20,9 °C 8,2 °C 52 % 81 % 1002,4 hPa 0,0 l/m² 8,0 km/h (2 Bft) SO 135 ° 0 min 7 W/m² 5,1 °C 7,0 °C 12,9 km/h (3 Bft)
31.12.2023 16:11 20,9 °C 8,2 °C 52 % 81 % 1002,3 hPa 0,0 l/m² 11,3 km/h (2 Bft) S-SO 157 ° 0 min 7 W/m² 5,1 °C 4,8 °C 14,5 km/h (3 Bft)
31.12.2023 16:12 20,9 °C 8,2 °C 52 % 81 % 1002,3 hPa 0,0 l/m² 9,7 km/h (2 Bft) S-SO 157 ° 0 min 7 W/m² 5,1 °C 5,8 °C 11,3 km/h (2 Bft)
31.12.2023 16:13 20,9 °C 8,2 °C 52 % 81 % 1002,3 hPa 0,0 l/m² 9,7 km/h (2 Bft) SO 135 ° 0 min 7 W/m² 5,1 °C 5,8 °C 14,5 km/h (3 Bft)
31.12.2023 16:14 20,9 °C 8,2 °C 52 % 81 % 1002,3 hPa 0,0 l/m² 9,7 km/h (2 Bft) SO 135 ° 0 min 7 W/m² 5,1 °C 5,8 °C 12,9 km/h (3 Bft)
31.12.2023 16:15 20,9 °C 8,2 °C 52 % 81 % 1002,3 hPa 0,0 l/m² 11,3 km/h (2 Bft) S-SO 157 ° 0 min 7 W/m² 5,1 °C 4,8 °C 14,5 km/h (3 Bft)
31.12.2023 16:16 20,9 °C 8,2 °C 53 % 81 % 1002,3 hPa 0,0 l/m² 9,7 km/h (2 Bft) S-SO 157 ° 0 min 7 W/m² 5,1 °C 5,8 °C 16,1 km/h (3 Bft)
31.12.2023 16:17 20,9 °C 8,1 °C 52 % 81 % 1002,3 hPa 0,0 l/m² 11,3 km/h (2 Bft) SO 135 ° 0 min 7 W/m² 5,0 °C 4,7 °C 16,1 km/h (3 Bft)
31.12.2023 16:18 20,9 °C 8,1 °C 53 % 81 % 1002,4 hPa 0,0 l/m² 11,3 km/h (2 Bft) S-SO 157 ° 0 min 7 W/m² 5,0 °C 4,7 °C 14,5 km/h (3 Bft)
31.12.2023 16:19 20,9 °C 8,1 °C 53 % 81 % 1002,3 hPa 0,0 l/m² 12,9 km/h (3 Bft) S-SO 157 ° 0 min 5 W/m² 5,0 °C 3,8 °C 17,7 km/h (3 Bft)
31.12.2023 16:20 20,9 °C 8,1 °C 53 % 81 % 1002,3 hPa 0,0 l/m² 11,3 km/h (2 Bft) S-SO 157 ° 0 min 0 W/m² 5,0 °C 4,7 °C 17,7 km/h (3 Bft)
31.12.2023 16:21 20,9 °C 8,1 °C 52 % 81 % 1002,4 hPa 0,0 l/m² 12,9 km/h (3 Bft) S-SO 157 ° 0 min 0 W/m² 5,0 °C 3,8 °C 17,7 km/h (3 Bft)
31.12.2023 16:22 20,9 °C 8,1 °C 53 % 81 % 1002,4 hPa 0,0 l/m² 12,9 km/h (3 Bft) S-SO 157 ° 0 min 0 W/m² 5,0 °C 3,8 °C 16,1 km/h (3 Bft)
31.12.2023 16:23 20,9 °C 8,1 °C 53 % 80 % 1002,4 hPa 0,0 l/m² 12,9 km/h (3 Bft) S-SO 157 ° 0 min 0 W/m² 4,9 °C 3,8 °C 16,1 km/h (3 Bft)
31.12.2023 16:24 20,9 °C 8,1 °C 53 % 81 % 1002,4 hPa 0,0 l/m² 12,9 km/h (3 Bft) S-SO 157 ° 0 min 0 W/m² 5,0 °C 3,8 °C 20,9 km/h (4 Bft)
31.12.2023 16:25 20,9 °C 8,1 °C 53 % 81 % 1002,4 hPa 0,0 l/m² 12,9 km/h (3 Bft) S-SO 157 ° 0 min 0 W/m² 5,0 °C 3,8 °C 17,7 km/h (3 Bft)
31.12.2023 16:26 20,9 °C 8,1 °C 53 % 80 % 1002,4 hPa 0,0 l/m² 12,9 km/h (3 Bft) S-SO 157 ° 0 min 0 W/m² 4,9 °C 3,8 °C 17,7 km/h (3 Bft)
31.12.2023 16:27 20,9 °C 8,1 °C 53 % 80 % 1002,4 hPa 0,0 l/m² 12,9 km/h (3 Bft) S-SO 157 ° 0 min 0 W/m² 4,9 °C 3,8 °C 14,5 km/h (3 Bft)
31.12.2023 16:28 20,9 °C 8,1 °C 53 % 80 % 1002,4 hPa 0,0 l/m² 14,5 km/h (3 Bft) S-SO 157 ° 0 min 0 W/m² 4,9 °C 3,1 °C 20,9 km/h (4 Bft)
31.12.2023 16:29 20,9 °C 8,1 °C 53 % 80 % 1002,4 hPa 0,0 l/m² 11,3 km/h (2 Bft) S-SO 157 ° 0 min 0 W/m² 4,9 °C 4,7 °C 17,7 km/h (3 Bft)
31.12.2023 16:30 20,9 °C 8,1 °C 53 % 80 % 1002,4 hPa 0,0 l/m² 14,5 km/h (3 Bft) S-SO 157 ° 0 min 0 W/m² 4,9 °C 3,1 °C 17,7 km/h (3 Bft)
31.12.2023 16:31 20,9 °C 8,1 °C 53 % 80 % 1002,4 hPa 0,0 l/m² 12,9 km/h (3 Bft) S-SO 157 ° 0 min 0 W/m² 4,9 °C 3,8 °C 16,1 km/h (3 Bft)
31.12.2023 16:32 20,9 °C 8,1 °C 53 % 80 % 1002,4 hPa 0,0 l/m² 11,3 km/h (2 Bft) S-SO 157 ° 0 min 0 W/m² 4,9 °C 4,7 °C 16,1 km/h (3 Bft)
31.12.2023 16:33 20,9 °C 8,1 °C 53 % 80 % 1002,5 hPa 0,0 l/m² 12,9 km/h (3 Bft) S-SO 157 ° 0 min 0 W/m² 4,9 °C 3,8 °C 17,7 km/h (3 Bft)
31.12.2023 16:34 20,9 °C 8,1 °C 53 % 80 % 1002,5 hPa 0,0 l/m² 12,9 km/h (3 Bft) S 180 ° 0 min 0 W/m² 4,9 °C 3,8 °C 17,7 km/h (3 Bft)
31.12.2023 16:35 20,9 °C 8,1 °C 53 % 80 % 1002,6 hPa 0,0 l/m² 12,9 km/h (3 Bft) S 180 ° 0 min 0 W/m² 4,9 °C 3,8 °C 16,1 km/h (3 Bft)
31.12.2023 16:36 20,9 °C 8,1 °C 53 % 80 % 1002,6 hPa 0,0 l/m² 12,9 km/h (3 Bft) S-SO 157 ° 0 min 0 W/m² 4,9 °C 3,8 °C 20,9 km/h (4 Bft)
31.12.2023 16:37 20,9 °C 8,1 °C 53 % 80 % 1002,6 hPa 0,0 l/m² 11,3 km/h (2 Bft) S-SO 157 ° 0 min 0 W/m² 4,9 °C 4,7 °C 16,1 km/h (3 Bft)
31.12.2023 16:38 20,9 °C 8,2 °C 53 % 80 % 1002,6 hPa 0,0 l/m² 12,9 km/h (3 Bft) S-SO 157 ° 0 min 0 W/m² 5,0 °C 4,0 °C 17,7 km/h (3 Bft)
31.12.2023 16:39 20,9 °C 8,1 °C 53 % 80 % 1002,6 hPa 0,0 l/m² 16,1 km/h (3 Bft) S-SO 157 ° 0 min 0 W/m² 4,9 °C 2,3 °C 20,9 km/h (4 Bft)
31.12.2023 16:40 20,9 °C 8,2 °C 53 % 80 % 1002,5 hPa 0,0 l/m² 11,3 km/h (2 Bft) S-SO 157 ° 0 min 0 W/m² 5,0 °C 4,8 °C 16,1 km/h (3 Bft)
31.12.2023 16:41 20,9 °C 8,2 °C 53 % 80 % 1002,7 hPa 0,0 l/m² 16,1 km/h (3 Bft) S-SO 157 ° 0 min 0 W/m² 5,0 °C 2,5 °C 22,5 km/h (4 Bft)
31.12.2023 16:42 20,9 °C 8,2 °C 53 % 79 % 1002,6 hPa 0,0 l/m² 14,5 km/h (3 Bft) S-SO 157 ° 0 min 0 W/m² 4,8 °C 3,2 °C 19,3 km/h (3 Bft)
31.12.2023 16:43 20,9 °C 8,2 °C 53 % 79 % 1002,6 hPa 0,0 l/m² 12,9 km/h (3 Bft) S-SO 157 ° 0 min 0 W/m² 4,8 °C 4,0 °C 17,7 km/h (3 Bft)
31.12.2023 16:44 20,9 °C 8,2 °C 53 % 79 % 1002,6 hPa 0,0 l/m² 12,9 km/h (3 Bft) S-SO 157 ° 0 min 0 W/m² 4,8 °C 4,0 °C 16,1 km/h (3 Bft)
31.12.2023 16:45 20,9 °C 8,2 °C 53 % 80 % 1002,6 hPa 0,0 l/m² 11,3 km/h (2 Bft) S-SO 157 ° 0 min 0 W/m² 5,0 °C 4,8 °C 16,1 km/h (3 Bft)
31.12.2023 16:46 20,9 °C 8,2 °C 53 % 80 % 1002,7 hPa 0,0 l/m² 12,9 km/h (3 Bft) S-SO 157 ° 0 min 0 W/m² 5,0 °C 4,0 °C 17,7 km/h (3 Bft)
31.12.2023 16:47 20,9 °C 8,2 °C 53 % 79 % 1002,7 hPa 0,0 l/m² 12,9 km/h (3 Bft) S-SO 157 ° 0 min 0 W/m² 4,8 °C 4,0 °C 16,1 km/h (3 Bft)
31.12.2023 16:48 20,9 °C 8,2 °C 53 % 79 % 1002,6 hPa 0,0 l/m² 12,9 km/h (3 Bft) S-SO 157 ° 0 min 0 W/m² 4,8 °C 4,0 °C 14,5 km/h (3 Bft)
31.12.2023 16:49 20,9 °C 8,2 °C 53 % 79 % 1002,6 hPa 0,0 l/m² 12,9 km/h (3 Bft) S-SO 157 ° 0 min 0 W/m² 4,8 °C 4,0 °C 20,9 km/h (4 Bft)
31.12.2023 16:50 20,9 °C 8,2 °C 53 % 79 % 1002,6 hPa 0,0 l/m² 12,9 km/h (3 Bft) S-SO 157 ° 0 min 0 W/m² 4,8 °C 4,0 °C 16,1 km/h (3 Bft)
31.12.2023 16:51 20,9 °C 8,2 °C 53 % 79 % 1002,7 hPa 0,0 l/m² 11,3 km/h (2 Bft) S-SO 157 ° 0 min 0 W/m² 4,8 °C 4,8 °C 14,5 km/h (3 Bft)
31.12.2023 16:52 20,9 °C 8,2 °C 53 % 79 % 1002,6 hPa 0,0 l/m² 9,7 km/h (2 Bft) S-SO 157 ° 0 min 0 W/m² 4,8 °C 5,8 °C 16,1 km/h (3 Bft)
31.12.2023 16:53 20,9 °C 8,2 °C 53 % 79 % 1002,6 hPa 0,0 l/m² 9,7 km/h (2 Bft) S-SO 157 ° 0 min 0 W/m² 4,8 °C 5,8 °C 14,5 km/h (3 Bft)
31.12.2023 16:54 20,9 °C 8,2 °C 53 % 79 % 1002,7 hPa 0,0 l/m² 9,7 km/h (2 Bft) S-SO 157 ° 0 min 0 W/m² 4,8 °C 5,8 °C 12,9 km/h (3 Bft)
31.12.2023 16:55 20,9 °C 8,2 °C 53 % 79 % 1002,7 hPa 0,0 l/m² 9,7 km/h (2 Bft) S-SO 157 ° 0 min 0 W/m² 4,8 °C 5,8 °C 11,3 km/h (2 Bft)
31.12.2023 16:56 20,9 °C 8,2 °C 53 % 79 % 1002,8 hPa 0,0 l/m² 9,7 km/h (2 Bft) S-SO 157 ° 0 min 0 W/m² 4,8 °C 5,8 °C 11,3 km/h (2 Bft)
31.12.2023 16:57 20,9 °C 8,2 °C 53 % 79 % 1002,8 hPa 0,0 l/m² 12,9 km/h (3 Bft) S-SO 157 ° 0 min 0 W/m² 4,8 °C 4,0 °C 16,1 km/h (3 Bft)
31.12.2023 16:58 20,9 °C 8,2 °C 53 % 79 % 1002,8 hPa 0,0 l/m² 11,3 km/h (2 Bft) S 180 ° 0 min 0 W/m² 4,8 °C 4,8 °C 14,5 km/h (3 Bft)
31.12.2023 16:59 20,9 °C 8,2 °C 53 % 79 % 1002,8 hPa 0,0 l/m² 9,7 km/h (2 Bft) S-SO 157 ° 0 min 0 W/m² 4,8 °C 5,8 °C 11,3 km/h (2 Bft)
31.12.2023 17:00 20,9 °C 8,2 °C 53 % 79 % 1002,9 hPa 0,0 l/m² 11,3 km/h (2 Bft) S 180 ° 0 min 0 W/m² 4,8 °C 4,8 °C 14,5 km/h (3 Bft)
31.12.2023 17:01 20,9 °C 8,2 °C 53 % 79 % 1002,9 hPa 0,0 l/m² 9,7 km/h (2 Bft) S 180 ° 0 min 0 W/m² 4,8 °C 5,8 °C 12,9 km/h (3 Bft)
31.12.2023 17:02 20,9 °C 8,3 °C 53 % 79 % 1002,8 hPa 0,0 l/m² 9,7 km/h (2 Bft) S 180 ° 0 min 0 W/m² 4,9 °C 5,9 °C 12,9 km/h (3 Bft)
31.12.2023 17:03 20,9 °C 8,3 °C 53 % 79 % 1002,8 hPa 0,0 l/m² 11,3 km/h (2 Bft) S 180 ° 0 min 0 W/m² 4,9 °C 4,9 °C 12,9 km/h (3 Bft)
31.12.2023 17:04 20,9 °C 8,3 °C 53 % 79 % 1002,9 hPa 0,0 l/m² 11,3 km/h (2 Bft) S 180 ° 0 min 0 W/m² 4,9 °C 4,9 °C 14,5 km/h (3 Bft)
31.12.2023 17:05 20,9 °C 8,3 °C 53 % 79 % 1002,8 hPa 0,0 l/m² 9,7 km/h (2 Bft) S 180 ° 0 min 0 W/m² 4,9 °C 5,9 °C 11,3 km/h (2 Bft)
31.12.2023 17:06 20,9 °C 8,3 °C 53 % 79 % 1002,8 hPa 0,0 l/m² 9,7 km/h (2 Bft) S-SO 157 ° 0 min 0 W/m² 4,9 °C 5,9 °C 11,3 km/h (2 Bft)
31.12.2023 17:07 20,9 °C 8,3 °C 53 % 79 % 1002,8 hPa 0,0 l/m² 8,0 km/h (2 Bft) S-SO 157 ° 0 min 0 W/m² 4,9 °C 7,1 °C 9,7 km/h (2 Bft)
31.12.2023 17:08 20,9 °C 8,2 °C 53 % 79 % 1002,8 hPa 0,0 l/m² 9,7 km/h (2 Bft) S-SO 157 ° 0 min 0 W/m² 4,8 °C 5,8 °C 14,5 km/h (3 Bft)
31.12.2023 17:09 20,9 °C 8,2 °C 53 % 79 % 1002,7 hPa 0,0 l/m² 9,7 km/h (2 Bft) S-SO 157 ° 0 min 0 W/m² 4,8 °C 5,8 °C 11,3 km/h (2 Bft)
31.12.2023 17:10 20,9 °C 8,3 °C 53 % 79 % 1002,8 hPa 0,0 l/m² 9,7 km/h (2 Bft) S-SO 157 ° 0 min 0 W/m² 4,9 °C 5,9 °C 16,1 km/h (3 Bft)
31.12.2023 17:11 20,9 °C 8,2 °C 53 % 79 % 1002,8 hPa 0,0 l/m² 11,3 km/h (2 Bft) S 180 ° 0 min 0 W/m² 4,8 °C 4,8 °C 16,1 km/h (3 Bft)
31.12.2023 17:12 20,9 °C 8,2 °C 53 % 79 % 1002,8 hPa 0,0 l/m² 9,7 km/h (2 Bft) S 180 ° 0 min 0 W/m² 4,8 °C 5,8 °C 14,5 km/h (3 Bft)
31.12.2023 17:13 20,9 °C 8,2 °C 53 % 79 % 1002,8 hPa 0,0 l/m² 11,3 km/h (2 Bft) S 180 ° 0 min 0 W/m² 4,8 °C 4,8 °C 16,1 km/h (3 Bft)
31.12.2023 17:14 20,9 °C 8,2 °C 53 % 79 % 1002,8 hPa 0,0 l/m² 11,3 km/h (2 Bft) S 180 ° 0 min 0 W/m² 4,8 °C 4,8 °C 12,9 km/h (3 Bft)
31.12.2023 17:15 20,9 °C 8,2 °C 53 % 79 % 1002,7 hPa 0,0 l/m² 9,7 km/h (2 Bft) S 180 ° 0 min 0 W/m² 4,8 °C 5,8 °C 16,1 km/h (3 Bft)
31.12.2023 17:16 20,9 °C 8,2 °C 53 % 79 % 1002,8 hPa 0,0 l/m² 9,7 km/h (2 Bft) S 180 ° 0 min 0 W/m² 4,8 °C 5,8 °C 12,9 km/h (3 Bft)
31.12.2023 17:17 20,9 °C 8,2 °C 53 % 79 % 1002,7 hPa 0,0 l/m² 9,7 km/h (2 Bft) S 180 ° 0 min 0 W/m² 4,8 °C 5,8 °C 12,9 km/h (3 Bft)
31.12.2023 17:18 20,9 °C 8,2 °C 53 % 79 % 1002,8 hPa 0,0 l/m² 8,0 km/h (2 Bft) S 180 ° 0 min 0 W/m² 4,8 °C 7,0 °C 9,7 km/h (2 Bft)
31.12.2023 17:19 20,9 °C 8,2 °C 53 % 79 % 1002,8 hPa 0,0 l/m² 8,0 km/h (2 Bft) S 180 ° 0 min 0 W/m² 4,8 °C 7,0 °C 9,7 km/h (2 Bft)
31.12.2023 17:20 20,9 °C 8,2 °C 53 % 79 % 1002,7 hPa 0,0 l/m² 8,0 km/h (2 Bft) S 180 ° 0 min 0 W/m² 4,8 °C 7,0 °C 9,7 km/h (2 Bft)
31.12.2023 17:21 20,9 °C 8,2 °C 53 % 79 % 1002,6 hPa 0,0 l/m² 8,0 km/h (2 Bft) S 180 ° 0 min 0 W/m² 4,8 °C 7,0 °C 9,7 km/h (2 Bft)
31.12.2023 17:22 20,9 °C 8,2 °C 53 % 79 % 1002,7 hPa 0,0 l/m² 6,4 km/h (2 Bft) S 180 ° 0 min 0 W/m² 4,8 °C 8,2 °C 8,0 km/h (2 Bft)
31.12.2023 17:23 20,9 °C 8,1 °C 53 % 79 % 1002,7 hPa 0,0 l/m² 6,4 km/h (2 Bft) S 180 ° 0 min 0 W/m² 4,7 °C 8,1 °C 6,4 km/h (2 Bft)
31.12.2023 17:24 20,9 °C 8,1 °C 53 % 79 % 1002,7 hPa 0,0 l/m² 6,4 km/h (2 Bft) S 180 ° 0 min 0 W/m² 4,7 °C 8,1 °C 6,4 km/h (2 Bft)
31.12.2023 17:25 20,9 °C 8,2 °C 53 % 79 % 1002,7 hPa 0,0 l/m² 6,4 km/h (2 Bft) S 180 ° 0 min 0 W/m² 4,8 °C 8,2 °C 9,7 km/h (2 Bft)
31.12.2023 17:26 20,9 °C 8,1 °C 53 % 79 % 1002,7 hPa 0,0 l/m² 8,0 km/h (2 Bft) S 180 ° 0 min 0 W/m² 4,7 °C 6,9 °C 9,7 km/h (2 Bft)
31.12.2023 17:27 20,9 °C 8,1 °C 53 % 79 % 1002,6 hPa 0,0 l/m² 8,0 km/h (2 Bft) S 180 ° 0 min 0 W/m² 4,7 °C 6,9 °C 9,7 km/h (2 Bft)
31.12.2023 17:28 20,9 °C 8,1 °C 53 % 80 % 1002,6 hPa 0,0 l/m² 9,7 km/h (2 Bft) S 180 ° 0 min 0 W/m² 4,9 °C 5,7 °C 11,3 km/h (2 Bft)
31.12.2023 17:29 20,9 °C 8,0 °C 53 % 80 % 1002,6 hPa 0,0 l/m² 9,7 km/h (2 Bft) S 180 ° 0 min 0 W/m² 4,8 °C 5,6 °C 11,3 km/h (2 Bft)
31.12.2023 17:30 20,9 °C 8,0 °C 53 % 80 % 1002,6 hPa 0,0 l/m² 9,7 km/h (2 Bft) S 180 ° 0 min 0 W/m² 4,8 °C 5,6 °C 12,9 km/h (3 Bft)
31.12.2023 17:31 20,9 °C 7,9 °C 53 % 80 % 1002,6 hPa 0,0 l/m² 11,3 km/h (2 Bft) S 180 ° 0 min 0 W/m² 4,7 °C 4,5 °C 14,5 km/h (3 Bft)
31.12.2023 17:32 20,9 °C 7,9 °C 53 % 80 % 1002,6 hPa 0,0 l/m² 12,9 km/h (3 Bft) S 180 ° 0 min 0 W/m² 4,7 °C 3,6 °C 14,5 km/h (3 Bft)
31.12.2023 17:33 20,9 °C 7,8 °C 53 % 80 % 1002,6 hPa 0,0 l/m² 12,9 km/h (3 Bft) S 180 ° 0 min 0 W/m² 4,6 °C 3,5 °C 14,5 km/h (3 Bft)
31.12.2023 17:34 20,9 °C 7,8 °C 53 % 80 % 1002,5 hPa 0,0 l/m² 12,9 km/h (3 Bft) S 180 ° 0 min 0 W/m² 4,6 °C 3,5 °C 19,3 km/h (3 Bft)
31.12.2023 17:35 20,9 °C 7,7 °C 53 % 80 % 1002,6 hPa 0,0 l/m² 14,5 km/h (3 Bft) S 180 ° 0 min 0 W/m² 4,5 °C 2,6 °C 17,7 km/h (3 Bft)
31.12.2023 17:36 20,9 °C 7,7 °C 53 % 80 % 1002,6 hPa 0,0 l/m² 14,5 km/h (3 Bft) S 180 ° 0 min 0 W/m² 4,5 °C 2,6 °C 19,3 km/h (3 Bft)
31.12.2023 17:37 20,9 °C 7,6 °C 53 % 80 % 1002,6 hPa 0,0 l/m² 16,1 km/h (3 Bft) S 180 ° 0 min 0 W/m² 4,4 °C 1,7 °C 22,5 km/h (4 Bft)
31.12.2023 17:38 20,9 °C 7,6 °C 53 % 80 % 1002,6 hPa 0,0 l/m² 17,7 km/h (3 Bft) S 180 ° 0 min 0 W/m² 4,4 °C 1,1 °C 24,1 km/h (4 Bft)
31.12.2023 17:39 20,9 °C 7,6 °C 53 % 80 % 1002,7 hPa 0,0 l/m² 16,1 km/h (3 Bft) S 180 ° 0 min 0 W/m² 4,4 °C 1,7 °C 19,3 km/h (3 Bft)
31.12.2023 17:40 20,9 °C 7,6 °C 53 % 80 % 1002,6 hPa 0,0 l/m² 14,5 km/h (3 Bft) S 180 ° 0 min 0 W/m² 4,4 °C 2,5 °C 20,9 km/h (4 Bft)
31.12.2023 17:41 20,9 °C 7,6 °C 53 % 80 % 1002,5 hPa 0,0 l/m² 16,1 km/h (3 Bft) S 180 ° 0 min 0 W/m² 4,4 °C 1,7 °C 20,9 km/h (4 Bft)
31.12.2023 17:42 20,9 °C 7,6 °C 53 % 80 % 1002,6 hPa 0,0 l/m² 14,5 km/h (3 Bft) S 180 ° 0 min 0 W/m² 4,4 °C 2,5 °C 19,3 km/h (3 Bft)
31.12.2023 17:43 20,9 °C 7,6 °C 53 % 81 % 1002,7 hPa 0,0 l/m² 16,1 km/h (3 Bft) S 180 ° 0 min 0 W/m² 4,6 °C 1,7 °C 17,7 km/h (3 Bft)
31.12.2023 17:44 20,9 °C 7,6 °C 53 % 81 % 1002,6 hPa 0,0 l/m² 14,5 km/h (3 Bft) S 180 ° 0 min 0 W/m² 4,6 °C 2,5 °C 19,3 km/h (3 Bft)
31.12.2023 17:45 20,9 °C 7,6 °C 53 % 81 % 1002,6 hPa 0,0 l/m² 16,1 km/h (3 Bft) S 180 ° 0 min 0 W/m² 4,6 °C 1,7 °C 19,3 km/h (3 Bft)
31.12.2023 17:46 20,9 °C 7,6 °C 53 % 81 % 1002,6 hPa 0,0 l/m² 16,1 km/h (3 Bft) S 180 ° 0 min 0 W/m² 4,6 °C 1,7 °C 19,3 km/h (3 Bft)
31.12.2023 17:47 20,9 °C 7,7 °C 53 % 80 % 1002,6 hPa 0,0 l/m² 16,1 km/h (3 Bft) S 180 ° 0 min 0 W/m² 4,5 °C 1,9 °C 19,3 km/h (3 Bft)
31.12.2023 17:48 20,9 °C 7,7 °C 53 % 81 % 1002,6 hPa 0,0 l/m² 14,5 km/h (3 Bft) S 180 ° 0 min 0 W/m² 4,7 °C 2,6 °C 16,1 km/h (3 Bft)
31.12.2023 17:49 20,9 °C 7,7 °C 53 % 80 % 1002,7 hPa 0,0 l/m² 16,1 km/h (3 Bft) S 180 ° 0 min 0 W/m² 4,5 °C 1,9 °C 19,3 km/h (3 Bft)
31.12.2023 17:50 20,9 °C 7,7 °C 53 % 80 % 1002,6 hPa 0,0 l/m² 16,1 km/h (3 Bft) S 180 ° 0 min 0 W/m² 4,5 °C 1,9 °C 20,9 km/h (4 Bft)
31.12.2023 17:51 20,9 °C 7,8 °C 53 % 80 % 1002,7 hPa 0,0 l/m² 17,7 km/h (3 Bft) S 180 ° 0 min 0 W/m² 4,6 °C 1,3 °C 25,7 km/h (4 Bft)
31.12.2023 17:52 20,9 °C 7,8 °C 53 % 80 % 1002,8 hPa 0,0 l/m² 16,1 km/h (3 Bft) S 180 ° 0 min 0 W/m² 4,6 °C 2,0 °C 27,4 km/h (5 Bft)
31.12.2023 17:53 20,9 °C 7,8 °C 53 % 80 % 1002,8 hPa 0,0 l/m² 14,5 km/h (3 Bft) S 180 ° 0 min 0 W/m² 4,6 °C 2,7 °C 19,3 km/h (3 Bft)
31.12.2023 17:54 20,9 °C 7,8 °C 53 % 80 % 1002,8 hPa 0,0 l/m² 14,5 km/h (3 Bft) S-SW 202 ° 0 min 0 W/m² 4,6 °C 2,7 °C 17,7 km/h (3 Bft)
31.12.2023 17:55 20,9 °C 7,8 °C 53 % 80 % 1002,8 hPa 0,0 l/m² 14,5 km/h (3 Bft) S-SW 202 ° 0 min 0 W/m² 4,6 °C 2,7 °C 17,7 km/h (3 Bft)
31.12.2023 17:56 20,9 °C 7,8 °C 53 % 80 % 1002,9 hPa 0,0 l/m² 12,9 km/h (3 Bft) S-SW 202 ° 0 min 0 W/m² 4,6 °C 3,5 °C 16,1 km/h (3 Bft)
31.12.2023 17:57 20,9 °C 7,8 °C 53 % 80 % 1002,8 hPa 0,0 l/m² 14,5 km/h (3 Bft) S 180 ° 0 min 0 W/m² 4,6 °C 2,7 °C 16,1 km/h (3 Bft)
31.12.2023 17:58 20,9 °C 7,8 °C 53 % 80 % 1002,9 hPa 0,0 l/m² 12,9 km/h (3 Bft) S 180 ° 0 min 0 W/m² 4,6 °C 3,5 °C 16,1 km/h (3 Bft)
31.12.2023 17:59 20,9 °C 7,8 °C 53 % 80 % 1002,9 hPa 0,0 l/m² 16,1 km/h (3 Bft) S 180 ° 0 min 0 W/m² 4,6 °C 2,0 °C 22,5 km/h (4 Bft)
31.12.2023 18:00 20,9 °C 7,8 °C 53 % 80 % 1002,9 hPa 0,0 l/m² 17,7 km/h (3 Bft) S 180 ° 0 min 0 W/m² 4,6 °C 1,3 °C 19,3 km/h (3 Bft)
31.12.2023 18:01 20,9 °C 7,8 °C 53 % 80 % 1003,0 hPa 0,0 l/m² 16,1 km/h (3 Bft) S-SW 202 ° 0 min 0 W/m² 4,6 °C 2,0 °C 17,7 km/h (3 Bft)
31.12.2023 18:02 20,9 °C 7,8 °C 53 % 80 % 1003,0 hPa 0,0 l/m² 16,1 km/h (3 Bft) S 180 ° 0 min 0 W/m² 4,6 °C 2,0 °C 22,5 km/h (4 Bft)
31.12.2023 18:03 20,9 °C 7,8 °C 53 % 80 % 1002,9 hPa 0,0 l/m² 16,1 km/h (3 Bft) S 180 ° 0 min 0 W/m² 4,6 °C 2,0 °C 22,5 km/h (4 Bft)
31.12.2023 18:04 20,9 °C 7,8 °C 53 % 80 % 1002,9 hPa 0,0 l/m² 16,1 km/h (3 Bft) S 180 ° 0 min 0 W/m² 4,6 °C 2,0 °C 22,5 km/h (4 Bft)
31.12.2023 18:05 20,9 °C 7,8 °C 53 % 80 % 1002,9 hPa 0,0 l/m² 17,7 km/h (3 Bft) S 180 ° 0 min 0 W/m² 4,6 °C 1,3 °C 22,5 km/h (4 Bft)
31.12.2023 18:06 20,9 °C 7,8 °C 53 % 80 % 1002,9 hPa 0,0 l/m² 19,3 km/h (3 Bft) S 180 ° 0 min 0 W/m² 4,6 °C 0,7 °C 27,4 km/h (5 Bft)
31.12.2023 18:07 20,9 °C 7,9 °C 53 % 80 % 1002,8 hPa 0,0 l/m² 17,7 km/h (3 Bft) S 180 ° 0 min 0 W/m² 4,7 °C 1,4 °C 24,1 km/h (4 Bft)
31.12.2023 18:08 20,9 °C 7,8 °C 53 % 80 % 1002,7 hPa 0,0 l/m² 19,3 km/h (3 Bft) S 180 ° 0 min 0 W/m² 4,6 °C 0,7 °C 25,7 km/h (4 Bft)
31.12.2023 18:09 20,9 °C 7,8 °C 53 % 80 % 1002,7 hPa 0,0 l/m² 19,3 km/h (3 Bft) S 180 ° 0 min 0 W/m² 4,6 °C 0,7 °C 25,7 km/h (4 Bft)
31.12.2023 18:10 20,9 °C 7,9 °C 53 % 80 % 1002,7 hPa 0,0 l/m² 19,3 km/h (3 Bft) S 180 ° 0 min 0 W/m² 4,7 °C 0,8 °C 27,4 km/h (5 Bft)
31.12.2023 18:11 20,9 °C 7,8 °C 53 % 80 % 1002,7 hPa 0,0 l/m² 19,3 km/h (3 Bft) S 180 ° 0 min 0 W/m² 4,6 °C 0,7 °C 24,1 km/h (4 Bft)
31.12.2023 18:12 20,9 °C 7,8 °C 53 % 80 % 1002,7 hPa 0,0 l/m² 17,7 km/h (3 Bft) S 180 ° 0 min 0 W/m² 4,6 °C 1,3 °C 22,5 km/h (4 Bft)
31.12.2023 18:13 20,9 °C 7,8 °C 53 % 80 % 1002,8 hPa 0,0 l/m² 17,7 km/h (3 Bft) S 180 ° 0 min 0 W/m² 4,6 °C 1,3 °C 25,7 km/h (4 Bft)
31.12.2023 18:14 20,9 °C 7,8 °C 53 % 80 % 1002,9 hPa 0,0 l/m² 20,9 km/h (4 Bft) S 180 ° 0 min 0 W/m² 4,6 °C 0,1 °C 25,7 km/h (4 Bft)
31.12.2023 18:15 20,9 °C 7,8 °C 53 % 80 % 1002,9 hPa 0,0 l/m² 17,7 km/h (3 Bft) S 180 ° 0 min 0 W/m² 4,6 °C 1,3 °C 24,1 km/h (4 Bft)
31.12.2023 18:16 20,9 °C 7,8 °C 53 % 80 % 1002,8 hPa 0,0 l/m² 19,3 km/h (3 Bft) S 180 ° 0 min 0 W/m² 4,6 °C 0,7 °C 29,0 km/h (5 Bft)
31.12.2023 18:17 20,9 °C 7,8 °C 53 % 80 % 1002,9 hPa 0,0 l/m² 17,7 km/h (3 Bft) S 180 ° 0 min 0 W/m² 4,6 °C 1,3 °C 29,0 km/h (5 Bft)
31.12.2023 18:18 20,9 °C 7,8 °C 53 % 80 % 1002,8 hPa 0,0 l/m² 17,7 km/h (3 Bft) S 180 ° 0 min 0 W/m² 4,6 °C 1,3 °C 24,1 km/h (4 Bft)
31.12.2023 18:19 20,9 °C 7,8 °C 53 % 80 % 1002,8 hPa 0,0 l/m² 14,5 km/h (3 Bft) S 180 ° 0 min 0 W/m² 4,6 °C 2,7 °C 19,3 km/h (3 Bft)
31.12.2023 18:20 20,9 °C 7,8 °C 53 % 80 % 1002,9 hPa 0,0 l/m² 17,7 km/h (3 Bft) S 180 ° 0 min 0 W/m² 4,6 °C 1,3 °C 22,5 km/h (4 Bft)
31.12.2023 18:21 20,9 °C 7,8 °C 53 % 80 % 1002,9 hPa 0,0 l/m² 17,7 km/h (3 Bft) S 180 ° 0 min 0 W/m² 4,6 °C 1,3 °C 24,1 km/h (4 Bft)
31.12.2023 18:22 20,9 °C 7,8 °C 53 % 80 % 1003,0 hPa 0,0 l/m² 16,1 km/h (3 Bft) S 180 ° 0 min 0 W/m² 4,6 °C 2,0 °C 19,3 km/h (3 Bft)
31.12.2023 18:23 20,9 °C 7,8 °C 53 % 80 % 1003,0 hPa 0,0 l/m² 17,7 km/h (3 Bft) S 180 ° 0 min 0 W/m² 4,6 °C 1,3 °C 25,7 km/h (4 Bft)
31.12.2023 18:24 20,9 °C 7,8 °C 53 % 80 % 1003,0 hPa 0,0 l/m² 16,1 km/h (3 Bft) S 180 ° 0 min 0 W/m² 4,6 °C 2,0 °C 22,5 km/h (4 Bft)
31.12.2023 18:25 20,9 °C 7,7 °C 53 % 80 % 1003,0 hPa 0,0 l/m² 17,7 km/h (3 Bft) S 180 ° 0 min 0 W/m² 4,5 °C 1,2 °C 24,1 km/h (4 Bft)
31.12.2023 18:26 20,9 °C 7,8 °C 53 % 80 % 1003,1 hPa 0,0 l/m² 12,9 km/h (3 Bft) S 180 ° 0 min 0 W/m² 4,6 °C 3,5 °C 17,7 km/h (3 Bft)
31.12.2023 18:27 20,9 °C 7,7 °C 53 % 80 % 1003,2 hPa 0,0 l/m² 16,1 km/h (3 Bft) S 180 ° 0 min 0 W/m² 4,5 °C 1,9 °C 17,7 km/h (3 Bft)
31.12.2023 18:28 20,9 °C 7,7 °C 53 % 80 % 1003,2 hPa 0,0 l/m² 12,9 km/h (3 Bft) S 180 ° 0 min 0 W/m² 4,5 °C 3,4 °C 16,1 km/h (3 Bft)
31.12.2023 18:29 20,9 °C 7,7 °C 53 % 80 % 1003,3 hPa 0,0 l/m² 12,9 km/h (3 Bft) S 180 ° 0 min 0 W/m² 4,5 °C 3,4 °C 16,1 km/h (3 Bft)
31.12.2023 18:30 20,9 °C 7,7 °C 53 % 81 % 1003,4 hPa 0,0 l/m² 11,3 km/h (2 Bft) S 180 ° 0 min 0 W/m² 4,7 °C 4,3 °C 17,7 km/h (3 Bft)
31.12.2023 18:31 20,9 °C 7,7 °C 53 % 81 % 1003,4 hPa 0,0 l/m² 14,5 km/h (3 Bft) S 180 ° 0 min 0 W/m² 4,7 °C 2,6 °C 19,3 km/h (3 Bft)
31.12.2023 18:32 20,9 °C 7,7 °C 53 % 81 % 1003,5 hPa 0,0 l/m² 12,9 km/h (3 Bft) S 180 ° 0 min 0 W/m² 4,7 °C 3,4 °C 17,7 km/h (3 Bft)
31.12.2023 18:33 20,9 °C 7,7 °C 53 % 81 % 1003,4 hPa 0,0 l/m² 11,3 km/h (2 Bft) S 180 ° 0 min 0 W/m² 4,7 °C 4,3 °C 22,5 km/h (4 Bft)
31.12.2023 18:34 20,9 °C 7,7 °C 53 % 81 % 1003,5 hPa 0,0 l/m² 12,9 km/h (3 Bft) S 180 ° 0 min 0 W/m² 4,7 °C 3,4 °C 17,7 km/h (3 Bft)
31.12.2023 18:35 20,9 °C 7,7 °C 53 % 81 % 1003,4 hPa 0,0 l/m² 14,5 km/h (3 Bft) S 180 ° 0 min 0 W/m² 4,7 °C 2,6 °C 19,3 km/h (3 Bft)
31.12.2023 18:36 20,9 °C 7,6 °C 53 % 81 % 1003,4 hPa 0,0 l/m² 14,5 km/h (3 Bft) S 180 ° 0 min 0 W/m² 4,6 °C 2,5 °C 24,1 km/h (4 Bft)
31.12.2023 18:37 20,9 °C 7,6 °C 53 % 81 % 1003,4 hPa 0,0 l/m² 14,5 km/h (3 Bft) S 180 ° 0 min 0 W/m² 4,6 °C 2,5 °C 16,1 km/h (3 Bft)
31.12.2023 18:38 20,9 °C 7,6 °C 53 % 81 % 1003,5 hPa 0,0 l/m² 11,3 km/h (2 Bft) S 180 ° 0 min 0 W/m² 4,6 °C 4,1 °C 12,9 km/h (3 Bft)
31.12.2023 18:39 20,9 °C 7,6 °C 53 % 81 % 1003,5 hPa 0,0 l/m² 12,9 km/h (3 Bft) S 180 ° 0 min 0 W/m² 4,6 °C 3,3 °C 17,7 km/h (3 Bft)
31.12.2023 18:40 20,9 °C 7,6 °C 53 % 81 % 1003,6 hPa 0,0 l/m² 11,3 km/h (2 Bft) S 180 ° 0 min 0 W/m² 4,6 °C 4,1 °C 14,5 km/h (3 Bft)
31.12.2023 18:41 20,9 °C 7,6 °C 53 % 81 % 1003,6 hPa 0,0 l/m² 12,9 km/h (3 Bft) S 180 ° 0 min 0 W/m² 4,6 °C 3,3 °C 16,1 km/h (3 Bft)
31.12.2023 18:42 20,9 °C 7,5 °C 53 % 81 % 1003,6 hPa 0,0 l/m² 12,9 km/h (3 Bft) S 180 ° 0 min 0 W/m² 4,5 °C 3,1 °C 17,7 km/h (3 Bft)
31.12.2023 18:43 20,9 °C 7,5 °C 53 % 81 % 1003,7 hPa 0,0 l/m² 14,5 km/h (3 Bft) S 180 ° 0 min 0 W/m² 4,5 °C 2,3 °C 22,5 km/h (4 Bft)
31.12.2023 18:44 20,9 °C 7,4 °C 53 % 81 % 1003,5 hPa 0,0 l/m² 12,9 km/h (3 Bft) S 180 ° 0 min 0 W/m² 4,4 °C 3,0 °C 14,5 km/h (3 Bft)
31.12.2023 18:45 20,9 °C 7,5 °C 53 % 82 % 1003,5 hPa 0,0 l/m² 12,9 km/h (3 Bft) S 180 ° 0 min 0 W/m² 4,6 °C 3,1 °C 16,1 km/h (3 Bft)
31.12.2023 18:46 20,9 °C 7,5 °C 53 % 82 % 1003,6 hPa 0,0 l/m² 11,3 km/h (2 Bft) S 180 ° 0 min 0 W/m² 4,6 °C 4,0 °C 16,1 km/h (3 Bft)
31.12.2023 18:47 20,9 °C 7,4 °C 53 % 82 % 1003,5 hPa 0,0 l/m² 12,9 km/h (3 Bft) S-SO 157 ° 0 min 0 W/m² 4,5 °C 3,0 °C 16,1 km/h (3 Bft)
31.12.2023 18:48 20,9 °C 7,4 °C 53 % 82 % 1003,4 hPa 0,0 l/m² 12,9 km/h (3 Bft) S 180 ° 0 min 0 W/m² 4,5 °C 3,0 °C 17,7 km/h (3 Bft)
31.12.2023 18:49 20,9 °C 7,4 °C 53 % 82 % 1003,4 hPa 0,0 l/m² 14,5 km/h (3 Bft) S 180 ° 0 min 0 W/m² 4,5 °C 2,2 °C 20,9 km/h (4 Bft)
31.12.2023 18:50 20,9 °C 7,4 °C 53 % 82 % 1003,5 hPa 0,0 l/m² 12,9 km/h (3 Bft) S 180 ° 0 min 0 W/m² 4,5 °C 3,0 °C 17,7 km/h (3 Bft)
31.12.2023 18:51 20,9 °C 7,4 °C 53 % 82 % 1003,5 hPa 0,0 l/m² 12,9 km/h (3 Bft) S 180 ° 0 min 0 W/m² 4,5 °C 3,0 °C 14,5 km/h (3 Bft)
31.12.2023 18:52 20,9 °C 7,4 °C 53 % 82 % 1003,5 hPa 0,0 l/m² 11,3 km/h (2 Bft) S 180 ° 0 min 0 W/m² 4,5 °C 3,9 °C 14,5 km/h (3 Bft)
31.12.2023 18:53 20,9 °C 7,4 °C 53 % 82 % 1003,4 hPa 0,0 l/m² 17,7 km/h (3 Bft) S 180 ° 0 min 0 W/m² 4,5 °C 0,8 °C 29,0 km/h (5 Bft)
31.12.2023 18:54 20,9 °C 7,4 °C 53 % 82 % 1003,5 hPa 0,0 l/m² 9,7 km/h (2 Bft) S 180 ° 0 min 0 W/m² 4,5 °C 4,9 °C 12,9 km/h (3 Bft)
31.12.2023 18:55 20,9 °C 7,4 °C 53 % 82 % 1003,5 hPa 0,0 l/m² 11,3 km/h (2 Bft) S 180 ° 0 min 0 W/m² 4,5 °C 3,9 °C 14,5 km/h (3 Bft)
31.12.2023 18:56 20,9 °C 7,4 °C 53 % 82 % 1003,5 hPa 0,0 l/m² 11,3 km/h (2 Bft) S 180 ° 0 min 0 W/m² 4,5 °C 3,9 °C 16,1 km/h (3 Bft)
31.12.2023 18:57 20,9 °C 7,4 °C 53 % 82 % 1003,4 hPa 0,0 l/m² 11,3 km/h (2 Bft) S 180 ° 0 min 0 W/m² 4,5 °C 3,9 °C 16,1 km/h (3 Bft)
31.12.2023 18:58 20,9 °C 7,4 °C 53 % 82 % 1003,5 hPa 0,0 l/m² 12,9 km/h (3 Bft) S-SW 202 ° 0 min 0 W/m² 4,5 °C 3,0 °C 16,1 km/h (3 Bft)
31.12.2023 18:59 20,9 °C 7,4 °C 53 % 82 % 1003,5 hPa 0,0 l/m² 11,3 km/h (2 Bft) S 180 ° 0 min 0 W/m² 4,5 °C 3,9 °C 14,5 km/h (3 Bft)
31.12.2023 19:00 20,9 °C 7,4 °C 53 % 82 % 1003,4 hPa 0,0 l/m² 12,9 km/h (3 Bft) S 180 ° 0 min 0 W/m² 4,5 °C 3,0 °C 16,1 km/h (3 Bft)
31.12.2023 19:01 20,9 °C 7,4 °C 53 % 82 % 1003,3 hPa 0,0 l/m² 12,9 km/h (3 Bft) S 180 ° 0 min 0 W/m² 4,5 °C 3,0 °C 17,7 km/h (3 Bft)
31.12.2023 19:02 20,9 °C 7,4 °C 53 % 82 % 1003,1 hPa 0,0 l/m² 9,7 km/h (2 Bft) S 180 ° 0 min 0 W/m² 4,5 °C 4,9 °C 14,5 km/h (3 Bft)
31.12.2023 19:03 20,9 °C 7,4 °C 53 % 82 % 1003,1 hPa 0,0 l/m² 11,3 km/h (2 Bft) S 180 ° 0 min 0 W/m² 4,5 °C 3,9 °C 14,5 km/h (3 Bft)
31.12.2023 19:04 20,9 °C 7,3 °C 53 % 82 % 1003,1 hPa 0,0 l/m² 8,0 km/h (2 Bft) S 180 ° 0 min 0 W/m² 4,4 °C 6,0 °C 11,3 km/h (2 Bft)
31.12.2023 19:05 20,9 °C 7,4 °C 53 % 82 % 1003,1 hPa 0,0 l/m² 9,7 km/h (2 Bft) S 180 ° 0 min 0 W/m² 4,5 °C 4,9 °C 11,3 km/h (2 Bft)
31.12.2023 19:06 20,9 °C 7,3 °C 53 % 82 % 1003,1 hPa 0,0 l/m² 11,3 km/h (2 Bft) S 180 ° 0 min 0 W/m² 4,4 °C 3,8 °C 16,1 km/h (3 Bft)
31.12.2023 19:07 20,9 °C 7,4 °C 53 % 82 % 1003,3 hPa 0,0 l/m² 12,9 km/h (3 Bft) S 180 ° 0 min 0 W/m² 4,5 °C 3,0 °C 17,7 km/h (3 Bft)
31.12.2023 19:08 20,9 °C 7,4 °C 53 % 82 % 1003,3 hPa 0,0 l/m² 14,5 km/h (3 Bft) S 180 ° 0 min 0 W/m² 4,5 °C 2,2 °C 19,3 km/h (3 Bft)
31.12.2023 19:09 20,9 °C 7,3 °C 53 % 83 % 1003,3 hPa 0,0 l/m² 11,3 km/h (2 Bft) S 180 ° 0 min 0 W/m² 4,6 °C 3,8 °C 14,5 km/h (3 Bft)
31.12.2023 19:10 20,9 °C 7,4 °C 53 % 82 % 1003,4 hPa 0,0 l/m² 11,3 km/h (2 Bft) S 180 ° 0 min 0 W/m² 4,5 °C 3,9 °C 12,9 km/h (3 Bft)
31.12.2023 19:11 20,9 °C 7,4 °C 53 % 83 % 1003,4 hPa 0,0 l/m² 9,7 km/h (2 Bft) S-SW 202 ° 0 min 0 W/m² 4,7 °C 4,9 °C 14,5 km/h (3 Bft)
31.12.2023 19:12 20,9 °C 7,4 °C 53 % 83 % 1003,4 hPa 0,0 l/m² 14,5 km/h (3 Bft) S 180 ° 0 min 0 W/m² 4,7 °C 2,2 °C 17,7 km/h (3 Bft)
31.12.2023 19:13 20,9 °C 7,4 °C 53 % 82 % 1003,4 hPa 0,0 l/m² 14,5 km/h (3 Bft) S 180 ° 0 min 0 W/m² 4,5 °C 2,2 °C 19,3 km/h (3 Bft)
31.12.2023 19:14 20,9 °C 7,4 °C 53 % 83 % 1003,4 hPa 0,0 l/m² 12,9 km/h (3 Bft) S-SW 202 ° 0 min 0 W/m² 4,7 °C 3,0 °C 17,7 km/h (3 Bft)
31.12.2023 19:15 20,9 °C 7,4 °C 53 % 82 % 1003,4 hPa 0,0 l/m² 12,9 km/h (3 Bft) S-SW 202 ° 0 min 0 W/m² 4,5 °C 3,0 °C 14,5 km/h (3 Bft)
31.12.2023 19:16 20,9 °C 7,4 °C 53 % 82 % 1003,4 hPa 0,0 l/m² 9,7 km/h (2 Bft) S 180 ° 0 min 0 W/m² 4,5 °C 4,9 °C 17,7 km/h (3 Bft)
31.12.2023 19:17 20,9 °C 7,4 °C 53 % 83 % 1003,5 hPa 0,0 l/m² 11,3 km/h (2 Bft) S 180 ° 0 min 0 W/m² 4,7 °C 3,9 °C 16,1 km/h (3 Bft)
31.12.2023 19:18 20,9 °C 7,5 °C 53 % 82 % 1003,4 hPa 0,0 l/m² 9,7 km/h (2 Bft) S 180 ° 0 min 0 W/m² 4,6 °C 5,0 °C 12,9 km/h (3 Bft)
31.12.2023 19:19 20,9 °C 7,4 °C 53 % 82 % 1003,6 hPa 0,0 l/m² 11,3 km/h (2 Bft) S 180 ° 0 min 0 W/m² 4,5 °C 3,9 °C 14,5 km/h (3 Bft)
31.12.2023 19:20 20,9 °C 7,5 °C 53 % 82 % 1003,6 hPa 0,0 l/m² 9,7 km/h (2 Bft) S 180 ° 0 min 0 W/m² 4,6 °C 5,0 °C 14,5 km/h (3 Bft)
31.12.2023 19:21 20,9 °C 7,5 °C 53 % 82 % 1003,6 hPa 0,0 l/m² 9,7 km/h (2 Bft) S-SW 202 ° 0 min 0 W/m² 4,6 °C 5,0 °C 14,5 km/h (3 Bft)
31.12.2023 19:22 20,9 °C 7,5 °C 53 % 82 % 1003,6 hPa 0,0 l/m² 9,7 km/h (2 Bft) S 180 ° 0 min 0 W/m² 4,6 °C 5,0 °C 12,9 km/h (3 Bft)
31.12.2023 19:23 20,9 °C 7,4 °C 53 % 83 % 1003,6 hPa 0,0 l/m² 9,7 km/h (2 Bft) S-SW 202 ° 0 min 0 W/m² 4,7 °C 4,9 °C 12,9 km/h (3 Bft)
31.12.2023 19:24 20,9 °C 7,4 °C 53 % 82 % 1003,7 hPa 0,0 l/m² 11,3 km/h (2 Bft) S-SW 202 ° 0 min 0 W/m² 4,5 °C 3,9 °C 14,5 km/h (3 Bft)
31.12.2023 19:25 20,9 °C 7,5 °C 53 % 82 % 1003,7 hPa 0,0 l/m² 9,7 km/h (2 Bft) S-SW 202 ° 0 min 0 W/m² 4,6 °C 5,0 °C 14,5 km/h (3 Bft)
31.12.2023 19:26 20,9 °C 7,4 °C 53 % 82 % 1003,7 hPa 0,0 l/m² 9,7 km/h (2 Bft) S 180 ° 0 min 0 W/m² 4,5 °C 4,9 °C 12,9 km/h (3 Bft)
31.12.2023 19:27 20,9 °C 7,5 °C 53 % 82 % 1003,6 hPa 0,0 l/m² 8,0 km/h (2 Bft) S 180 ° 0 min 0 W/m² 4,6 °C 6,2 °C 9,7 km/h (2 Bft)
31.12.2023 19:28 20,9 °C 7,5 °C 53 % 82 % 1003,7 hPa 0,0 l/m² 9,7 km/h (2 Bft) S 180 ° 0 min 0 W/m² 4,6 °C 5,0 °C 14,5 km/h (3 Bft)
31.12.2023 19:29 20,9 °C 7,5 °C 53 % 82 % 1003,7 hPa 0,0 l/m² 9,7 km/h (2 Bft) S 180 ° 0 min 0 W/m² 4,6 °C 5,0 °C 16,1 km/h (3 Bft)
31.12.2023 19:30 20,9 °C 7,5 °C 53 % 82 % 1003,8 hPa 0,0 l/m² 11,3 km/h (2 Bft) S 180 ° 0 min 0 W/m² 4,6 °C 4,0 °C 17,7 km/h (3 Bft)
31.12.2023 19:31 20,9 °C 7,5 °C 53 % 82 % 1003,7 hPa 0,0 l/m² 12,9 km/h (3 Bft) S-SW 202 ° 0 min 0 W/m² 4,6 °C 3,1 °C 14,5 km/h (3 Bft)
31.12.2023 19:32 20,9 °C 7,5 °C 53 % 82 % 1003,7 hPa 0,0 l/m² 12,9 km/h (3 Bft) S 180 ° 0 min 0 W/m² 4,6 °C 3,1 °C 14,5 km/h (3 Bft)
31.12.2023 19:33 20,9 °C 7,6 °C 53 % 82 % 1003,8 hPa 0,0 l/m² 11,3 km/h (2 Bft) S 180 ° 0 min 0 W/m² 4,7 °C 4,1 °C 12,9 km/h (3 Bft)
31.12.2023 19:34 20,9 °C 7,5 °C 53 % 82 % 1003,8 hPa 0,0 l/m² 8,0 km/h (2 Bft) S 180 ° 0 min 0 W/m² 4,6 °C 6,2 °C 8,0 km/h (2 Bft)
31.12.2023 19:35 20,9 °C 7,5 °C 53 % 82 % 1003,8 hPa 0,0 l/m² 8,0 km/h (2 Bft) S 180 ° 0 min 0 W/m² 4,6 °C 6,2 °C 9,7 km/h (2 Bft)
31.12.2023 19:36 20,9 °C 7,5 °C 53 % 82 % 1003,7 hPa 0,0 l/m² 4,8 km/h (1 Bft) S 180 ° 0 min 0 W/m² 4,6 °C 7,5 °C 8,0 km/h (2 Bft)
31.12.2023 19:37 20,9 °C 7,5 °C 53 % 82 % 1003,7 hPa 0,0 l/m² 8,0 km/h (2 Bft) S 180 ° 0 min 0 W/m² 4,6 °C 6,2 °C 11,3 km/h (2 Bft)
31.12.2023 19:38 20,9 °C 7,5 °C 53 % 82 % 1003,7 hPa 0,0 l/m² 6,4 km/h (2 Bft) S 180 ° 0 min 0 W/m² 4,6 °C 7,5 °C 8,0 km/h (2 Bft)
31.12.2023 19:39 20,9 °C 7,5 °C 53 % 82 % 1003,7 hPa 0,0 l/m² 6,4 km/h (2 Bft) S 180 ° 0 min 0 W/m² 4,6 °C 7,5 °C 9,7 km/h (2 Bft)
31.12.2023 19:40 20,9 °C 7,4 °C 53 % 82 % 1003,7 hPa 0,0 l/m² 6,4 km/h (2 Bft) S 180 ° 0 min 0 W/m² 4,5 °C 7,4 °C 8,0 km/h (2 Bft)
31.12.2023 19:41 20,9 °C 7,4 °C 53 % 82 % 1003,6 hPa 0,0 l/m² 6,4 km/h (2 Bft) S 180 ° 0 min 0 W/m² 4,5 °C 7,4 °C 8,0 km/h (2 Bft)
31.12.2023 19:42 20,9 °C 7,4 °C 53 % 82 % 1003,7 hPa 0,0 l/m² 4,8 km/h (1 Bft) S 180 ° 0 min 0 W/m² 4,5 °C 7,4 °C 6,4 km/h (2 Bft)
31.12.2023 19:43 20,9 °C 7,4 °C 53 % 82 % 1003,7 hPa 0,0 l/m² 6,4 km/h (2 Bft) S 180 ° 0 min 0 W/m² 4,5 °C 7,4 °C 11,3 km/h (2 Bft)
31.12.2023 19:44 20,9 °C 7,4 °C 53 % 82 % 1003,7 hPa 0,0 l/m² 4,8 km/h (1 Bft) S 180 ° 0 min 0 W/m² 4,5 °C 7,4 °C 8,0 km/h (2 Bft)
31.12.2023 19:45 20,9 °C 7,4 °C 53 % 82 % 1003,7 hPa 0,0 l/m² 4,8 km/h (1 Bft) S 180 ° 0 min 0 W/m² 4,5 °C 7,4 °C 6,4 km/h (2 Bft)
31.12.2023 19:46 20,9 °C 7,4 °C 53 % 82 % 1003,6 hPa 0,0 l/m² 6,4 km/h (2 Bft) S 180 ° 0 min 0 W/m² 4,5 °C 7,4 °C 9,7 km/h (2 Bft)
31.12.2023 19:47 20,9 °C 7,4 °C 53 % 82 % 1003,7 hPa 0,0 l/m² 6,4 km/h (2 Bft) S 180 ° 0 min 0 W/m² 4,5 °C 7,4 °C 9,7 km/h (2 Bft)
31.12.2023 19:48 20,9 °C 7,4 °C 53 % 82 % 1003,6 hPa 0,0 l/m² 3,2 km/h (1 Bft) S 180 ° 0 min 0 W/m² 4,5 °C 7,4 °C 6,4 km/h (2 Bft)
31.12.2023 19:49 20,9 °C 7,4 °C 53 % 82 % 1003,8 hPa 0,0 l/m² 3,2 km/h (1 Bft) S 180 ° 0 min 0 W/m² 4,5 °C 7,4 °C 4,8 km/h (1 Bft)
31.12.2023 19:50 20,9 °C 7,4 °C 53 % 82 % 1003,7 hPa 0,0 l/m² 1,6 km/h (1 Bft) S 180 ° 0 min 0 W/m² 4,5 °C 7,4 °C 3,2 km/h (1 Bft)
31.12.2023 19:51 20,9 °C 7,4 °C 53 % 82 % 1003,7 hPa 0,0 l/m² 1,6 km/h (1 Bft) S 180 ° 0 min 0 W/m² 4,5 °C 7,4 °C 3,2 km/h (1 Bft)
31.12.2023 19:52 20,9 °C 7,4 °C 53 % 82 % 1003,7 hPa 0,0 l/m² 1,6 km/h (1 Bft) S 180 ° 0 min 0 W/m² 4,5 °C 7,4 °C 3,2 km/h (1 Bft)
31.12.2023 19:53 20,9 °C 7,3 °C 53 % 82 % 1003,8 hPa 0,0 l/m² 1,6 km/h (1 Bft) S 180 ° 0 min 0 W/m² 4,4 °C 7,3 °C 4,8 km/h (1 Bft)
31.12.2023 19:54 20,9 °C 7,3 °C 53 % 82 % 1003,8 hPa 0,0 l/m² 3,2 km/h (1 Bft) S 180 ° 0 min 0 W/m² 4,4 °C 7,3 °C 3,2 km/h (1 Bft)
31.12.2023 19:55 20,9 °C 7,4 °C 53 % 82 % 1003,9 hPa 0,0 l/m² 1,6 km/h (1 Bft) S 180 ° 0 min 0 W/m² 4,5 °C 7,4 °C 3,2 km/h (1 Bft)
31.12.2023 19:56 20,9 °C 7,3 °C 53 % 82 % 1003,8 hPa 0,0 l/m² 0,0 km/h (0 Bft) S 180 ° 0 min 0 W/m² 4,4 °C 7,3 °C 3,2 km/h (1 Bft)
31.12.2023 19:57 20,9 °C 7,3 °C 53 % 82 % 1003,9 hPa 0,0 l/m² 1,6 km/h (1 Bft) S 180 ° 0 min 0 W/m² 4,4 °C 7,3 °C 3,2 km/h (1 Bft)
31.12.2023 19:58 20,9 °C 7,3 °C 53 % 82 % 1004,0 hPa 0,0 l/m² 1,6 km/h (1 Bft) S 180 ° 0 min 0 W/m² 4,4 °C 7,3 °C 3,2 km/h (1 Bft)
31.12.2023 19:59 20,9 °C 7,3 °C 53 % 82 % 1004,0 hPa 0,0 l/m² 1,6 km/h (1 Bft) S 180 ° 0 min 0 W/m² 4,4 °C 7,3 °C 3,2 km/h (1 Bft)
31.12.2023 20:00 20,9 °C 7,3 °C 53 % 82 % 1004,0 hPa 0,0 l/m² 1,6 km/h (1 Bft) S 180 ° 0 min 0 W/m² 4,4 °C 7,3 °C 3,2 km/h (1 Bft)
31.12.2023 20:01 20,9 °C 7,3 °C 53 % 82 % 1004,0 hPa 0,0 l/m² 1,6 km/h (1 Bft) S 180 ° 0 min 0 W/m² 4,4 °C 7,3 °C 3,2 km/h (1 Bft)
31.12.2023 20:02 20,9 °C 7,2 °C 53 % 82 % 1004,0 hPa 0,0 l/m² 1,6 km/h (1 Bft) S 180 ° 0 min 0 W/m² 4,3 °C 7,2 °C 3,2 km/h (1 Bft)
31.12.2023 20:03 20,9 °C 7,2 °C 53 % 82 % 1004,0 hPa 0,0 l/m² 1,6 km/h (1 Bft) S 180 ° 0 min 0 W/m² 4,3 °C 7,2 °C 3,2 km/h (1 Bft)
31.12.2023 20:04 20,9 °C 7,2 °C 53 % 82 % 1004,0 hPa 0,0 l/m² 1,6 km/h (1 Bft) S 180 ° 0 min 0 W/m² 4,3 °C 7,2 °C 3,2 km/h (1 Bft)
31.12.2023 20:05 20,9 °C 7,2 °C 53 % 82 % 1004,0 hPa 0,0 l/m² 1,6 km/h (1 Bft) S 180 ° 0 min 0 W/m² 4,3 °C 7,2 °C 3,2 km/h (1 Bft)
31.12.2023 20:06 20,9 °C 7,2 °C 53 % 82 % 1004,0 hPa 0,0 l/m² 3,2 km/h (1 Bft) S 180 ° 0 min 0 W/m² 4,3 °C 7,2 °C 3,2 km/h (1 Bft)
31.12.2023 20:07 20,9 °C 7,1 °C 53 % 82 % 1004,0 hPa 0,0 l/m² 3,2 km/h (1 Bft) S 180 ° 0 min 0 W/m² 4,2 °C 7,1 °C 3,2 km/h (1 Bft)
31.12.2023 20:08 20,9 °C 7,1 °C 53 % 82 % 1004,0 hPa 0,0 l/m² 1,6 km/h (1 Bft) S 180 ° 0 min 0 W/m² 4,2 °C 7,1 °C 1,6 km/h (1 Bft)
31.12.2023 20:09 20,8 °C 7,1 °C 53 % 82 % 1004,1 hPa 0,0 l/m² 0,0 km/h (0 Bft) S 180 ° 0 min 0 W/m² 4,2 °C 7,1 °C 3,2 km/h (1 Bft)
31.12.2023 20:10 20,9 °C 7,1 °C 53 % 82 % 1004,0 hPa 0,0 l/m² 0,0 km/h (0 Bft) S 180 ° 0 min 0 W/m² 4,2 °C 7,1 °C 1,6 km/h (1 Bft)
31.12.2023 20:11 20,9 °C 7,1 °C 53 % 82 % 1004,0 hPa 0,0 l/m² 1,6 km/h (1 Bft) S 180 ° 0 min 0 W/m² 4,2 °C 7,1 °C 3,2 km/h (1 Bft)
31.12.2023 20:12 20,9 °C 7,1 °C 53 % 82 % 1004,1 hPa 0,0 l/m² 1,6 km/h (1 Bft) S 180 ° 0 min 0 W/m² 4,2 °C 7,1 °C 3,2 km/h (1 Bft)
31.12.2023 20:13 20,8 °C 7,0 °C 53 % 82 % 1004,1 hPa 0,0 l/m² 1,6 km/h (1 Bft) S 180 ° 0 min 0 W/m² 4,1 °C 7,0 °C 3,2 km/h (1 Bft)
31.12.2023 20:14 20,8 °C 7,1 °C 53 % 82 % 1004,1 hPa 0,0 l/m² 0,0 km/h (0 Bft) S 180 ° 0 min 0 W/m² 4,2 °C 7,1 °C 1,6 km/h (1 Bft)
31.12.2023 20:15 20,9 °C 7,0 °C 53 % 82 % 1004,0 hPa 0,0 l/m² 0,0 km/h (0 Bft) N 0 ° 0 min 0 W/m² 4,1 °C 7,0 °C 0,0 km/h (0 Bft)
31.12.2023 20:16 20,9 °C 6,9 °C 53 % 82 % 1004,1 hPa 0,0 l/m² 1,6 km/h (1 Bft) S 180 ° 0 min 0 W/m² 4,0 °C 6,9 °C 3,2 km/h (1 Bft)
31.12.2023 20:17 20,9 °C 6,9 °C 53 % 82 % 1004,0 hPa 0,0 l/m² 3,2 km/h (1 Bft) S 180 ° 0 min 0 W/m² 4,0 °C 6,9 °C 3,2 km/h (1 Bft)
31.12.2023 20:18 20,8 °C 6,9 °C 53 % 82 % 1004,1 hPa 0,0 l/m² 3,2 km/h (1 Bft) S 180 ° 0 min 0 W/m² 4,0 °C 6,9 °C 3,2 km/h (1 Bft)
31.12.2023 20:19 20,8 °C 6,9 °C 53 % 82 % 1004,1 hPa 0,0 l/m² 1,6 km/h (1 Bft) S 180 ° 0 min 0 W/m² 4,0 °C 6,9 °C 3,2 km/h (1 Bft)
31.12.2023 20:20 20,8 °C 6,8 °C 53 % 82 % 1004,1 hPa 0,0 l/m² 3,2 km/h (1 Bft) S 180 ° 0 min 0 W/m² 3,9 °C 6,8 °C 4,8 km/h (1 Bft)
31.12.2023 20:21 20,9 °C 6,8 °C 53 % 82 % 1004,1 hPa 0,0 l/m² 4,8 km/h (1 Bft) S 180 ° 0 min 0 W/m² 3,9 °C 6,8 °C 6,4 km/h (2 Bft)
31.12.2023 20:22 20,8 °C 6,8 °C 53 % 82 % 1004,0 hPa 0,0 l/m² 3,2 km/h (1 Bft) S 180 ° 0 min 0 W/m² 3,9 °C 6,8 °C 4,8 km/h (1 Bft)
31.12.2023 20:23 20,8 °C 6,7 °C 53 % 82 % 1004,1 hPa 0,0 l/m² 3,2 km/h (1 Bft) S 180 ° 0 min 0 W/m² 3,8 °C 6,7 °C 4,8 km/h (1 Bft)
31.12.2023 20:24 20,8 °C 6,7 °C 53 % 82 % 1004,1 hPa 0,0 l/m² 3,2 km/h (1 Bft) S 180 ° 0 min 0 W/m² 3,8 °C 6,7 °C 6,4 km/h (2 Bft)
31.12.2023 20:25 20,9 °C 6,7 °C 53 % 82 % 1004,0 hPa 0,0 l/m² 3,2 km/h (1 Bft) S 180 ° 0 min 0 W/m² 3,8 °C 6,7 °C 4,8 km/h (1 Bft)
31.12.2023 20:26 20,9 °C 6,7 °C 54 % 82 % 1004,2 hPa 0,0 l/m² 4,8 km/h (1 Bft) S-SO 157 ° 0 min 0 W/m² 3,8 °C 6,7 °C 6,4 km/h (2 Bft)
31.12.2023 20:27 20,9 °C 6,6 °C 53 % 82 % 1004,2 hPa 0,0 l/m² 4,8 km/h (1 Bft) S-SO 157 ° 0 min 0 W/m² 3,8 °C 6,6 °C 8,0 km/h (2 Bft)
31.12.2023 20:28 20,8 °C 6,6 °C 54 % 83 % 1004,1 hPa 0,0 l/m² 4,8 km/h (1 Bft) S-SO 157 ° 0 min 0 W/m² 3,9 °C 6,6 °C 8,0 km/h (2 Bft)
31.12.2023 20:29 20,8 °C 6,6 °C 53 % 83 % 1004,1 hPa 0,0 l/m² 4,8 km/h (1 Bft) S-SO 157 ° 0 min 0 W/m² 3,9 °C 6,6 °C 11,3 km/h (2 Bft)
31.12.2023 20:30 20,8 °C 6,5 °C 54 % 83 % 1004,2 hPa 0,0 l/m² 4,8 km/h (1 Bft) SO 135 ° 0 min 0 W/m² 3,8 °C 6,5 °C 6,4 km/h (2 Bft)
31.12.2023 20:31 20,8 °C 6,6 °C 53 % 83 % 1004,2 hPa 0,0 l/m² 4,8 km/h (1 Bft) SO 135 ° 0 min 0 W/m² 3,9 °C 6,6 °C 6,4 km/h (2 Bft)
31.12.2023 20:32 20,8 °C 6,5 °C 54 % 83 % 1004,2 hPa 0,0 l/m² 6,4 km/h (2 Bft) SO 135 ° 0 min 0 W/m² 3,8 °C 6,5 °C 8,0 km/h (2 Bft)
31.12.2023 20:33 20,8 °C 6,5 °C 54 % 83 % 1004,1 hPa 0,0 l/m² 4,8 km/h (1 Bft) SO 135 ° 0 min 0 W/m² 3,8 °C 6,5 °C 6,4 km/h (2 Bft)
31.12.2023 20:34 20,9 °C 6,5 °C 54 % 83 % 1004,1 hPa 0,0 l/m² 4,8 km/h (1 Bft) SO 135 ° 0 min 0 W/m² 3,8 °C 6,5 °C 11,3 km/h (2 Bft)
31.12.2023 20:35 20,8 °C 6,5 °C 53 % 83 % 1004,2 hPa 0,0 l/m² 3,2 km/h (1 Bft) SO 135 ° 0 min 0 W/m² 3,8 °C 6,5 °C 8,0 km/h (2 Bft)
31.12.2023 20:36 20,8 °C 6,4 °C 54 % 83 % 1004,2 hPa 0,0 l/m² 8,0 km/h (2 Bft) SO 135 ° 0 min 0 W/m² 3,7 °C 5,1 °C 12,9 km/h (3 Bft)
31.12.2023 20:37 20,8 °C 6,5 °C 53 % 83 % 1004,1 hPa 0,0 l/m² 4,8 km/h (1 Bft) S-SO 157 ° 0 min 0 W/m² 3,8 °C 6,5 °C 9,7 km/h (2 Bft)
31.12.2023 20:38 20,8 °C 6,4 °C 54 % 83 % 1004,2 hPa 0,0 l/m² 6,4 km/h (2 Bft) S-SO 157 ° 0 min 0 W/m² 3,7 °C 6,4 °C 9,7 km/h (2 Bft)
31.12.2023 20:39 20,9 °C 6,4 °C 54 % 83 % 1004,1 hPa 0,0 l/m² 6,4 km/h (2 Bft) S-SO 157 ° 0 min 0 W/m² 3,7 °C 6,4 °C 8,0 km/h (2 Bft)
31.12.2023 20:40 20,8 °C 6,4 °C 54 % 83 % 1004,2 hPa 0,0 l/m² 6,4 km/h (2 Bft) S-SO 157 ° 0 min 0 W/m² 3,7 °C 6,4 °C 8,0 km/h (2 Bft)
31.12.2023 20:41 20,8 °C 6,4 °C 54 % 83 % 1004,1 hPa 0,0 l/m² 6,4 km/h (2 Bft) S-SO 157 ° 0 min 0 W/m² 3,7 °C 6,4 °C 9,7 km/h (2 Bft)
31.12.2023 20:42 20,8 °C 6,4 °C 53 % 83 % 1004,1 hPa 0,0 l/m² 8,0 km/h (2 Bft) S-SO 157 ° 0 min 0 W/m² 3,7 °C 5,1 °C 11,3 km/h (2 Bft)
31.12.2023 20:43 20,8 °C 6,4 °C 53 % 83 % 1004,3 hPa 0,0 l/m² 8,0 km/h (2 Bft) S-SO 157 ° 0 min 0 W/m² 3,7 °C 5,1 °C 9,7 km/h (2 Bft)
31.12.2023 20:44 20,9 °C 6,4 °C 54 % 83 % 1004,2 hPa 0,0 l/m² 8,0 km/h (2 Bft) S-SO 157 ° 0 min 0 W/m² 3,7 °C 5,1 °C 9,7 km/h (2 Bft)
31.12.2023 20:45 20,8 °C 6,4 °C 54 % 83 % 1004,2 hPa 0,0 l/m² 8,0 km/h (2 Bft) S 180 ° 0 min 0 W/m² 3,7 °C 5,1 °C 9,7 km/h (2 Bft)
31.12.2023 20:46 20,8 °C 6,4 °C 53 % 83 % 1004,2 hPa 0,0 l/m² 8,0 km/h (2 Bft) S 180 ° 0 min 0 W/m² 3,7 °C 5,1 °C 12,9 km/h (3 Bft)
31.12.2023 20:47 20,8 °C 6,4 °C 54 % 83 % 1004,2 hPa 0,0 l/m² 8,0 km/h (2 Bft) S-SO 157 ° 0 min 0 W/m² 3,7 °C 5,1 °C 14,5 km/h (3 Bft)
31.12.2023 20:48 20,8 °C 6,4 °C 53 % 83 % 1004,1 hPa 0,0 l/m² 6,4 km/h (2 Bft) S-SO 157 ° 0 min 0 W/m² 3,7 °C 6,4 °C 11,3 km/h (2 Bft)
31.12.2023 20:49 20,8 °C 6,4 °C 53 % 83 % 1004,2 hPa 0,0 l/m² 8,0 km/h (2 Bft) S-SO 157 ° 0 min 0 W/m² 3,7 °C 5,1 °C 11,3 km/h (2 Bft)
31.12.2023 20:50 20,8 °C 6,4 °C 53 % 83 % 1004,3 hPa 0,0 l/m² 6,4 km/h (2 Bft) S-SO 157 ° 0 min 0 W/m² 3,7 °C 6,4 °C 8,0 km/h (2 Bft)
31.12.2023 20:51 20,9 °C 6,4 °C 54 % 83 % 1004,3 hPa 0,0 l/m² 6,4 km/h (2 Bft) S-SO 157 ° 0 min 0 W/m² 3,7 °C 6,4 °C 9,7 km/h (2 Bft)
31.12.2023 20:52 20,8 °C 6,4 °C 54 % 84 % 1004,3 hPa 0,0 l/m² 4,8 km/h (1 Bft) S-SO 157 ° 0 min 0 W/m² 3,9 °C 6,4 °C 8,0 km/h (2 Bft)
31.12.2023 20:53 20,8 °C 6,4 °C 54 % 84 % 1004,3 hPa 0,0 l/m² 4,8 km/h (1 Bft) S-SO 157 ° 0 min 0 W/m² 3,9 °C 6,4 °C 8,0 km/h (2 Bft)
31.12.2023 20:54 20,8 °C 6,4 °C 54 % 84 % 1004,4 hPa 0,0 l/m² 4,8 km/h (1 Bft) S-SO 157 ° 0 min 0 W/m² 3,9 °C 6,4 °C 8,0 km/h (2 Bft)
31.12.2023 20:55 20,8 °C 6,4 °C 53 % 84 % 1004,4 hPa 0,0 l/m² 4,8 km/h (1 Bft) S-SO 157 ° 0 min 0 W/m² 3,9 °C 6,4 °C 9,7 km/h (2 Bft)
31.12.2023 20:56 20,8 °C 6,4 °C 54 % 84 % 1004,4 hPa 0,0 l/m² 8,0 km/h (2 Bft) S-SO 157 ° 0 min 0 W/m² 3,9 °C 5,1 °C 11,3 km/h (2 Bft)
31.12.2023 20:57 20,8 °C 6,4 °C 53 % 83 % 1004,4 hPa 0,0 l/m² 8,0 km/h (2 Bft) S-SO 157 ° 0 min 0 W/m² 3,7 °C 5,1 °C 11,3 km/h (2 Bft)
31.12.2023 20:58 20,8 °C 6,4 °C 53 % 83 % 1004,5 hPa 0,0 l/m² 8,0 km/h (2 Bft) S-SO 157 ° 0 min 0 W/m² 3,7 °C 5,1 °C 12,9 km/h (3 Bft)
31.12.2023 20:59 20,9 °C 6,4 °C 54 % 84 % 1004,5 hPa 0,0 l/m² 6,4 km/h (2 Bft) S 180 ° 0 min 0 W/m² 3,9 °C 6,4 °C 9,7 km/h (2 Bft)
31.12.2023 21:00 20,8 °C 6,4 °C 53 % 84 % 1004,5 hPa 0,0 l/m² 4,8 km/h (1 Bft) S 180 ° 0 min 0 W/m² 3,9 °C 6,4 °C 8,0 km/h (2 Bft)
31.12.2023 21:01 20,8 °C 6,4 °C 54 % 84 % 1004,6 hPa 0,0 l/m² 3,2 km/h (1 Bft) S 180 ° 0 min 0 W/m² 3,9 °C 6,4 °C 6,4 km/h (2 Bft)
31.12.2023 21:02 20,8 °C 6,4 °C 54 % 84 % 1004,5 hPa 0,0 l/m² 4,8 km/h (1 Bft) S 180 ° 0 min 0 W/m² 3,9 °C 6,4 °C 6,4 km/h (2 Bft)
31.12.2023 21:03 20,8 °C 6,4 °C 53 % 83 % 1004,6 hPa 0,0 l/m² 4,8 km/h (1 Bft) S 180 ° 0 min 0 W/m² 3,7 °C 6,4 °C 8,0 km/h (2 Bft)
31.12.2023 21:04 20,8 °C 6,4 °C 54 % 83 % 1004,6 hPa 0,0 l/m² 4,8 km/h (1 Bft) S 180 ° 0 min 0 W/m² 3,7 °C 6,4 °C 8,0 km/h (2 Bft)
31.12.2023 21:05 20,8 °C 6,4 °C 54 % 83 % 1004,7 hPa 0,0 l/m² 3,2 km/h (1 Bft) S 180 ° 0 min 0 W/m² 3,7 °C 6,4 °C 6,4 km/h (2 Bft)
31.12.2023 21:06 20,8 °C 6,4 °C 54 % 83 % 1004,6 hPa 0,0 l/m² 8,0 km/h (2 Bft) S 180 ° 0 min 0 W/m² 3,7 °C 5,1 °C 11,3 km/h (2 Bft)
31.12.2023 21:07 20,9 °C 6,4 °C 54 % 83 % 1004,6 hPa 0,0 l/m² 6,4 km/h (2 Bft) S 180 ° 0 min 0 W/m² 3,7 °C 6,4 °C 8,0 km/h (2 Bft)
31.12.2023 21:08 20,9 °C 6,4 °C 53 % 83 % 1004,7 hPa 0,0 l/m² 8,0 km/h (2 Bft) S 180 ° 0 min 0 W/m² 3,7 °C 5,1 °C 11,3 km/h (2 Bft)
31.12.2023 21:09 20,8 °C 6,4 °C 54 % 83 % 1004,7 hPa 0,0 l/m² 8,0 km/h (2 Bft) S 180 ° 0 min 0 W/m² 3,7 °C 5,1 °C 9,7 km/h (2 Bft)
31.12.2023 21:10 20,9 °C 6,4 °C 54 % 83 % 1004,7 hPa 0,0 l/m² 6,4 km/h (2 Bft) S 180 ° 0 min 0 W/m² 3,7 °C 6,4 °C 9,7 km/h (2 Bft)
31.12.2023 21:11 20,9 °C 6,4 °C 54 % 83 % 1004,6 hPa 0,0 l/m² 8,0 km/h (2 Bft) S 180 ° 0 min 0 W/m² 3,7 °C 5,1 °C 11,3 km/h (2 Bft)
31.12.2023 21:12 20,9 °C 6,4 °C 54 % 83 % 1004,7 hPa 0,0 l/m² 8,0 km/h (2 Bft) S 180 ° 0 min 0 W/m² 3,7 °C 5,1 °C 9,7 km/h (2 Bft)
31.12.2023 21:13 20,8 °C 6,3 °C 53 % 83 % 1004,6 hPa 0,0 l/m² 8,0 km/h (2 Bft) S-SO 157 ° 0 min 0 W/m² 3,6 °C 5,0 °C 11,3 km/h (2 Bft)
31.12.2023 21:14 20,8 °C 6,4 °C 54 % 83 % 1004,7 hPa 0,0 l/m² 6,4 km/h (2 Bft) S 180 ° 0 min 0 W/m² 3,7 °C 6,4 °C 9,7 km/h (2 Bft)
31.12.2023 21:15 20,8 °C 6,4 °C 54 % 83 % 1004,6 hPa 0,0 l/m² 8,0 km/h (2 Bft) S 180 ° 0 min 0 W/m² 3,7 °C 5,1 °C 12,9 km/h (3 Bft)
31.12.2023 21:16 20,9 °C 6,3 °C 53 % 83 % 1004,6 hPa 0,0 l/m² 8,0 km/h (2 Bft) S 180 ° 0 min 0 W/m² 3,6 °C 5,0 °C 9,7 km/h (2 Bft)
31.12.2023 21:17 20,9 °C 6,4 °C 53 % 83 % 1004,6 hPa 0,0 l/m² 6,4 km/h (2 Bft) S 180 ° 0 min 0 W/m² 3,7 °C 6,4 °C 9,7 km/h (2 Bft)
31.12.2023 21:18 20,9 °C 6,4 °C 53 % 83 % 1004,5 hPa 0,0 l/m² 8,0 km/h (2 Bft) S 180 ° 0 min 0 W/m² 3,7 °C 5,1 °C 11,3 km/h (2 Bft)
31.12.2023 21:19 20,9 °C 6,4 °C 53 % 84 % 1004,5 hPa 0,0 l/m² 6,4 km/h (2 Bft) S 180 ° 0 min 0 W/m² 3,9 °C 6,4 °C 9,7 km/h (2 Bft)
31.12.2023 21:20 20,9 °C 6,3 °C 53 % 84 % 1004,5 hPa 0,0 l/m² 6,4 km/h (2 Bft) S 180 ° 0 min 0 W/m² 3,8 °C 6,3 °C 11,3 km/h (2 Bft)
31.12.2023 21:21 20,9 °C 6,4 °C 53 % 84 % 1004,5 hPa 0,0 l/m² 6,4 km/h (2 Bft) S 180 ° 0 min 0 W/m² 3,9 °C 6,4 °C 11,3 km/h (2 Bft)
31.12.2023 21:22 20,9 °C 6,4 °C 53 % 84 % 1004,5 hPa 0,0 l/m² 8,0 km/h (2 Bft) S 180 ° 0 min 0 W/m² 3,9 °C 5,1 °C 9,7 km/h (2 Bft)
31.12.2023 21:23 20,9 °C 6,4 °C 53 % 84 % 1004,5 hPa 0,0 l/m² 6,4 km/h (2 Bft) S 180 ° 0 min 0 W/m² 3,9 °C 6,4 °C 9,7 km/h (2 Bft)
31.12.2023 21:24 20,9 °C 6,4 °C 53 % 84 % 1004,5 hPa 0,0 l/m² 11,3 km/h (2 Bft) S 180 ° 0 min 0 W/m² 3,9 °C 2,8 °C 16,1 km/h (3 Bft)
31.12.2023 21:25 20,9 °C 6,4 °C 53 % 84 % 1004,5 hPa 0,0 l/m² 11,3 km/h (2 Bft) S 180 ° 0 min 0 W/m² 3,9 °C 2,8 °C 16,1 km/h (3 Bft)
31.12.2023 21:26 20,9 °C 6,4 °C 53 % 84 % 1004,6 hPa 0,0 l/m² 9,7 km/h (2 Bft) S 180 ° 0 min 0 W/m² 3,9 °C 3,8 °C 14,5 km/h (3 Bft)
31.12.2023 21:27 20,9 °C 6,4 °C 53 % 84 % 1004,6 hPa 0,0 l/m² 11,3 km/h (2 Bft) S 180 ° 0 min 0 W/m² 3,9 °C 2,8 °C 14,5 km/h (3 Bft)
31.12.2023 21:28 20,9 °C 6,4 °C 53 % 84 % 1004,6 hPa 0,0 l/m² 8,0 km/h (2 Bft) S 180 ° 0 min 0 W/m² 3,9 °C 5,1 °C 14,5 km/h (3 Bft)
31.12.2023 21:29 20,9 °C 6,4 °C 53 % 84 % 1004,7 hPa 0,0 l/m² 9,7 km/h (2 Bft) S 180 ° 0 min 0 W/m² 3,9 °C 3,8 °C 14,5 km/h (3 Bft)
31.12.2023 21:30 20,9 °C 6,4 °C 53 % 84 % 1004,7 hPa 0,0 l/m² 9,7 km/h (2 Bft) S 180 ° 0 min 0 W/m² 3,9 °C 3,8 °C 12,9 km/h (3 Bft)
31.12.2023 21:31 20,9 °C 6,4 °C 53 % 84 % 1004,7 hPa 0,0 l/m² 9,7 km/h (2 Bft) S 180 ° 0 min 0 W/m² 3,9 °C 3,8 °C 12,9 km/h (3 Bft)
31.12.2023 21:32 20,9 °C 6,4 °C 53 % 84 % 1004,7 hPa 0,0 l/m² 11,3 km/h (2 Bft) S 180 ° 0 min 0 W/m² 3,9 °C 2,8 °C 14,5 km/h (3 Bft)
31.12.2023 21:33 20,9 °C 6,5 °C 53 % 84 % 1004,7 hPa 0,0 l/m² 11,3 km/h (2 Bft) S 180 ° 0 min 0 W/m² 4,0 °C 2,9 °C 14,5 km/h (3 Bft)
31.12.2023 21:34 20,9 °C 6,5 °C 53 % 84 % 1004,8 hPa 0,0 l/m² 11,3 km/h (2 Bft) S 180 ° 0 min 0 W/m² 4,0 °C 2,9 °C 12,9 km/h (3 Bft)
31.12.2023 21:35 20,9 °C 6,6 °C 53 % 84 % 1004,7 hPa 0,0 l/m² 11,3 km/h (2 Bft) S 180 ° 0 min 0 W/m² 4,1 °C 3,0 °C 16,1 km/h (3 Bft)
31.12.2023 21:36 20,9 °C 6,6 °C 53 % 84 % 1004,7 hPa 0,0 l/m² 12,9 km/h (3 Bft) S 180 ° 0 min 0 W/m² 4,1 °C 2,1 °C 16,1 km/h (3 Bft)
31.12.2023 21:37 20,9 °C 6,6 °C 53 % 84 % 1004,7 hPa 0,0 l/m² 11,3 km/h (2 Bft) S 180 ° 0 min 0 W/m² 4,1 °C 3,0 °C 12,9 km/h (3 Bft)
31.12.2023 21:38 20,9 °C 6,6 °C 53 % 84 % 1004,7 hPa 0,0 l/m² 8,0 km/h (2 Bft) S-SW 202 ° 0 min 0 W/m² 4,1 °C 5,3 °C 11,3 km/h (2 Bft)
31.12.2023 21:39 20,9 °C 6,6 °C 53 % 83 % 1004,8 hPa 0,0 l/m² 8,0 km/h (2 Bft) S 180 ° 0 min 0 W/m² 3,9 °C 5,3 °C 12,9 km/h (3 Bft)
31.12.2023 21:40 20,9 °C 6,6 °C 53 % 83 % 1004,8 hPa 0,0 l/m² 9,7 km/h (2 Bft) S 180 ° 0 min 0 W/m² 3,9 °C 4,0 °C 12,9 km/h (3 Bft)
31.12.2023 21:41 20,9 °C 6,7 °C 53 % 83 % 1004,8 hPa 0,0 l/m² 12,9 km/h (3 Bft) S 180 ° 0 min 0 W/m² 4,0 °C 2,2 °C 16,1 km/h (3 Bft)
31.12.2023 21:42 20,9 °C 6,7 °C 53 % 83 % 1004,8 hPa 0,0 l/m² 11,3 km/h (2 Bft) S 180 ° 0 min 0 W/m² 4,0 °C 3,1 °C 14,5 km/h (3 Bft)
31.12.2023 21:43 20,9 °C 6,7 °C 53 % 83 % 1004,8 hPa 0,0 l/m² 9,7 km/h (2 Bft) S 180 ° 0 min 0 W/m² 4,0 °C 4,2 °C 12,9 km/h (3 Bft)
31.12.2023 21:44 20,9 °C 6,7 °C 53 % 83 % 1004,8 hPa 0,0 l/m² 6,4 km/h (2 Bft) S 180 ° 0 min 0 W/m² 4,0 °C 6,7 °C 8,0 km/h (2 Bft)
31.12.2023 21:45 20,9 °C 6,8 °C 53 % 83 % 1004,7 hPa 0,0 l/m² 6,4 km/h (2 Bft) S 180 ° 0 min 0 W/m² 4,1 °C 6,8 °C 8,0 km/h (2 Bft)
31.12.2023 21:46 20,9 °C 6,7 °C 53 % 83 % 1004,7 hPa 0,0 l/m² 4,8 km/h (1 Bft) S 180 ° 0 min 0 W/m² 4,0 °C 6,7 °C 6,4 km/h (2 Bft)
31.12.2023 21:47 20,9 °C 6,7 °C 53 % 83 % 1004,8 hPa 0,0 l/m² 3,2 km/h (1 Bft) S 180 ° 0 min 0 W/m² 4,0 °C 6,7 °C 4,8 km/h (1 Bft)
31.12.2023 21:48 20,9 °C 6,8 °C 53 % 83 % 1004,7 hPa 0,0 l/m² 3,2 km/h (1 Bft) S 180 ° 0 min 0 W/m² 4,1 °C 6,8 °C 4,8 km/h (1 Bft)
31.12.2023 21:49 20,9 °C 6,7 °C 53 % 83 % 1004,7 hPa 0,0 l/m² 3,2 km/h (1 Bft) S 180 ° 0 min 0 W/m² 4,0 °C 6,7 °C 4,8 km/h (1 Bft)
31.12.2023 21:50 20,9 °C 6,7 °C 53 % 83 % 1004,7 hPa 0,0 l/m² 3,2 km/h (1 Bft) S 180 ° 0 min 0 W/m² 4,0 °C 6,7 °C 4,8 km/h (1 Bft)
31.12.2023 21:51 20,9 °C 6,7 °C 53 % 83 % 1004,7 hPa 0,0 l/m² 4,8 km/h (1 Bft) S 180 ° 0 min 0 W/m² 4,0 °C 6,7 °C 6,4 km/h (2 Bft)
31.12.2023 21:52 20,9 °C 6,7 °C 53 % 82 % 1004,7 hPa 0,0 l/m² 3,2 km/h (1 Bft) S 180 ° 0 min 0 W/m² 3,8 °C 6,7 °C 4,8 km/h (1 Bft)
31.12.2023 21:53 20,9 °C 6,7 °C 53 % 82 % 1004,7 hPa 0,0 l/m² 1,6 km/h (1 Bft) S 180 ° 0 min 0 W/m² 3,8 °C 6,7 °C 3,2 km/h (1 Bft)
31.12.2023 21:54 20,9 °C 6,8 °C 53 % 82 % 1004,7 hPa 0,0 l/m² 1,6 km/h (1 Bft) S 180 ° 0 min 0 W/m² 3,9 °C 6,8 °C 3,2 km/h (1 Bft)
31.12.2023 21:55 20,9 °C 6,7 °C 53 % 82 % 1004,7 hPa 0,0 l/m² 1,6 km/h (1 Bft) S 180 ° 0 min 0 W/m² 3,8 °C 6,7 °C 3,2 km/h (1 Bft)
31.12.2023 21:56 20,9 °C 6,7 °C 53 % 82 % 1004,8 hPa 0,0 l/m² 1,6 km/h (1 Bft) S 180 ° 0 min 0 W/m² 3,8 °C 6,7 °C 3,2 km/h (1 Bft)
31.12.2023 21:57 20,9 °C 6,7 °C 53 % 82 % 1004,8 hPa 0,0 l/m² 1,6 km/h (1 Bft) S 180 ° 0 min 0 W/m² 3,8 °C 6,7 °C 3,2 km/h (1 Bft)
31.12.2023 21:58 20,9 °C 6,7 °C 53 % 82 % 1004,8 hPa 0,0 l/m² 1,6 km/h (1 Bft) S 180 ° 0 min 0 W/m² 3,8 °C 6,7 °C 3,2 km/h (1 Bft)
31.12.2023 21:59 20,9 °C 6,7 °C 53 % 82 % 1004,8 hPa 0,0 l/m² 1,6 km/h (1 Bft) S 180 ° 0 min 0 W/m² 3,8 °C 6,7 °C 3,2 km/h (1 Bft)
31.12.2023 22:00 20,9 °C 6,7 °C 53 % 82 % 1004,9 hPa 0,0 l/m² 1,6 km/h (1 Bft) S 180 ° 0 min 0 W/m² 3,8 °C 6,7 °C 3,2 km/h (1 Bft)
31.12.2023 22:01 20,9 °C 6,7 °C 53 % 82 % 1004,8 hPa 0,0 l/m² 1,6 km/h (1 Bft) S 180 ° 0 min 0 W/m² 3,8 °C 6,7 °C 3,2 km/h (1 Bft)
31.12.2023 22:02 20,9 °C 6,7 °C 53 % 82 % 1004,8 hPa 0,0 l/m² 0,0 km/h (0 Bft) S 180 ° 0 min 0 W/m² 3,8 °C 6,7 °C 1,6 km/h (1 Bft)
31.12.2023 22:03 20,9 °C 6,7 °C 53 % 82 % 1004,9 hPa 0,0 l/m² 1,6 km/h (1 Bft) S 180 ° 0 min 0 W/m² 3,8 °C 6,7 °C 3,2 km/h (1 Bft)
31.12.2023 22:04 20,9 °C 6,7 °C 53 % 82 % 1004,8 hPa 0,0 l/m² 1,6 km/h (1 Bft) S 180 ° 0 min 0 W/m² 3,8 °C 6,7 °C 3,2 km/h (1 Bft)
31.12.2023 22:05 20,9 °C 6,6 °C 53 % 82 % 1004,9 hPa 0,0 l/m² 1,6 km/h (1 Bft) S 180 ° 0 min 0 W/m² 3,8 °C 6,6 °C 3,2 km/h (1 Bft)
31.12.2023 22:06 20,9 °C 6,6 °C 53 % 82 % 1004,9 hPa 0,0 l/m² 1,6 km/h (1 Bft) S 180 ° 0 min 0 W/m² 3,8 °C 6,6 °C 3,2 km/h (1 Bft)
31.12.2023 22:07 20,9 °C 6,6 °C 53 % 82 % 1004,9 hPa 0,0 l/m² 3,2 km/h (1 Bft) S 180 ° 0 min 0 W/m² 3,8 °C 6,6 °C 3,2 km/h (1 Bft)
31.12.2023 22:08 20,9 °C 6,6 °C 53 % 82 % 1004,9 hPa 0,0 l/m² 1,6 km/h (1 Bft) S 180 ° 0 min 0 W/m² 3,8 °C 6,6 °C 3,2 km/h (1 Bft)
31.12.2023 22:09 20,9 °C 6,6 °C 53 % 82 % 1004,9 hPa 0,0 l/m² 1,6 km/h (1 Bft) S 180 ° 0 min 0 W/m² 3,8 °C 6,6 °C 4,8 km/h (1 Bft)
31.12.2023 22:10 20,9 °C 6,5 °C 53 % 82 % 1005,0 hPa 0,0 l/m² 3,2 km/h (1 Bft) S 180 ° 0 min 0 W/m² 3,7 °C 6,5 °C 4,8 km/h (1 Bft)
31.12.2023 22:11 20,9 °C 6,5 °C 53 % 82 % 1004,9 hPa 0,0 l/m² 1,6 km/h (1 Bft) S 180 ° 0 min 0 W/m² 3,7 °C 6,5 °C 3,2 km/h (1 Bft)
31.12.2023 22:12 20,9 °C 6,4 °C 53 % 82 % 1004,9 hPa 0,0 l/m² 3,2 km/h (1 Bft) S 180 ° 0 min 0 W/m² 3,6 °C 6,4 °C 4,8 km/h (1 Bft)
31.12.2023 22:13 20,9 °C 6,4 °C 53 % 82 % 1004,9 hPa 0,0 l/m² 1,6 km/h (1 Bft) S 180 ° 0 min 0 W/m² 3,6 °C 6,4 °C 3,2 km/h (1 Bft)
31.12.2023 22:14 20,9 °C 6,4 °C 53 % 82 % 1005,0 hPa 0,0 l/m² 1,6 km/h (1 Bft) S 180 ° 0 min 0 W/m² 3,6 °C 6,4 °C 3,2 km/h (1 Bft)
31.12.2023 22:15 21,0 °C 6,4 °C 53 % 82 % 1005,0 hPa 0,0 l/m² 3,2 km/h (1 Bft) S 180 ° 0 min 0 W/m² 3,6 °C 6,4 °C 4,8 km/h (1 Bft)
31.12.2023 22:16 20,9 °C 6,4 °C 53 % 82 % 1005,0 hPa 0,0 l/m² 3,2 km/h (1 Bft) S 180 ° 0 min 0 W/m² 3,6 °C 6,4 °C 3,2 km/h (1 Bft)
31.12.2023 22:17 20,9 °C 6,4 °C 53 % 82 % 1005,0 hPa 0,0 l/m² 1,6 km/h (1 Bft) S 180 ° 0 min 0 W/m² 3,6 °C 6,4 °C 3,2 km/h (1 Bft)
31.12.2023 22:18 20,9 °C 6,3 °C 53 % 82 % 1005,0 hPa 0,0 l/m² 1,6 km/h (1 Bft) S 180 ° 0 min 0 W/m² 3,5 °C 6,3 °C 3,2 km/h (1 Bft)
31.12.2023 22:19 20,9 °C 6,3 °C 53 % 82 % 1005,0 hPa 0,0 l/m² 1,6 km/h (1 Bft) S 180 ° 0 min 0 W/m² 3,5 °C 6,3 °C 3,2 km/h (1 Bft)
31.12.2023 22:20 20,9 °C 6,3 °C 53 % 82 % 1005,0 hPa 0,0 l/m² 1,6 km/h (1 Bft) S 180 ° 0 min 0 W/m² 3,5 °C 6,3 °C 3,2 km/h (1 Bft)
31.12.2023 22:21 20,9 °C 6,3 °C 53 % 82 % 1005,0 hPa 0,0 l/m² 3,2 km/h (1 Bft) S 180 ° 0 min 0 W/m² 3,5 °C 6,3 °C 4,8 km/h (1 Bft)
31.12.2023 22:22 20,9 °C 6,3 °C 53 % 82 % 1005,0 hPa 0,0 l/m² 3,2 km/h (1 Bft) S 180 ° 0 min 0 W/m² 3,5 °C 6,3 °C 4,8 km/h (1 Bft)
31.12.2023 22:23 20,9 °C 6,3 °C 53 % 82 % 1005,0 hPa 0,0 l/m² 3,2 km/h (1 Bft) S 180 ° 0 min 0 W/m² 3,5 °C 6,3 °C 3,2 km/h (1 Bft)
31.12.2023 22:24 20,9 °C 6,2 °C 53 % 82 % 1005,0 hPa 0,0 l/m² 1,6 km/h (1 Bft) S 180 ° 0 min 0 W/m² 3,4 °C 6,2 °C 3,2 km/h (1 Bft)
31.12.2023 22:25 20,9 °C 6,2 °C 53 % 82 % 1005,0 hPa 0,0 l/m² 1,6 km/h (1 Bft) S 180 ° 0 min 0 W/m² 3,4 °C 6,2 °C 3,2 km/h (1 Bft)
31.12.2023 22:26 20,9 °C 6,1 °C 53 % 83 % 1005,0 hPa 0,0 l/m² 3,2 km/h (1 Bft) S 180 ° 0 min 0 W/m² 3,4 °C 6,1 °C 4,8 km/h (1 Bft)
31.12.2023 22:27 20,9 °C 6,1 °C 53 % 83 % 1005,0 hPa 0,0 l/m² 1,6 km/h (1 Bft) S 180 ° 0 min 0 W/m² 3,4 °C 6,1 °C 4,8 km/h (1 Bft)
31.12.2023 22:28 20,9 °C 6,1 °C 53 % 83 % 1005,0 hPa 0,0 l/m² 1,6 km/h (1 Bft) S 180 ° 0 min 0 W/m² 3,4 °C 6,1 °C 3,2 km/h (1 Bft)
31.12.2023 22:29 20,9 °C 6,1 °C 53 % 82 % 1005,0 hPa 0,0 l/m² 3,2 km/h (1 Bft) S 180 ° 0 min 0 W/m² 3,3 °C 6,1 °C 4,8 km/h (1 Bft)
31.12.2023 22:30 20,9 °C 6,0 °C 53 % 83 % 1004,9 hPa 0,0 l/m² 3,2 km/h (1 Bft) S 180 ° 0 min 0 W/m² 3,3 °C 6,0 °C 6,4 km/h (2 Bft)
31.12.2023 22:31 20,9 °C 5,9 °C 53 % 83 % 1005,1 hPa 0,0 l/m² 3,2 km/h (1 Bft) S 180 ° 0 min 0 W/m² 3,2 °C 5,9 °C 4,8 km/h (1 Bft)
31.12.2023 22:32 20,9 °C 5,9 °C 53 % 83 % 1005,1 hPa 0,0 l/m² 4,8 km/h (1 Bft) S 180 ° 0 min 0 W/m² 3,2 °C 5,9 °C 4,8 km/h (1 Bft)
31.12.2023 22:33 20,9 °C 5,9 °C 53 % 83 % 1005,1 hPa 0,0 l/m² 4,8 km/h (1 Bft) S 180 ° 0 min 0 W/m² 3,2 °C 5,9 °C 6,4 km/h (2 Bft)
31.12.2023 22:34 20,9 °C 5,8 °C 53 % 83 % 1005,0 hPa 0,0 l/m² 4,8 km/h (1 Bft) S 180 ° 0 min 0 W/m² 3,1 °C 5,8 °C 6,4 km/h (2 Bft)
31.12.2023 22:35 20,9 °C 5,8 °C 53 % 83 % 1005,0 hPa 0,0 l/m² 4,8 km/h (1 Bft) S 180 ° 0 min 0 W/m² 3,1 °C 5,8 °C 6,4 km/h (2 Bft)
31.12.2023 22:36 20,9 °C 5,7 °C 53 % 83 % 1004,9 hPa 0,0 l/m² 6,4 km/h (2 Bft) SO 135 ° 0 min 0 W/m² 3,0 °C 5,7 °C 8,0 km/h (2 Bft)
31.12.2023 22:37 20,9 °C 5,7 °C 53 % 83 % 1005,1 hPa 0,0 l/m² 6,4 km/h (2 Bft) O-SO 112 ° 0 min 0 W/m² 3,0 °C 5,7 °C 11,3 km/h (2 Bft)
31.12.2023 22:38 20,9 °C 5,7 °C 53 % 83 % 1005,0 hPa 0,0 l/m² 6,4 km/h (2 Bft) SO 135 ° 0 min 0 W/m² 3,0 °C 5,7 °C 8,0 km/h (2 Bft)
31.12.2023 22:39 20,9 °C 5,6 °C 53 % 84 % 1005,1 hPa 0,0 l/m² 6,4 km/h (2 Bft) SO 135 ° 0 min 0 W/m² 3,1 °C 5,6 °C 8,0 km/h (2 Bft)
31.12.2023 22:40 20,9 °C 5,6 °C 53 % 84 % 1005,0 hPa 0,0 l/m² 4,8 km/h (1 Bft) SO 135 ° 0 min 0 W/m² 3,1 °C 5,6 °C 6,4 km/h (2 Bft)
31.12.2023 22:41 20,9 °C 5,5 °C 53 % 84 % 1005,0 hPa 0,0 l/m² 4,8 km/h (1 Bft) SO 135 ° 0 min 0 W/m² 3,0 °C 5,5 °C 8,0 km/h (2 Bft)
31.12.2023 22:42 20,9 °C 5,5 °C 53 % 84 % 1004,9 hPa 0,0 l/m² 4,8 km/h (1 Bft) SO 135 ° 0 min 0 W/m² 3,0 °C 5,5 °C 8,0 km/h (2 Bft)
31.12.2023 22:43 20,9 °C 5,5 °C 53 % 84 % 1005,0 hPa 0,0 l/m² 4,8 km/h (1 Bft) SO 135 ° 0 min 0 W/m² 3,0 °C 5,5 °C 6,4 km/h (2 Bft)
31.12.2023 22:44 20,9 °C 5,4 °C 53 % 84 % 1005,0 hPa 0,0 l/m² 6,4 km/h (2 Bft) SO 135 ° 0 min 0 W/m² 2,9 °C 5,4 °C 8,0 km/h (2 Bft)
31.12.2023 22:45 20,9 °C 5,4 °C 53 % 84 % 1005,0 hPa 0,0 l/m² 4,8 km/h (1 Bft) O-SO 112 ° 0 min 0 W/m² 2,9 °C 5,4 °C 6,4 km/h (2 Bft)
31.12.2023 22:46 20,9 °C 5,4 °C 53 % 84 % 1005,1 hPa 0,0 l/m² 4,8 km/h (1 Bft) O-SO 112 ° 0 min 0 W/m² 2,9 °C 5,4 °C 8,0 km/h (2 Bft)
31.12.2023 22:47 20,9 °C 5,4 °C 53 % 84 % 1005,1 hPa 0,0 l/m² 4,8 km/h (1 Bft) O-SO 112 ° 0 min 0 W/m² 2,9 °C 5,4 °C 6,4 km/h (2 Bft)
31.12.2023 22:48 20,9 °C 5,4 °C 53 % 84 % 1005,0 hPa 0,0 l/m² 4,8 km/h (1 Bft) O-SO 112 ° 0 min 0 W/m² 2,9 °C 5,4 °C 6,4 km/h (2 Bft)
31.12.2023 22:49 20,9 °C 5,4 °C 53 % 85 % 1005,0 hPa 0,0 l/m² 4,8 km/h (1 Bft) O-SO 112 ° 0 min 0 W/m² 3,1 °C 5,4 °C 6,4 km/h (2 Bft)
31.12.2023 22:50 20,9 °C 5,3 °C 53 % 85 % 1005,0 hPa 0,0 l/m² 4,8 km/h (1 Bft) O-SO 112 ° 0 min 0 W/m² 3,0 °C 5,3 °C 6,4 km/h (2 Bft)
31.12.2023 22:51 20,9 °C 5,3 °C 53 % 85 % 1005,0 hPa 0,0 l/m² 6,4 km/h (2 Bft) O-SO 112 ° 0 min 0 W/m² 3,0 °C 5,3 °C 9,7 km/h (2 Bft)
31.12.2023 22:52 20,9 °C 5,3 °C 53 % 85 % 1005,1 hPa 0,0 l/m² 4,8 km/h (1 Bft) O-SO 112 ° 0 min 0 W/m² 3,0 °C 5,3 °C 9,7 km/h (2 Bft)
31.12.2023 22:53 20,9 °C 5,4 °C 53 % 85 % 1005,2 hPa 0,0 l/m² 4,8 km/h (1 Bft) O-SO 112 ° 0 min 0 W/m² 3,1 °C 5,4 °C 6,4 km/h (2 Bft)
31.12.2023 22:54 20,9 °C 5,3 °C 53 % 85 % 1005,1 hPa 0,0 l/m² 4,8 km/h (1 Bft) O-SO 112 ° 0 min 0 W/m² 3,0 °C 5,3 °C 6,4 km/h (2 Bft)
31.12.2023 22:55 20,9 °C 5,3 °C 53 % 85 % 1005,1 hPa 0,0 l/m² 6,4 km/h (2 Bft) O-SO 112 ° 0 min 0 W/m² 3,0 °C 5,3 °C 6,4 km/h (2 Bft)
31.12.2023 22:56 20,9 °C 5,3 °C 53 % 85 % 1005,2 hPa 0,0 l/m² 6,4 km/h (2 Bft) O-SO 112 ° 0 min 0 W/m² 3,0 °C 5,3 °C 6,4 km/h (2 Bft)
31.12.2023 22:57 20,9 °C 5,3 °C 53 % 85 % 1005,2 hPa 0,0 l/m² 6,4 km/h (2 Bft) O-SO 112 ° 0 min 0 W/m² 3,0 °C 5,3 °C 9,7 km/h (2 Bft)
31.12.2023 22:58 20,9 °C 5,4 °C 53 % 85 % 1005,2 hPa 0,0 l/m² 6,4 km/h (2 Bft) O-SO 112 ° 0 min 0 W/m² 3,1 °C 5,4 °C 9,7 km/h (2 Bft)
31.12.2023 22:59 20,9 °C 5,3 °C 53 % 85 % 1005,3 hPa 0,0 l/m² 6,4 km/h (2 Bft) O-SO 112 ° 0 min 0 W/m² 3,0 °C 5,3 °C 9,7 km/h (2 Bft)
31.12.2023 23:00 20,9 °C 5,3 °C 53 % 85 % 1005,1 hPa 0,0 l/m² 6,4 km/h (2 Bft) O-SO 112 ° 0 min 0 W/m² 3,0 °C 5,3 °C 9,7 km/h (2 Bft)
31.12.2023 23:01 20,9 °C 5,3 °C 53 % 85 % 1005,2 hPa 0,0 l/m² 6,4 km/h (2 Bft) O-SO 112 ° 0 min 0 W/m² 3,0 °C 5,3 °C 9,7 km/h (2 Bft)
31.12.2023 23:02 20,9 °C 5,4 °C 53 % 85 % 1005,1 hPa 0,0 l/m² 6,4 km/h (2 Bft) O-SO 112 ° 0 min 0 W/m² 3,1 °C 5,4 °C 9,7 km/h (2 Bft)
31.12.2023 23:03 20,9 °C 5,3 °C 53 % 85 % 1005,1 hPa 0,0 l/m² 6,4 km/h (2 Bft) O-SO 112 ° 0 min 0 W/m² 3,0 °C 5,3 °C 9,7 km/h (2 Bft)
31.12.2023 23:04 20,9 °C 5,4 °C 53 % 85 % 1005,1 hPa 0,0 l/m² 6,4 km/h (2 Bft) O-SO 112 ° 0 min 0 W/m² 3,1 °C 5,4 °C 9,7 km/h (2 Bft)
31.12.2023 23:05 20,9 °C 5,3 °C 53 % 85 % 1005,1 hPa 0,0 l/m² 3,2 km/h (1 Bft) O-SO 112 ° 0 min 0 W/m² 3,0 °C 5,3 °C 4,8 km/h (1 Bft)
31.12.2023 23:06 20,9 °C 5,4 °C 53 % 85 % 1005,1 hPa 0,0 l/m² 3,2 km/h (1 Bft) O-SO 112 ° 0 min 0 W/m² 3,1 °C 5,4 °C 4,8 km/h (1 Bft)
31.12.2023 23:07 20,9 °C 5,4 °C 53 % 85 % 1005,1 hPa 0,0 l/m² 4,8 km/h (1 Bft) O-SO 112 ° 0 min 0 W/m² 3,1 °C 5,4 °C 8,0 km/h (2 Bft)
31.12.2023 23:08 20,9 °C 5,4 °C 53 % 85 % 1005,1 hPa 0,0 l/m² 4,8 km/h (1 Bft) O-SO 112 ° 0 min 0 W/m² 3,1 °C 5,4 °C 8,0 km/h (2 Bft)
31.12.2023 23:09 20,9 °C 5,4 °C 53 % 85 % 1005,0 hPa 0,0 l/m² 4,8 km/h (1 Bft) O-SO 112 ° 0 min 0 W/m² 3,1 °C 5,4 °C 6,4 km/h (2 Bft)
31.12.2023 23:10 20,9 °C 5,4 °C 53 % 85 % 1005,1 hPa 0,0 l/m² 3,2 km/h (1 Bft) O-SO 112 ° 0 min 0 W/m² 3,1 °C 5,4 °C 4,8 km/h (1 Bft)
31.12.2023 23:11 20,9 °C 5,4 °C 53 % 85 % 1005,0 hPa 0,0 l/m² 3,2 km/h (1 Bft) O-SO 112 ° 0 min 0 W/m² 3,1 °C 5,4 °C 6,4 km/h (2 Bft)
31.12.2023 23:12 20,9 °C 5,4 °C 53 % 85 % 1005,1 hPa 0,0 l/m² 3,2 km/h (1 Bft) O-SO 112 ° 0 min 0 W/m² 3,1 °C 5,4 °C 4,8 km/h (1 Bft)
31.12.2023 23:13 20,9 °C 5,4 °C 53 % 85 % 1005,1 hPa 0,0 l/m² 3,2 km/h (1 Bft) O-SO 112 ° 0 min 0 W/m² 3,1 °C 5,4 °C 4,8 km/h (1 Bft)
31.12.2023 23:14 20,9 °C 5,4 °C 53 % 85 % 1005,0 hPa 0,0 l/m² 3,2 km/h (1 Bft) SO 135 ° 0 min 0 W/m² 3,1 °C 5,4 °C 4,8 km/h (1 Bft)
31.12.2023 23:15 20,9 °C 5,4 °C 53 % 85 % 1005,0 hPa 0,0 l/m² 3,2 km/h (1 Bft) SO 135 ° 0 min 0 W/m² 3,1 °C 5,4 °C 4,8 km/h (1 Bft)
31.12.2023 23:16 20,9 °C 5,4 °C 53 % 85 % 1004,9 hPa 0,0 l/m² 3,2 km/h (1 Bft) SO 135 ° 0 min 0 W/m² 3,1 °C 5,4 °C 4,8 km/h (1 Bft)
31.12.2023 23:17 20,9 °C 5,4 °C 53 % 85 % 1005,0 hPa 0,0 l/m² 3,2 km/h (1 Bft) SO 135 ° 0 min 0 W/m² 3,1 °C 5,4 °C 4,8 km/h (1 Bft)
31.12.2023 23:18 20,9 °C 5,4 °C 53 % 85 % 1005,1 hPa 0,0 l/m² 3,2 km/h (1 Bft) SO 135 ° 0 min 0 W/m² 3,1 °C 5,4 °C 6,4 km/h (2 Bft)
31.12.2023 23:19 20,9 °C 5,4 °C 53 % 85 % 1005,1 hPa 0,0 l/m² 3,2 km/h (1 Bft) SO 135 ° 0 min 0 W/m² 3,1 °C 5,4 °C 3,2 km/h (1 Bft)
31.12.2023 23:20 20,9 °C 5,4 °C 53 % 85 % 1005,1 hPa 0,0 l/m² 1,6 km/h (1 Bft) SO 135 ° 0 min 0 W/m² 3,1 °C 5,4 °C 3,2 km/h (1 Bft)
31.12.2023 23:21 20,9 °C 5,4 °C 53 % 85 % 1005,1 hPa 0,0 l/m² 1,6 km/h (1 Bft) SO 135 ° 0 min 0 W/m² 3,1 °C 5,4 °C 3,2 km/h (1 Bft)
31.12.2023 23:22 20,9 °C 5,4 °C 53 % 85 % 1005,0 hPa 0,0 l/m² 3,2 km/h (1 Bft) SO 135 ° 0 min 0 W/m² 3,1 °C 5,4 °C 4,8 km/h (1 Bft)
31.12.2023 23:23 20,9 °C 5,4 °C 53 % 85 % 1005,0 hPa 0,0 l/m² 3,2 km/h (1 Bft) SO 135 ° 0 min 0 W/m² 3,1 °C 5,4 °C 4,8 km/h (1 Bft)
31.12.2023 23:24 20,9 °C 5,4 °C 54 % 85 % 1005,0 hPa 0,0 l/m² 3,2 km/h (1 Bft) SO 135 ° 0 min 0 W/m² 3,1 °C 5,4 °C 4,8 km/h (1 Bft)
31.12.2023 23:25 20,9 °C 5,4 °C 53 % 85 % 1005,0 hPa 0,0 l/m² 1,6 km/h (1 Bft) SO 135 ° 0 min 0 W/m² 3,1 °C 5,4 °C 3,2 km/h (1 Bft)
31.12.2023 23:26 20,9 °C 5,4 °C 53 % 85 % 1005,0 hPa 0,0 l/m² 1,6 km/h (1 Bft) SO 135 ° 0 min 0 W/m² 3,1 °C 5,4 °C 4,8 km/h (1 Bft)
31.12.2023 23:27 20,9 °C 5,4 °C 53 % 85 % 1004,9 hPa 0,0 l/m² 1,6 km/h (1 Bft) SO 135 ° 0 min 0 W/m² 3,1 °C 5,4 °C 4,8 km/h (1 Bft)
31.12.2023 23:28 20,9 °C 5,4 °C 53 % 85 % 1005,0 hPa 0,0 l/m² 1,6 km/h (1 Bft) SO 135 ° 0 min 0 W/m² 3,1 °C 5,4 °C 4,8 km/h (1 Bft)
31.12.2023 23:29 20,9 °C 5,4 °C 53 % 85 % 1005,1 hPa 0,0 l/m² 4,8 km/h (1 Bft) SO 135 ° 0 min 0 W/m² 3,1 °C 5,4 °C 4,8 km/h (1 Bft)
31.12.2023 23:30 20,9 °C 5,4 °C 53 % 85 % 1004,9 hPa 0,0 l/m² 4,8 km/h (1 Bft) SO 135 ° 0 min 0 W/m² 3,1 °C 5,4 °C 4,8 km/h (1 Bft)
31.12.2023 23:31 20,9 °C 5,3 °C 53 % 85 % 1005,0 hPa 0,0 l/m² 4,8 km/h (1 Bft) SO 135 ° 0 min 0 W/m² 3,0 °C 5,3 °C 8,0 km/h (2 Bft)
31.12.2023 23:32 20,9 °C 5,3 °C 53 % 85 % 1005,0 hPa 0,0 l/m² 6,4 km/h (2 Bft) SO 135 ° 0 min 0 W/m² 3,0 °C 5,3 °C 9,7 km/h (2 Bft)
31.12.2023 23:33 20,9 °C 5,3 °C 53 % 85 % 1005,0 hPa 0,0 l/m² 6,4 km/h (2 Bft) S-SO 157 ° 0 min 0 W/m² 3,0 °C 5,3 °C 9,7 km/h (2 Bft)
31.12.2023 23:34 20,9 °C 5,3 °C 53 % 85 % 1005,0 hPa 0,0 l/m² 8,0 km/h (2 Bft) S-SO 157 ° 0 min 0 W/m² 3,0 °C 3,9 °C 9,7 km/h (2 Bft)
31.12.2023 23:35 20,9 °C 5,3 °C 53 % 85 % 1004,9 hPa 0,0 l/m² 6,4 km/h (2 Bft) S-SO 157 ° 0 min 0 W/m² 3,0 °C 5,3 °C 9,7 km/h (2 Bft)
31.12.2023 23:36 20,9 °C 5,3 °C 53 % 85 % 1004,9 hPa 0,0 l/m² 4,8 km/h (1 Bft) S-SO 157 ° 0 min 0 W/m² 3,0 °C 5,3 °C 6,4 km/h (2 Bft)
31.12.2023 23:37 20,9 °C 5,3 °C 53 % 85 % 1004,9 hPa 0,0 l/m² 6,4 km/h (2 Bft) S-SO 157 ° 0 min 0 W/m² 3,0 °C 5,3 °C 8,0 km/h (2 Bft)
31.12.2023 23:38 20,9 °C 5,3 °C 54 % 85 % 1004,9 hPa 0,0 l/m² 8,0 km/h (2 Bft) SO 135 ° 0 min 0 W/m² 3,0 °C 3,9 °C 9,7 km/h (2 Bft)
31.12.2023 23:39 20,9 °C 5,3 °C 54 % 85 % 1004,9 hPa 0,0 l/m² 6,4 km/h (2 Bft) SO 135 ° 0 min 0 W/m² 3,0 °C 5,3 °C 9,7 km/h (2 Bft)
31.12.2023 23:40 20,9 °C 5,3 °C 53 % 85 % 1004,9 hPa 0,0 l/m² 6,4 km/h (2 Bft) SO 135 ° 0 min 0 W/m² 3,0 °C 5,3 °C 6,4 km/h (2 Bft)
31.12.2023 23:41 20,9 °C 5,3 °C 53 % 85 % 1004,8 hPa 0,0 l/m² 6,4 km/h (2 Bft) S-SO 157 ° 0 min 0 W/m² 3,0 °C 5,3 °C 8,0 km/h (2 Bft)
31.12.2023 23:42 20,9 °C 5,3 °C 53 % 85 % 1004,8 hPa 0,0 l/m² 4,8 km/h (1 Bft) S-SO 157 ° 0 min 0 W/m² 3,0 °C 5,3 °C 6,4 km/h (2 Bft)
31.12.2023 23:43 20,9 °C 5,3 °C 53 % 85 % 1004,9 hPa 0,0 l/m² 4,8 km/h (1 Bft) S-SO 157 ° 0 min 0 W/m² 3,0 °C 5,3 °C 6,4 km/h (2 Bft)
31.12.2023 23:44 20,9 °C 5,3 °C 53 % 85 % 1004,8 hPa 0,0 l/m² 4,8 km/h (1 Bft) S-SO 157 ° 0 min 0 W/m² 3,0 °C 5,3 °C 6,4 km/h (2 Bft)
31.12.2023 23:45 20,9 °C 5,3 °C 53 % 85 % 1004,9 hPa 0,0 l/m² 4,8 km/h (1 Bft) S-SO 157 ° 0 min 0 W/m² 3,0 °C 5,3 °C 6,4 km/h (2 Bft)
31.12.2023 23:46 20,9 °C 5,3 °C 53 % 85 % 1004,8 hPa 0,0 l/m² 3,2 km/h (1 Bft) S-SO 157 ° 0 min 0 W/m² 3,0 °C 5,3 °C 6,4 km/h (2 Bft)
31.12.2023 23:47 20,9 °C 5,3 °C 53 % 85 % 1004,9 hPa 0,0 l/m² 4,8 km/h (1 Bft) S-SO 157 ° 0 min 0 W/m² 3,0 °C 5,3 °C 6,4 km/h (2 Bft)
31.12.2023 23:48 20,8 °C 5,3 °C 53 % 85 % 1004,9 hPa 0,0 l/m² 4,8 km/h (1 Bft) S-SO 157 ° 0 min 0 W/m² 3,0 °C 5,3 °C 9,7 km/h (2 Bft)
31.12.2023 23:49 20,9 °C 5,3 °C 53 % 85 % 1004,8 hPa 0,0 l/m² 4,8 km/h (1 Bft) S-SO 157 ° 0 min 0 W/m² 3,0 °C 5,3 °C 6,4 km/h (2 Bft)
31.12.2023 23:50 20,9 °C 5,3 °C 54 % 85 % 1004,8 hPa 0,0 l/m² 3,2 km/h (1 Bft) S-SO 157 ° 0 min 0 W/m² 3,0 °C 5,3 °C 4,8 km/h (1 Bft)
31.12.2023 23:51 20,8 °C 5,3 °C 53 % 85 % 1004,8 hPa 0,0 l/m² 3,2 km/h (1 Bft) S-SO 157 ° 0 min 0 W/m² 3,0 °C 5,3 °C 6,4 km/h (2 Bft)
31.12.2023 23:52 20,9 °C 5,3 °C 53 % 85 % 1004,8 hPa 0,0 l/m² 4,8 km/h (1 Bft) S-SO 157 ° 0 min 0 W/m² 3,0 °C 5,3 °C 8,0 km/h (2 Bft)
31.12.2023 23:53 20,9 °C 5,3 °C 53 % 85 % 1004,8 hPa 0,0 l/m² 4,8 km/h (1 Bft) SO 135 ° 0 min 0 W/m² 3,0 °C 5,3 °C 8,0 km/h (2 Bft)
31.12.2023 23:54 20,8 °C 5,3 °C 53 % 85 % 1004,7 hPa 0,0 l/m² 4,8 km/h (1 Bft) SO 135 ° 0 min 0 W/m² 3,0 °C 5,3 °C 6,4 km/h (2 Bft)
31.12.2023 23:55 20,9 °C 5,3 °C 54 % 85 % 1004,8 hPa 0,0 l/m² 4,8 km/h (1 Bft) SO 135 ° 0 min 0 W/m² 3,0 °C 5,3 °C 6,4 km/h (2 Bft)
31.12.2023 23:56 20,8 °C 5,3 °C 53 % 85 % 1004,7 hPa 0,0 l/m² 6,4 km/h (2 Bft) SO 135 ° 0 min 0 W/m² 3,0 °C 5,3 °C 8,0 km/h (2 Bft)
31.12.2023 23:57 20,8 °C 5,3 °C 53 % 85 % 1004,8 hPa 0,0 l/m² 6,4 km/h (2 Bft) SO 135 ° 0 min 0 W/m² 3,0 °C 5,3 °C 12,9 km/h (3 Bft)
31.12.2023 23:58 20,9 °C 5,3 °C 53 % 85 % 1004,8 hPa 0,0 l/m² 6,4 km/h (2 Bft) SO 135 ° 0 min 0 W/m² 3,0 °C 5,3 °C 8,0 km/h (2 Bft)
31.12.2023 23:59 20,9 °C 5,3 °C 53 % 85 % 1004,7 hPa 0,0 l/m² 6,4 km/h (2 Bft) SO 135 ° 0 min 0 W/m² 3,0 °C 5,3 °C 8,0 km/h (2 Bft)
_ Min-Zeit 23:57 07:54 14:50 17:27 15:38 - 22:02 - - - - 07:53 05:11 20:15
Minimum _ 20,8 °C 3,1 °C 48 % 79 % 1002,2 hPa - 0,0 km/h (0 Bft) - - - - 1,6 °C -1,8 °C 0,0 km/h (0 Bft)
_ Max-Zeit 10:28 14:30 11:06 10:01 00:06 23:59 18:14 - - 09:47 13:15 13:25 14:37 18:53
Maximum _ 21,5 °C 8,8 °C 56 % 91 % 1013,0 hPa 0,0 l/m² 20,9 km/h
S (4 Bft)
- - 3 min 114 W/m² 5,7 °C 8,7 °C 29,0 km/h
S-SO (5 Bft)
Durchschnitt _ 21,0 °C 5,9 °C 54 % 86 % 1006,4 hPa #0,0 l/m² 6,4 km/h (2 Bft) S-SO - #3:35 h 18 W/m² 3,7 °C 4,7 °C 9,3 km/h (2 Bft)
© 2009 Mathias Hoßbach